<?xml version="1.0" encoding="UTF-8" standalone="no" ?>
<gpx xmlns="http://www.topografix.com/GPX/1/1" xmlns:xsi="http://www.w3.org/2001/XMLSchema-instance" xsi:schemaLocation="http://www.topografix.com/GPX/1/1 http://www.topografix.com/GPX/1/1/gpx.xsd" version="1.1" creator="VisuGPX - https://www.visugpx.com">
  <metadata>
    <name> cancon boudy de beauregard</name>
    <desc><![CDATA[super circuit un peu humide en hiver]]></desc>
  </metadata>
  <trk>
    <name><![CDATA[Sequence 1]]></name>
    <trkseg>
      <trkpt lat="44.5365" lon="0.62483">
        <ele>161</ele>
        <time>2015-12-27T08:12:52Z</time>
      </trkpt>
      <trkpt lat="44.53654" lon="0.62493">
        <ele>162</ele>
        <time>2015-12-27T08:12:56Z</time>
      </trkpt>
      <trkpt lat="44.53665" lon="0.62493">
        <ele>163</ele>
        <time>2015-12-27T08:13:01Z</time>
      </trkpt>
      <trkpt lat="44.53667" lon="0.62491">
        <ele>161</ele>
        <time>2015-12-27T08:13:06Z</time>
      </trkpt>
      <trkpt lat="44.53664" lon="0.6252">
        <ele>160</ele>
        <time>2015-12-27T08:13:13Z</time>
      </trkpt>
      <trkpt lat="44.53658" lon="0.62544">
        <ele>159</ele>
        <time>2015-12-27T08:13:16Z</time>
      </trkpt>
      <trkpt lat="44.53658" lon="0.62571">
        <ele>156</ele>
        <time>2015-12-27T08:13:21Z</time>
      </trkpt>
      <trkpt lat="44.53676" lon="0.62586">
        <ele>154</ele>
        <time>2015-12-27T08:13:26Z</time>
      </trkpt>
      <trkpt lat="44.53706" lon="0.62636">
        <ele>153</ele>
        <time>2015-12-27T08:13:34Z</time>
      </trkpt>
      <trkpt lat="44.53719" lon="0.62639">
        <ele>153</ele>
        <time>2015-12-27T08:13:36Z</time>
      </trkpt>
      <trkpt lat="44.53749" lon="0.62645">
        <ele>152</ele>
        <time>2015-12-27T08:13:41Z</time>
      </trkpt>
      <trkpt lat="44.53769" lon="0.62645">
        <ele>150</ele>
        <time>2015-12-27T08:13:46Z</time>
      </trkpt>
      <trkpt lat="44.53798" lon="0.6264">
        <ele>148</ele>
        <time>2015-12-27T08:13:53Z</time>
      </trkpt>
      <trkpt lat="44.53815" lon="0.62638">
        <ele>147</ele>
        <time>2015-12-27T08:13:56Z</time>
      </trkpt>
      <trkpt lat="44.53839" lon="0.62634">
        <ele>147</ele>
        <time>2015-12-27T08:14:01Z</time>
      </trkpt>
      <trkpt lat="44.53865" lon="0.62626">
        <ele>146</ele>
        <time>2015-12-27T08:14:06Z</time>
      </trkpt>
      <trkpt lat="44.53889" lon="0.62623">
        <ele>144</ele>
        <time>2015-12-27T08:14:11Z</time>
      </trkpt>
      <trkpt lat="44.53912" lon="0.62618">
        <ele>142</ele>
        <time>2015-12-27T08:14:16Z</time>
      </trkpt>
      <trkpt lat="44.53929" lon="0.62616">
        <ele>141</ele>
        <time>2015-12-27T08:14:21Z</time>
      </trkpt>
      <trkpt lat="44.53952" lon="0.62611">
        <ele>141</ele>
        <time>2015-12-27T08:14:26Z</time>
      </trkpt>
      <trkpt lat="44.53971" lon="0.62608">
        <ele>142</ele>
        <time>2015-12-27T08:14:31Z</time>
      </trkpt>
      <trkpt lat="44.53992" lon="0.62603">
        <ele>141</ele>
        <time>2015-12-27T08:14:36Z</time>
      </trkpt>
      <trkpt lat="44.54004" lon="0.6259">
        <ele>139</ele>
        <time>2015-12-27T08:14:41Z</time>
      </trkpt>
      <trkpt lat="44.54016" lon="0.62611">
        <ele>137</ele>
        <time>2015-12-27T08:14:46Z</time>
      </trkpt>
      <trkpt lat="44.54032" lon="0.6264">
        <ele>134</ele>
        <time>2015-12-27T08:14:52Z</time>
      </trkpt>
      <trkpt lat="44.54043" lon="0.62658">
        <ele>132</ele>
        <time>2015-12-27T08:14:56Z</time>
      </trkpt>
      <trkpt lat="44.54056" lon="0.62684">
        <ele>129</ele>
        <time>2015-12-27T08:15:01Z</time>
      </trkpt>
      <trkpt lat="44.54067" lon="0.62708">
        <ele>128</ele>
        <time>2015-12-27T08:15:06Z</time>
      </trkpt>
      <trkpt lat="44.54097" lon="0.62727">
        <ele>127</ele>
        <time>2015-12-27T08:15:13Z</time>
      </trkpt>
      <trkpt lat="44.54111" lon="0.62724">
        <ele>127</ele>
        <time>2015-12-27T08:15:16Z</time>
      </trkpt>
      <trkpt lat="44.5414" lon="0.62699">
        <ele>130</ele>
        <time>2015-12-27T08:15:23Z</time>
      </trkpt>
      <trkpt lat="44.54151" lon="0.62689">
        <ele>131</ele>
        <time>2015-12-27T08:15:26Z</time>
      </trkpt>
      <trkpt lat="44.54166" lon="0.62684">
        <ele>133</ele>
        <time>2015-12-27T08:15:31Z</time>
      </trkpt>
      <trkpt lat="44.54174" lon="0.62705">
        <ele>131</ele>
        <time>2015-12-27T08:15:36Z</time>
      </trkpt>
      <trkpt lat="44.54181" lon="0.62732">
        <ele>130</ele>
        <time>2015-12-27T08:15:41Z</time>
      </trkpt>
      <trkpt lat="44.54193" lon="0.62759">
        <ele>127</ele>
        <time>2015-12-27T08:15:46Z</time>
      </trkpt>
      <trkpt lat="44.5421" lon="0.62783">
        <ele>125</ele>
        <time>2015-12-27T08:15:51Z</time>
      </trkpt>
      <trkpt lat="44.54229" lon="0.62802">
        <ele>126</ele>
        <time>2015-12-27T08:15:56Z</time>
      </trkpt>
      <trkpt lat="44.54248" lon="0.62818">
        <ele>126</ele>
        <time>2015-12-27T08:16:01Z</time>
      </trkpt>
      <trkpt lat="44.54262" lon="0.62831">
        <ele>127</ele>
        <time>2015-12-27T08:16:06Z</time>
      </trkpt>
      <trkpt lat="44.54276" lon="0.62838">
        <ele>128</ele>
        <time>2015-12-27T08:16:11Z</time>
      </trkpt>
      <trkpt lat="44.54289" lon="0.62848">
        <ele>128</ele>
        <time>2015-12-27T08:16:16Z</time>
      </trkpt>
      <trkpt lat="44.543" lon="0.62857">
        <ele>129</ele>
        <time>2015-12-27T08:16:21Z</time>
      </trkpt>
      <trkpt lat="44.54311" lon="0.62864">
        <ele>129</ele>
        <time>2015-12-27T08:16:26Z</time>
      </trkpt>
      <trkpt lat="44.54323" lon="0.62879">
        <ele>129</ele>
        <time>2015-12-27T08:16:31Z</time>
      </trkpt>
      <trkpt lat="44.54338" lon="0.62896">
        <ele>129</ele>
        <time>2015-12-27T08:16:36Z</time>
      </trkpt>
      <trkpt lat="44.54358" lon="0.6292">
        <ele>128</ele>
        <time>2015-12-27T08:16:41Z</time>
      </trkpt>
      <trkpt lat="44.54386" lon="0.62953">
        <ele>124</ele>
        <time>2015-12-27T08:16:46Z</time>
      </trkpt>
      <trkpt lat="44.54418" lon="0.62994">
        <ele>122</ele>
        <time>2015-12-27T08:16:51Z</time>
      </trkpt>
      <trkpt lat="44.54448" lon="0.63034">
        <ele>120</ele>
        <time>2015-12-27T08:16:56Z</time>
      </trkpt>
      <trkpt lat="44.54468" lon="0.63069">
        <ele>120</ele>
        <time>2015-12-27T08:17:01Z</time>
      </trkpt>
      <trkpt lat="44.54485" lon="0.631">
        <ele>120</ele>
        <time>2015-12-27T08:17:06Z</time>
      </trkpt>
      <trkpt lat="44.54502" lon="0.63129">
        <ele>120</ele>
        <time>2015-12-27T08:17:11Z</time>
      </trkpt>
      <trkpt lat="44.54519" lon="0.63157">
        <ele>120</ele>
        <time>2015-12-27T08:17:16Z</time>
      </trkpt>
      <trkpt lat="44.54539" lon="0.6318">
        <ele>121</ele>
        <time>2015-12-27T08:17:21Z</time>
      </trkpt>
      <trkpt lat="44.54561" lon="0.63198">
        <ele>121</ele>
        <time>2015-12-27T08:17:26Z</time>
      </trkpt>
      <trkpt lat="44.54582" lon="0.63213">
        <ele>121</ele>
        <time>2015-12-27T08:17:31Z</time>
      </trkpt>
      <trkpt lat="44.54601" lon="0.63227">
        <ele>123</ele>
        <time>2015-12-27T08:17:36Z</time>
      </trkpt>
      <trkpt lat="44.54619" lon="0.63238">
        <ele>125</ele>
        <time>2015-12-27T08:17:41Z</time>
      </trkpt>
      <trkpt lat="44.54634" lon="0.63246">
        <ele>126</ele>
        <time>2015-12-27T08:17:46Z</time>
      </trkpt>
      <trkpt lat="44.54655" lon="0.63259">
        <ele>124</ele>
        <time>2015-12-27T08:17:51Z</time>
      </trkpt>
      <trkpt lat="44.54689" lon="0.63275">
        <ele>122</ele>
        <time>2015-12-27T08:17:56Z</time>
      </trkpt>
      <trkpt lat="44.54725" lon="0.63274">
        <ele>122</ele>
        <time>2015-12-27T08:18:01Z</time>
      </trkpt>
      <trkpt lat="44.54748" lon="0.63265">
        <ele>124</ele>
        <time>2015-12-27T08:18:06Z</time>
      </trkpt>
      <trkpt lat="44.5477" lon="0.63256">
        <ele>126</ele>
        <time>2015-12-27T08:18:11Z</time>
      </trkpt>
      <trkpt lat="44.5479" lon="0.6325">
        <ele>127</ele>
        <time>2015-12-27T08:18:16Z</time>
      </trkpt>
      <trkpt lat="44.54808" lon="0.63243">
        <ele>129</ele>
        <time>2015-12-27T08:18:21Z</time>
      </trkpt>
      <trkpt lat="44.5482" lon="0.63239">
        <ele>131</ele>
        <time>2015-12-27T08:18:26Z</time>
      </trkpt>
      <trkpt lat="44.54832" lon="0.63235">
        <ele>132</ele>
        <time>2015-12-27T08:18:31Z</time>
      </trkpt>
      <trkpt lat="44.54843" lon="0.63232">
        <ele>133</ele>
        <time>2015-12-27T08:18:36Z</time>
      </trkpt>
      <trkpt lat="44.54854" lon="0.63229">
        <ele>134</ele>
        <time>2015-12-27T08:18:41Z</time>
      </trkpt>
      <trkpt lat="44.54866" lon="0.63225">
        <ele>134</ele>
        <time>2015-12-27T08:18:46Z</time>
      </trkpt>
      <trkpt lat="44.54878" lon="0.63221">
        <ele>135</ele>
        <time>2015-12-27T08:18:51Z</time>
      </trkpt>
      <trkpt lat="44.5489" lon="0.63218">
        <ele>134</ele>
        <time>2015-12-27T08:18:56Z</time>
      </trkpt>
      <trkpt lat="44.54903" lon="0.63214">
        <ele>135</ele>
        <time>2015-12-27T08:19:01Z</time>
      </trkpt>
      <trkpt lat="44.54915" lon="0.63211">
        <ele>136</ele>
        <time>2015-12-27T08:19:06Z</time>
      </trkpt>
      <trkpt lat="44.54927" lon="0.63207">
        <ele>137</ele>
        <time>2015-12-27T08:19:11Z</time>
      </trkpt>
      <trkpt lat="44.54937" lon="0.632">
        <ele>138</ele>
        <time>2015-12-27T08:19:16Z</time>
      </trkpt>
      <trkpt lat="44.54949" lon="0.63202">
        <ele>139</ele>
        <time>2015-12-27T08:19:21Z</time>
      </trkpt>
      <trkpt lat="44.54961" lon="0.63202">
        <ele>140</ele>
        <time>2015-12-27T08:19:26Z</time>
      </trkpt>
      <trkpt lat="44.54974" lon="0.63201">
        <ele>142</ele>
        <time>2015-12-27T08:19:31Z</time>
      </trkpt>
      <trkpt lat="44.54986" lon="0.63201">
        <ele>142</ele>
        <time>2015-12-27T08:19:36Z</time>
      </trkpt>
      <trkpt lat="44.54998" lon="0.63201">
        <ele>145</ele>
        <time>2015-12-27T08:19:41Z</time>
      </trkpt>
      <trkpt lat="44.55009" lon="0.63205">
        <ele>144</ele>
        <time>2015-12-27T08:19:46Z</time>
      </trkpt>
      <trkpt lat="44.55017" lon="0.63219">
        <ele>145</ele>
        <time>2015-12-27T08:19:51Z</time>
      </trkpt>
      <trkpt lat="44.55024" lon="0.63234">
        <ele>146</ele>
        <time>2015-12-27T08:19:56Z</time>
      </trkpt>
      <trkpt lat="44.55027" lon="0.63247">
        <ele>146</ele>
        <time>2015-12-27T08:20:01Z</time>
      </trkpt>
      <trkpt lat="44.55033" lon="0.63263">
        <ele>147</ele>
        <time>2015-12-27T08:20:07Z</time>
      </trkpt>
      <trkpt lat="44.55036" lon="0.63272">
        <ele>147</ele>
        <time>2015-12-27T08:20:11Z</time>
      </trkpt>
      <trkpt lat="44.55041" lon="0.63284">
        <ele>147</ele>
        <time>2015-12-27T08:20:16Z</time>
      </trkpt>
      <trkpt lat="44.55048" lon="0.63299">
        <ele>147</ele>
        <time>2015-12-27T08:20:21Z</time>
      </trkpt>
      <trkpt lat="44.55058" lon="0.63318">
        <ele>146</ele>
        <time>2015-12-27T08:20:26Z</time>
      </trkpt>
      <trkpt lat="44.55072" lon="0.63343">
        <ele>145</ele>
        <time>2015-12-27T08:20:31Z</time>
      </trkpt>
      <trkpt lat="44.55089" lon="0.63375">
        <ele>145</ele>
        <time>2015-12-27T08:20:36Z</time>
      </trkpt>
      <trkpt lat="44.55104" lon="0.63399">
        <ele>144</ele>
        <time>2015-12-27T08:20:41Z</time>
      </trkpt>
      <trkpt lat="44.55115" lon="0.63411">
        <ele>146</ele>
        <time>2015-12-27T08:20:46Z</time>
      </trkpt>
      <trkpt lat="44.55128" lon="0.63427">
        <ele>148</ele>
        <time>2015-12-27T08:20:51Z</time>
      </trkpt>
      <trkpt lat="44.55146" lon="0.63437">
        <ele>157</ele>
        <time>2015-12-27T08:20:59Z</time>
      </trkpt>
      <trkpt lat="44.55152" lon="0.63442">
        <ele>157</ele>
        <time>2015-12-27T08:21:01Z</time>
      </trkpt>
      <trkpt lat="44.55163" lon="0.63452">
        <ele>155</ele>
        <time>2015-12-27T08:21:06Z</time>
      </trkpt>
      <trkpt lat="44.55175" lon="0.63467">
        <ele>152</ele>
        <time>2015-12-27T08:21:13Z</time>
      </trkpt>
      <trkpt lat="44.5518" lon="0.63471">
        <ele>151</ele>
        <time>2015-12-27T08:21:16Z</time>
      </trkpt>
      <trkpt lat="44.5519" lon="0.63478">
        <ele>152</ele>
        <time>2015-12-27T08:21:21Z</time>
      </trkpt>
      <trkpt lat="44.55199" lon="0.63487">
        <ele>154</ele>
        <time>2015-12-27T08:21:26Z</time>
      </trkpt>
      <trkpt lat="44.55207" lon="0.63494">
        <ele>159</ele>
        <time>2015-12-27T08:21:31Z</time>
      </trkpt>
      <trkpt lat="44.55212" lon="0.635">
        <ele>158</ele>
        <time>2015-12-27T08:21:36Z</time>
      </trkpt>
      <trkpt lat="44.55212" lon="0.63502">
        <ele>160</ele>
        <time>2015-12-27T08:21:41Z</time>
      </trkpt>
      <trkpt lat="44.55212" lon="0.63503">
        <ele>160</ele>
        <time>2015-12-27T08:21:44Z</time>
      </trkpt>
      <trkpt lat="44.55213" lon="0.63503">
        <ele>161</ele>
        <time>2015-12-27T08:21:48Z</time>
      </trkpt>
      <trkpt lat="44.55213" lon="0.63503">
        <ele>160</ele>
        <time>2015-12-27T08:21:50Z</time>
      </trkpt>
      <trkpt lat="44.55213" lon="0.63503">
        <ele>161</ele>
        <time>2015-12-27T08:21:53Z</time>
      </trkpt>
      <trkpt lat="44.55213" lon="0.63503">
        <ele>161</ele>
        <time>2015-12-27T08:21:56Z</time>
      </trkpt>
      <trkpt lat="44.55213" lon="0.63503">
        <ele>161</ele>
        <time>2015-12-27T08:21:59Z</time>
      </trkpt>
      <trkpt lat="44.55213" lon="0.63503">
        <ele>161</ele>
        <time>2015-12-27T08:22:02Z</time>
      </trkpt>
      <trkpt lat="44.55213" lon="0.63503">
        <ele>161</ele>
        <time>2015-12-27T08:22:05Z</time>
      </trkpt>
      <trkpt lat="44.55213" lon="0.63503">
        <ele>161</ele>
        <time>2015-12-27T08:22:08Z</time>
      </trkpt>
      <trkpt lat="44.55213" lon="0.63503">
        <ele>161</ele>
        <time>2015-12-27T08:22:11Z</time>
      </trkpt>
      <trkpt lat="44.55213" lon="0.63503">
        <ele>161</ele>
        <time>2015-12-27T08:22:14Z</time>
      </trkpt>
      <trkpt lat="44.55213" lon="0.63503">
        <ele>161</ele>
        <time>2015-12-27T08:22:17Z</time>
      </trkpt>
      <trkpt lat="44.55213" lon="0.63503">
        <ele>161</ele>
        <time>2015-12-27T08:22:20Z</time>
      </trkpt>
      <trkpt lat="44.55213" lon="0.63503">
        <ele>161</ele>
        <time>2015-12-27T08:22:23Z</time>
      </trkpt>
      <trkpt lat="44.55213" lon="0.63503">
        <ele>161</ele>
        <time>2015-12-27T08:22:26Z</time>
      </trkpt>
      <trkpt lat="44.55213" lon="0.63503">
        <ele>161</ele>
        <time>2015-12-27T08:22:29Z</time>
      </trkpt>
      <trkpt lat="44.55213" lon="0.63503">
        <ele>161</ele>
        <time>2015-12-27T08:22:32Z</time>
      </trkpt>
      <trkpt lat="44.55214" lon="0.63504">
        <ele>162</ele>
        <time>2015-12-27T08:22:35Z</time>
      </trkpt>
      <trkpt lat="44.55217" lon="0.63516">
        <ele>161</ele>
        <time>2015-12-27T08:22:40Z</time>
      </trkpt>
      <trkpt lat="44.55231" lon="0.63527">
        <ele>159</ele>
        <time>2015-12-27T08:22:47Z</time>
      </trkpt>
      <trkpt lat="44.55242" lon="0.63533">
        <ele>157</ele>
        <time>2015-12-27T08:22:50Z</time>
      </trkpt>
      <trkpt lat="44.55265" lon="0.63546">
        <ele>153</ele>
        <time>2015-12-27T08:22:55Z</time>
      </trkpt>
      <trkpt lat="44.55295" lon="0.63562">
        <ele>149</ele>
        <time>2015-12-27T08:23:00Z</time>
      </trkpt>
      <trkpt lat="44.55332" lon="0.63573">
        <ele>148</ele>
        <time>2015-12-27T08:23:06Z</time>
      </trkpt>
      <trkpt lat="44.55359" lon="0.63582">
        <ele>148</ele>
        <time>2015-12-27T08:23:10Z</time>
      </trkpt>
      <trkpt lat="44.55387" lon="0.63601">
        <ele>144</ele>
        <time>2015-12-27T08:23:15Z</time>
      </trkpt>
      <trkpt lat="44.55405" lon="0.63608">
        <ele>141</ele>
        <time>2015-12-27T08:23:20Z</time>
      </trkpt>
      <trkpt lat="44.5542" lon="0.63614">
        <ele>140</ele>
        <time>2015-12-27T08:23:25Z</time>
      </trkpt>
      <trkpt lat="44.5545" lon="0.6363">
        <ele>135</ele>
        <time>2015-12-27T08:23:33Z</time>
      </trkpt>
      <trkpt lat="44.55476" lon="0.63643">
        <ele>130</ele>
        <time>2015-12-27T08:23:38Z</time>
      </trkpt>
      <trkpt lat="44.55507" lon="0.63657">
        <ele>125</ele>
        <time>2015-12-27T08:23:43Z</time>
      </trkpt>
      <trkpt lat="44.55521" lon="0.63663">
        <ele>124</ele>
        <time>2015-12-27T08:23:45Z</time>
      </trkpt>
      <trkpt lat="44.55556" lon="0.63669">
        <ele>123</ele>
        <time>2015-12-27T08:23:50Z</time>
      </trkpt>
      <trkpt lat="44.55583" lon="0.63688">
        <ele>121</ele>
        <time>2015-12-27T08:23:55Z</time>
      </trkpt>
      <trkpt lat="44.55606" lon="0.63716">
        <ele>122</ele>
        <time>2015-12-27T08:24:01Z</time>
      </trkpt>
      <trkpt lat="44.55619" lon="0.63733">
        <ele>120</ele>
        <time>2015-12-27T08:24:05Z</time>
      </trkpt>
      <trkpt lat="44.55634" lon="0.6375">
        <ele>119</ele>
        <time>2015-12-27T08:24:10Z</time>
      </trkpt>
      <trkpt lat="44.55649" lon="0.63765">
        <ele>118</ele>
        <time>2015-12-27T08:24:15Z</time>
      </trkpt>
      <trkpt lat="44.55663" lon="0.63781">
        <ele>119</ele>
        <time>2015-12-27T08:24:20Z</time>
      </trkpt>
      <trkpt lat="44.55677" lon="0.63798">
        <ele>118</ele>
        <time>2015-12-27T08:24:26Z</time>
      </trkpt>
      <trkpt lat="44.55686" lon="0.63812">
        <ele>118</ele>
        <time>2015-12-27T08:24:31Z</time>
      </trkpt>
      <trkpt lat="44.55695" lon="0.63822">
        <ele>120</ele>
        <time>2015-12-27T08:24:35Z</time>
      </trkpt>
      <trkpt lat="44.55705" lon="0.63831">
        <ele>118</ele>
        <time>2015-12-27T08:24:40Z</time>
      </trkpt>
      <trkpt lat="44.55711" lon="0.6384">
        <ele>119</ele>
        <time>2015-12-27T08:24:45Z</time>
      </trkpt>
      <trkpt lat="44.55718" lon="0.63848">
        <ele>120</ele>
        <time>2015-12-27T08:24:50Z</time>
      </trkpt>
      <trkpt lat="44.55725" lon="0.63857">
        <ele>119</ele>
        <time>2015-12-27T08:24:55Z</time>
      </trkpt>
      <trkpt lat="44.55731" lon="0.63865">
        <ele>122</ele>
        <time>2015-12-27T08:25:00Z</time>
      </trkpt>
      <trkpt lat="44.55737" lon="0.63873">
        <ele>123</ele>
        <time>2015-12-27T08:25:05Z</time>
      </trkpt>
      <trkpt lat="44.55743" lon="0.63881">
        <ele>126</ele>
        <time>2015-12-27T08:25:10Z</time>
      </trkpt>
      <trkpt lat="44.5575" lon="0.63888">
        <ele>127</ele>
        <time>2015-12-27T08:25:15Z</time>
      </trkpt>
      <trkpt lat="44.55756" lon="0.63894">
        <ele>128</ele>
        <time>2015-12-27T08:25:20Z</time>
      </trkpt>
      <trkpt lat="44.55762" lon="0.639">
        <ele>129</ele>
        <time>2015-12-27T08:25:25Z</time>
      </trkpt>
      <trkpt lat="44.55769" lon="0.63908">
        <ele>130</ele>
        <time>2015-12-27T08:25:30Z</time>
      </trkpt>
      <trkpt lat="44.55777" lon="0.63916">
        <ele>131</ele>
        <time>2015-12-27T08:25:35Z</time>
      </trkpt>
      <trkpt lat="44.55781" lon="0.63924">
        <ele>133</ele>
        <time>2015-12-27T08:25:40Z</time>
      </trkpt>
      <trkpt lat="44.55787" lon="0.63931">
        <ele>135</ele>
        <time>2015-12-27T08:25:45Z</time>
      </trkpt>
      <trkpt lat="44.55792" lon="0.63937">
        <ele>135</ele>
        <time>2015-12-27T08:25:50Z</time>
      </trkpt>
      <trkpt lat="44.55796" lon="0.63942">
        <ele>135</ele>
        <time>2015-12-27T08:25:55Z</time>
      </trkpt>
      <trkpt lat="44.55801" lon="0.63948">
        <ele>136</ele>
        <time>2015-12-27T08:26:00Z</time>
      </trkpt>
      <trkpt lat="44.55805" lon="0.63953">
        <ele>137</ele>
        <time>2015-12-27T08:26:05Z</time>
      </trkpt>
      <trkpt lat="44.5581" lon="0.63959">
        <ele>137</ele>
        <time>2015-12-27T08:26:10Z</time>
      </trkpt>
      <trkpt lat="44.55815" lon="0.63964">
        <ele>138</ele>
        <time>2015-12-27T08:26:15Z</time>
      </trkpt>
      <trkpt lat="44.5582" lon="0.63971">
        <ele>140</ele>
        <time>2015-12-27T08:26:20Z</time>
      </trkpt>
      <trkpt lat="44.55825" lon="0.63977">
        <ele>140</ele>
        <time>2015-12-27T08:26:25Z</time>
      </trkpt>
      <trkpt lat="44.5583" lon="0.63983">
        <ele>140</ele>
        <time>2015-12-27T08:26:30Z</time>
      </trkpt>
      <trkpt lat="44.55835" lon="0.63989">
        <ele>141</ele>
        <time>2015-12-27T08:26:35Z</time>
      </trkpt>
      <trkpt lat="44.55841" lon="0.63996">
        <ele>142</ele>
        <time>2015-12-27T08:26:40Z</time>
      </trkpt>
      <trkpt lat="44.55847" lon="0.64003">
        <ele>143</ele>
        <time>2015-12-27T08:26:45Z</time>
      </trkpt>
      <trkpt lat="44.55853" lon="0.6401">
        <ele>144</ele>
        <time>2015-12-27T08:26:50Z</time>
      </trkpt>
      <trkpt lat="44.55858" lon="0.64017">
        <ele>145</ele>
        <time>2015-12-27T08:26:55Z</time>
      </trkpt>
      <trkpt lat="44.55864" lon="0.64024">
        <ele>146</ele>
        <time>2015-12-27T08:27:00Z</time>
      </trkpt>
      <trkpt lat="44.5587" lon="0.64032">
        <ele>148</ele>
        <time>2015-12-27T08:27:05Z</time>
      </trkpt>
      <trkpt lat="44.55876" lon="0.64039">
        <ele>148</ele>
        <time>2015-12-27T08:27:10Z</time>
      </trkpt>
      <trkpt lat="44.55882" lon="0.64046">
        <ele>149</ele>
        <time>2015-12-27T08:27:15Z</time>
      </trkpt>
      <trkpt lat="44.55888" lon="0.64054">
        <ele>149</ele>
        <time>2015-12-27T08:27:20Z</time>
      </trkpt>
      <trkpt lat="44.55894" lon="0.64061">
        <ele>151</ele>
        <time>2015-12-27T08:27:25Z</time>
      </trkpt>
      <trkpt lat="44.559" lon="0.6407">
        <ele>152</ele>
        <time>2015-12-27T08:27:30Z</time>
      </trkpt>
      <trkpt lat="44.55903" lon="0.64074">
        <ele>152</ele>
        <time>2015-12-27T08:27:35Z</time>
      </trkpt>
      <trkpt lat="44.55903" lon="0.64073">
        <ele>153</ele>
        <time>2015-12-27T08:27:40Z</time>
      </trkpt>
      <trkpt lat="44.55903" lon="0.64073">
        <ele>153</ele>
        <time>2015-12-27T08:27:43Z</time>
      </trkpt>
      <trkpt lat="44.55903" lon="0.64073">
        <ele>153</ele>
        <time>2015-12-27T08:27:46Z</time>
      </trkpt>
      <trkpt lat="44.55903" lon="0.64073">
        <ele>153</ele>
        <time>2015-12-27T08:27:49Z</time>
      </trkpt>
      <trkpt lat="44.55903" lon="0.64073">
        <ele>153</ele>
        <time>2015-12-27T08:27:52Z</time>
      </trkpt>
      <trkpt lat="44.55903" lon="0.64073">
        <ele>153</ele>
        <time>2015-12-27T08:27:55Z</time>
      </trkpt>
      <trkpt lat="44.55903" lon="0.64073">
        <ele>153</ele>
        <time>2015-12-27T08:27:58Z</time>
      </trkpt>
      <trkpt lat="44.55903" lon="0.64073">
        <ele>153</ele>
        <time>2015-12-27T08:28:01Z</time>
      </trkpt>
      <trkpt lat="44.55902" lon="0.64073">
        <ele>153</ele>
        <time>2015-12-27T08:28:06Z</time>
      </trkpt>
      <trkpt lat="44.55903" lon="0.64073">
        <ele>153</ele>
        <time>2015-12-27T08:28:07Z</time>
      </trkpt>
      <trkpt lat="44.55903" lon="0.64074">
        <ele>154</ele>
        <time>2015-12-27T08:28:10Z</time>
      </trkpt>
      <trkpt lat="44.55903" lon="0.64074">
        <ele>154</ele>
        <time>2015-12-27T08:28:13Z</time>
      </trkpt>
      <trkpt lat="44.55903" lon="0.64074">
        <ele>154</ele>
        <time>2015-12-27T08:28:16Z</time>
      </trkpt>
      <trkpt lat="44.55903" lon="0.64074">
        <ele>154</ele>
        <time>2015-12-27T08:28:19Z</time>
      </trkpt>
      <trkpt lat="44.55903" lon="0.64074">
        <ele>154</ele>
        <time>2015-12-27T08:28:22Z</time>
      </trkpt>
      <trkpt lat="44.55904" lon="0.64075">
        <ele>155</ele>
        <time>2015-12-27T08:28:25Z</time>
      </trkpt>
      <trkpt lat="44.55907" lon="0.64077">
        <ele>155</ele>
        <time>2015-12-27T08:28:28Z</time>
      </trkpt>
      <trkpt lat="44.55914" lon="0.64072">
        <ele>154</ele>
        <time>2015-12-27T08:28:33Z</time>
      </trkpt>
      <trkpt lat="44.55922" lon="0.64066">
        <ele>154</ele>
        <time>2015-12-27T08:28:38Z</time>
      </trkpt>
      <trkpt lat="44.55934" lon="0.64055">
        <ele>156</ele>
        <time>2015-12-27T08:28:43Z</time>
      </trkpt>
      <trkpt lat="44.55943" lon="0.64047">
        <ele>158</ele>
        <time>2015-12-27T08:28:48Z</time>
      </trkpt>
      <trkpt lat="44.55953" lon="0.64037">
        <ele>158</ele>
        <time>2015-12-27T08:28:53Z</time>
      </trkpt>
      <trkpt lat="44.55961" lon="0.64023">
        <ele>157</ele>
        <time>2015-12-27T08:28:58Z</time>
      </trkpt>
      <trkpt lat="44.55972" lon="0.64009">
        <ele>157</ele>
        <time>2015-12-27T08:29:03Z</time>
      </trkpt>
      <trkpt lat="44.55981" lon="0.63999">
        <ele>156</ele>
        <time>2015-12-27T08:29:08Z</time>
      </trkpt>
      <trkpt lat="44.55996" lon="0.64018">
        <ele>153</ele>
        <time>2015-12-27T08:29:13Z</time>
      </trkpt>
      <trkpt lat="44.56012" lon="0.64051">
        <ele>149</ele>
        <time>2015-12-27T08:29:18Z</time>
      </trkpt>
      <trkpt lat="44.56029" lon="0.64087">
        <ele>148</ele>
        <time>2015-12-27T08:29:23Z</time>
      </trkpt>
      <trkpt lat="44.56046" lon="0.64128">
        <ele>145</ele>
        <time>2015-12-27T08:29:28Z</time>
      </trkpt>
      <trkpt lat="44.56066" lon="0.64177">
        <ele>141</ele>
        <time>2015-12-27T08:29:33Z</time>
      </trkpt>
      <trkpt lat="44.56083" lon="0.64224">
        <ele>140</ele>
        <time>2015-12-27T08:29:38Z</time>
      </trkpt>
      <trkpt lat="44.56096" lon="0.64269">
        <ele>138</ele>
        <time>2015-12-27T08:29:43Z</time>
      </trkpt>
      <trkpt lat="44.56105" lon="0.64311">
        <ele>137</ele>
        <time>2015-12-27T08:29:48Z</time>
      </trkpt>
      <trkpt lat="44.56112" lon="0.64352">
        <ele>136</ele>
        <time>2015-12-27T08:29:53Z</time>
      </trkpt>
      <trkpt lat="44.56118" lon="0.64394">
        <ele>135</ele>
        <time>2015-12-27T08:29:58Z</time>
      </trkpt>
      <trkpt lat="44.56113" lon="0.64436">
        <ele>134</ele>
        <time>2015-12-27T08:30:03Z</time>
      </trkpt>
      <trkpt lat="44.56106" lon="0.64481">
        <ele>132</ele>
        <time>2015-12-27T08:30:08Z</time>
      </trkpt>
      <trkpt lat="44.56121" lon="0.64509">
        <ele>128</ele>
        <time>2015-12-27T08:30:13Z</time>
      </trkpt>
      <trkpt lat="44.5615" lon="0.6448">
        <ele>126</ele>
        <time>2015-12-27T08:30:18Z</time>
      </trkpt>
      <trkpt lat="44.56185" lon="0.64442">
        <ele>122</ele>
        <time>2015-12-27T08:30:23Z</time>
      </trkpt>
      <trkpt lat="44.56228" lon="0.64434">
        <ele>119</ele>
        <time>2015-12-27T08:30:28Z</time>
      </trkpt>
      <trkpt lat="44.56259" lon="0.64458">
        <ele>115</ele>
        <time>2015-12-27T08:30:33Z</time>
      </trkpt>
      <trkpt lat="44.56278" lon="0.64504">
        <ele>109</ele>
        <time>2015-12-27T08:30:38Z</time>
      </trkpt>
      <trkpt lat="44.56307" lon="0.6454">
        <ele>105</ele>
        <time>2015-12-27T08:30:43Z</time>
      </trkpt>
      <trkpt lat="44.56334" lon="0.64573">
        <ele>101</ele>
        <time>2015-12-27T08:30:48Z</time>
      </trkpt>
      <trkpt lat="44.56352" lon="0.64611">
        <ele>103</ele>
        <time>2015-12-27T08:30:53Z</time>
      </trkpt>
      <trkpt lat="44.56376" lon="0.64653">
        <ele>100</ele>
        <time>2015-12-27T08:30:59Z</time>
      </trkpt>
      <trkpt lat="44.56396" lon="0.64676">
        <ele>103</ele>
        <time>2015-12-27T08:31:03Z</time>
      </trkpt>
      <trkpt lat="44.56421" lon="0.64701">
        <ele>103</ele>
        <time>2015-12-27T08:31:08Z</time>
      </trkpt>
      <trkpt lat="44.5644" lon="0.64717">
        <ele>105</ele>
        <time>2015-12-27T08:31:13Z</time>
      </trkpt>
      <trkpt lat="44.56457" lon="0.64735">
        <ele>106</ele>
        <time>2015-12-27T08:31:18Z</time>
      </trkpt>
      <trkpt lat="44.56469" lon="0.64749">
        <ele>105</ele>
        <time>2015-12-27T08:31:23Z</time>
      </trkpt>
      <trkpt lat="44.56477" lon="0.64758">
        <ele>106</ele>
        <time>2015-12-27T08:31:30Z</time>
      </trkpt>
      <trkpt lat="44.56487" lon="0.64767">
        <ele>106</ele>
        <time>2015-12-27T08:31:35Z</time>
      </trkpt>
      <trkpt lat="44.56493" lon="0.64769">
        <ele>106</ele>
        <time>2015-12-27T08:31:39Z</time>
      </trkpt>
      <trkpt lat="44.56498" lon="0.64772">
        <ele>106</ele>
        <time>2015-12-27T08:31:43Z</time>
      </trkpt>
      <trkpt lat="44.56503" lon="0.64777">
        <ele>107</ele>
        <time>2015-12-27T08:31:48Z</time>
      </trkpt>
      <trkpt lat="44.5651" lon="0.64781">
        <ele>108</ele>
        <time>2015-12-27T08:31:53Z</time>
      </trkpt>
      <trkpt lat="44.56514" lon="0.64785">
        <ele>111</ele>
        <time>2015-12-27T08:31:58Z</time>
      </trkpt>
      <trkpt lat="44.56518" lon="0.64789">
        <ele>112</ele>
        <time>2015-12-27T08:32:03Z</time>
      </trkpt>
      <trkpt lat="44.56525" lon="0.64794">
        <ele>114</ele>
        <time>2015-12-27T08:32:10Z</time>
      </trkpt>
      <trkpt lat="44.56527" lon="0.64797">
        <ele>114</ele>
        <time>2015-12-27T08:32:13Z</time>
      </trkpt>
      <trkpt lat="44.56532" lon="0.648">
        <ele>115</ele>
        <time>2015-12-27T08:32:18Z</time>
      </trkpt>
      <trkpt lat="44.56539" lon="0.64804">
        <ele>115</ele>
        <time>2015-12-27T08:32:24Z</time>
      </trkpt>
      <trkpt lat="44.56545" lon="0.64805">
        <ele>116</ele>
        <time>2015-12-27T08:32:28Z</time>
      </trkpt>
      <trkpt lat="44.56553" lon="0.64809">
        <ele>116</ele>
        <time>2015-12-27T08:32:33Z</time>
      </trkpt>
      <trkpt lat="44.5656" lon="0.64814">
        <ele>118</ele>
        <time>2015-12-27T08:32:38Z</time>
      </trkpt>
      <trkpt lat="44.56573" lon="0.6482">
        <ele>117</ele>
        <time>2015-12-27T08:32:45Z</time>
      </trkpt>
      <trkpt lat="44.5658" lon="0.64825">
        <ele>118</ele>
        <time>2015-12-27T08:32:48Z</time>
      </trkpt>
      <trkpt lat="44.56589" lon="0.64832">
        <ele>117</ele>
        <time>2015-12-27T08:32:53Z</time>
      </trkpt>
      <trkpt lat="44.56598" lon="0.64838">
        <ele>116</ele>
        <time>2015-12-27T08:32:58Z</time>
      </trkpt>
      <trkpt lat="44.56604" lon="0.6484">
        <ele>116</ele>
        <time>2015-12-27T08:33:03Z</time>
      </trkpt>
      <trkpt lat="44.56605" lon="0.64846">
        <ele>117</ele>
        <time>2015-12-27T08:33:08Z</time>
      </trkpt>
      <trkpt lat="44.56601" lon="0.64855">
        <ele>118</ele>
        <time>2015-12-27T08:33:13Z</time>
      </trkpt>
      <trkpt lat="44.56593" lon="0.6487">
        <ele>116</ele>
        <time>2015-12-27T08:33:18Z</time>
      </trkpt>
      <trkpt lat="44.56586" lon="0.64885">
        <ele>115</ele>
        <time>2015-12-27T08:33:23Z</time>
      </trkpt>
      <trkpt lat="44.56577" lon="0.64905">
        <ele>114</ele>
        <time>2015-12-27T08:33:28Z</time>
      </trkpt>
      <trkpt lat="44.56565" lon="0.64932">
        <ele>112</ele>
        <time>2015-12-27T08:33:33Z</time>
      </trkpt>
      <trkpt lat="44.56556" lon="0.64958">
        <ele>112</ele>
        <time>2015-12-27T08:33:38Z</time>
      </trkpt>
      <trkpt lat="44.56548" lon="0.64985">
        <ele>111</ele>
        <time>2015-12-27T08:33:43Z</time>
      </trkpt>
      <trkpt lat="44.56538" lon="0.65019">
        <ele>111</ele>
        <time>2015-12-27T08:33:48Z</time>
      </trkpt>
      <trkpt lat="44.56527" lon="0.65057">
        <ele>111</ele>
        <time>2015-12-27T08:33:53Z</time>
      </trkpt>
      <trkpt lat="44.56514" lon="0.65092">
        <ele>109</ele>
        <time>2015-12-27T08:33:58Z</time>
      </trkpt>
      <trkpt lat="44.56502" lon="0.6512">
        <ele>106</ele>
        <time>2015-12-27T08:34:03Z</time>
      </trkpt>
      <trkpt lat="44.56493" lon="0.65142">
        <ele>105</ele>
        <time>2015-12-27T08:34:08Z</time>
      </trkpt>
      <trkpt lat="44.5648" lon="0.65162">
        <ele>103</ele>
        <time>2015-12-27T08:34:13Z</time>
      </trkpt>
      <trkpt lat="44.56464" lon="0.65176">
        <ele>102</ele>
        <time>2015-12-27T08:34:18Z</time>
      </trkpt>
      <trkpt lat="44.56448" lon="0.6519">
        <ele>104</ele>
        <time>2015-12-27T08:34:23Z</time>
      </trkpt>
      <trkpt lat="44.56427" lon="0.65204">
        <ele>100</ele>
        <time>2015-12-27T08:34:28Z</time>
      </trkpt>
      <trkpt lat="44.56406" lon="0.65222">
        <ele>100</ele>
        <time>2015-12-27T08:34:33Z</time>
      </trkpt>
      <trkpt lat="44.56382" lon="0.65241">
        <ele>99</ele>
        <time>2015-12-27T08:34:42Z</time>
      </trkpt>
      <trkpt lat="44.5638" lon="0.65245">
        <ele>98</ele>
        <time>2015-12-27T08:34:43Z</time>
      </trkpt>
      <trkpt lat="44.56372" lon="0.65251">
        <ele>97</ele>
        <time>2015-12-27T08:34:48Z</time>
      </trkpt>
      <trkpt lat="44.56366" lon="0.65255">
        <ele>98</ele>
        <time>2015-12-27T08:34:53Z</time>
      </trkpt>
      <trkpt lat="44.56362" lon="0.6526">
        <ele>98</ele>
        <time>2015-12-27T08:34:58Z</time>
      </trkpt>
      <trkpt lat="44.56362" lon="0.6526">
        <ele>99</ele>
        <time>2015-12-27T08:35:03Z</time>
      </trkpt>
      <trkpt lat="44.56362" lon="0.6526">
        <ele>99</ele>
        <time>2015-12-27T08:35:06Z</time>
      </trkpt>
      <trkpt lat="44.56362" lon="0.6526">
        <ele>98</ele>
        <time>2015-12-27T08:35:09Z</time>
      </trkpt>
      <trkpt lat="44.56362" lon="0.6526">
        <ele>98</ele>
        <time>2015-12-27T08:35:12Z</time>
      </trkpt>
      <trkpt lat="44.56362" lon="0.6526">
        <ele>98</ele>
        <time>2015-12-27T08:35:15Z</time>
      </trkpt>
      <trkpt lat="44.56362" lon="0.65261">
        <ele>98</ele>
        <time>2015-12-27T08:35:18Z</time>
      </trkpt>
      <trkpt lat="44.56362" lon="0.6526">
        <ele>98</ele>
        <time>2015-12-27T08:35:21Z</time>
      </trkpt>
      <trkpt lat="44.56362" lon="0.6526">
        <ele>98</ele>
        <time>2015-12-27T08:35:25Z</time>
      </trkpt>
      <trkpt lat="44.56362" lon="0.6526">
        <ele>98</ele>
        <time>2015-12-27T08:35:29Z</time>
      </trkpt>
      <trkpt lat="44.56362" lon="0.6526">
        <ele>98</ele>
        <time>2015-12-27T08:35:30Z</time>
      </trkpt>
      <trkpt lat="44.56362" lon="0.6526">
        <ele>98</ele>
        <time>2015-12-27T08:35:33Z</time>
      </trkpt>
      <trkpt lat="44.56362" lon="0.6526">
        <ele>98</ele>
        <time>2015-12-27T08:35:36Z</time>
      </trkpt>
      <trkpt lat="44.56362" lon="0.6526">
        <ele>98</ele>
        <time>2015-12-27T08:35:39Z</time>
      </trkpt>
      <trkpt lat="44.56362" lon="0.6526">
        <ele>98</ele>
        <time>2015-12-27T08:35:42Z</time>
      </trkpt>
      <trkpt lat="44.56358" lon="0.65264">
        <ele>99</ele>
        <time>2015-12-27T08:35:45Z</time>
      </trkpt>
      <trkpt lat="44.56345" lon="0.65266">
        <ele>100</ele>
        <time>2015-12-27T08:35:50Z</time>
      </trkpt>
      <trkpt lat="44.56336" lon="0.65275">
        <ele>100</ele>
        <time>2015-12-27T08:35:55Z</time>
      </trkpt>
      <trkpt lat="44.56333" lon="0.65295">
        <ele>99</ele>
        <time>2015-12-27T08:36:00Z</time>
      </trkpt>
      <trkpt lat="44.56331" lon="0.65317">
        <ele>99</ele>
        <time>2015-12-27T08:36:05Z</time>
      </trkpt>
      <trkpt lat="44.56328" lon="0.65336">
        <ele>100</ele>
        <time>2015-12-27T08:36:10Z</time>
      </trkpt>
      <trkpt lat="44.56326" lon="0.65354">
        <ele>100</ele>
        <time>2015-12-27T08:36:15Z</time>
      </trkpt>
      <trkpt lat="44.56325" lon="0.6537">
        <ele>101</ele>
        <time>2015-12-27T08:36:20Z</time>
      </trkpt>
      <trkpt lat="44.56324" lon="0.65386">
        <ele>101</ele>
        <time>2015-12-27T08:36:25Z</time>
      </trkpt>
      <trkpt lat="44.56322" lon="0.654">
        <ele>101</ele>
        <time>2015-12-27T08:36:30Z</time>
      </trkpt>
      <trkpt lat="44.56321" lon="0.65414">
        <ele>103</ele>
        <time>2015-12-27T08:36:35Z</time>
      </trkpt>
      <trkpt lat="44.5632" lon="0.65424">
        <ele>105</ele>
        <time>2015-12-27T08:36:40Z</time>
      </trkpt>
      <trkpt lat="44.5632" lon="0.65434">
        <ele>107</ele>
        <time>2015-12-27T08:36:45Z</time>
      </trkpt>
      <trkpt lat="44.56319" lon="0.65443">
        <ele>108</ele>
        <time>2015-12-27T08:36:50Z</time>
      </trkpt>
      <trkpt lat="44.56318" lon="0.6545">
        <ele>109</ele>
        <time>2015-12-27T08:36:55Z</time>
      </trkpt>
      <trkpt lat="44.56315" lon="0.65456">
        <ele>110</ele>
        <time>2015-12-27T08:37:00Z</time>
      </trkpt>
      <trkpt lat="44.5631" lon="0.65461">
        <ele>112</ele>
        <time>2015-12-27T08:37:05Z</time>
      </trkpt>
      <trkpt lat="44.56305" lon="0.65466">
        <ele>113</ele>
        <time>2015-12-27T08:37:10Z</time>
      </trkpt>
      <trkpt lat="44.56299" lon="0.6547">
        <ele>113</ele>
        <time>2015-12-27T08:37:15Z</time>
      </trkpt>
      <trkpt lat="44.56294" lon="0.65475">
        <ele>115</ele>
        <time>2015-12-27T08:37:20Z</time>
      </trkpt>
      <trkpt lat="44.5629" lon="0.6548">
        <ele>116</ele>
        <time>2015-12-27T08:37:25Z</time>
      </trkpt>
      <trkpt lat="44.56285" lon="0.65484">
        <ele>117</ele>
        <time>2015-12-27T08:37:30Z</time>
      </trkpt>
      <trkpt lat="44.5628" lon="0.65488">
        <ele>118</ele>
        <time>2015-12-27T08:37:35Z</time>
      </trkpt>
      <trkpt lat="44.56276" lon="0.65491">
        <ele>119</ele>
        <time>2015-12-27T08:37:40Z</time>
      </trkpt>
      <trkpt lat="44.56271" lon="0.65497">
        <ele>120</ele>
        <time>2015-12-27T08:37:45Z</time>
      </trkpt>
      <trkpt lat="44.56266" lon="0.65501">
        <ele>122</ele>
        <time>2015-12-27T08:37:50Z</time>
      </trkpt>
      <trkpt lat="44.56261" lon="0.65508">
        <ele>122</ele>
        <time>2015-12-27T08:37:55Z</time>
      </trkpt>
      <trkpt lat="44.56257" lon="0.65513">
        <ele>123</ele>
        <time>2015-12-27T08:38:00Z</time>
      </trkpt>
      <trkpt lat="44.56253" lon="0.65519">
        <ele>125</ele>
        <time>2015-12-27T08:38:05Z</time>
      </trkpt>
      <trkpt lat="44.56249" lon="0.65525">
        <ele>125</ele>
        <time>2015-12-27T08:38:10Z</time>
      </trkpt>
      <trkpt lat="44.56245" lon="0.6553">
        <ele>125</ele>
        <time>2015-12-27T08:38:15Z</time>
      </trkpt>
      <trkpt lat="44.56241" lon="0.65535">
        <ele>126</ele>
        <time>2015-12-27T08:38:20Z</time>
      </trkpt>
      <trkpt lat="44.56237" lon="0.6554">
        <ele>126</ele>
        <time>2015-12-27T08:38:25Z</time>
      </trkpt>
      <trkpt lat="44.56233" lon="0.65544">
        <ele>127</ele>
        <time>2015-12-27T08:38:30Z</time>
      </trkpt>
      <trkpt lat="44.56229" lon="0.65548">
        <ele>127</ele>
        <time>2015-12-27T08:38:35Z</time>
      </trkpt>
      <trkpt lat="44.56225" lon="0.65554">
        <ele>126</ele>
        <time>2015-12-27T08:38:40Z</time>
      </trkpt>
      <trkpt lat="44.56222" lon="0.65559">
        <ele>128</ele>
        <time>2015-12-27T08:38:45Z</time>
      </trkpt>
      <trkpt lat="44.56218" lon="0.65565">
        <ele>129</ele>
        <time>2015-12-27T08:38:50Z</time>
      </trkpt>
      <trkpt lat="44.56214" lon="0.65572">
        <ele>130</ele>
        <time>2015-12-27T08:38:55Z</time>
      </trkpt>
      <trkpt lat="44.56211" lon="0.6558">
        <ele>130</ele>
        <time>2015-12-27T08:39:00Z</time>
      </trkpt>
      <trkpt lat="44.56208" lon="0.65587">
        <ele>131</ele>
        <time>2015-12-27T08:39:05Z</time>
      </trkpt>
      <trkpt lat="44.56204" lon="0.65593">
        <ele>133</ele>
        <time>2015-12-27T08:39:10Z</time>
      </trkpt>
      <trkpt lat="44.56202" lon="0.65598">
        <ele>136</ele>
        <time>2015-12-27T08:39:15Z</time>
      </trkpt>
      <trkpt lat="44.56198" lon="0.65605">
        <ele>137</ele>
        <time>2015-12-27T08:39:20Z</time>
      </trkpt>
      <trkpt lat="44.56194" lon="0.65611">
        <ele>139</ele>
        <time>2015-12-27T08:39:25Z</time>
      </trkpt>
      <trkpt lat="44.56191" lon="0.65623">
        <ele>137</ele>
        <time>2015-12-27T08:39:30Z</time>
      </trkpt>
      <trkpt lat="44.56187" lon="0.65634">
        <ele>137</ele>
        <time>2015-12-27T08:39:35Z</time>
      </trkpt>
      <trkpt lat="44.56182" lon="0.65646">
        <ele>136</ele>
        <time>2015-12-27T08:39:40Z</time>
      </trkpt>
      <trkpt lat="44.56177" lon="0.65662">
        <ele>135</ele>
        <time>2015-12-27T08:39:45Z</time>
      </trkpt>
      <trkpt lat="44.56175" lon="0.65674">
        <ele>134</ele>
        <time>2015-12-27T08:39:50Z</time>
      </trkpt>
      <trkpt lat="44.56171" lon="0.65693">
        <ele>133</ele>
        <time>2015-12-27T08:39:55Z</time>
      </trkpt>
      <trkpt lat="44.56167" lon="0.65718">
        <ele>132</ele>
        <time>2015-12-27T08:40:00Z</time>
      </trkpt>
      <trkpt lat="44.56164" lon="0.65745">
        <ele>132</ele>
        <time>2015-12-27T08:40:05Z</time>
      </trkpt>
      <trkpt lat="44.56159" lon="0.65771">
        <ele>134</ele>
        <time>2015-12-27T08:40:10Z</time>
      </trkpt>
      <trkpt lat="44.56158" lon="0.65797">
        <ele>135</ele>
        <time>2015-12-27T08:40:15Z</time>
      </trkpt>
      <trkpt lat="44.56151" lon="0.65814">
        <ele>135</ele>
        <time>2015-12-27T08:40:20Z</time>
      </trkpt>
      <trkpt lat="44.56143" lon="0.65826">
        <ele>135</ele>
        <time>2015-12-27T08:40:25Z</time>
      </trkpt>
      <trkpt lat="44.56137" lon="0.65842">
        <ele>134</ele>
        <time>2015-12-27T08:40:30Z</time>
      </trkpt>
      <trkpt lat="44.56131" lon="0.65855">
        <ele>133</ele>
        <time>2015-12-27T08:40:35Z</time>
      </trkpt>
      <trkpt lat="44.56124" lon="0.65869">
        <ele>133</ele>
        <time>2015-12-27T08:40:40Z</time>
      </trkpt>
      <trkpt lat="44.56116" lon="0.65885">
        <ele>132</ele>
        <time>2015-12-27T08:40:45Z</time>
      </trkpt>
      <trkpt lat="44.56105" lon="0.65898">
        <ele>131</ele>
        <time>2015-12-27T08:40:50Z</time>
      </trkpt>
      <trkpt lat="44.5609" lon="0.65907">
        <ele>132</ele>
        <time>2015-12-27T08:40:55Z</time>
      </trkpt>
      <trkpt lat="44.56075" lon="0.65912">
        <ele>135</ele>
        <time>2015-12-27T08:41:00Z</time>
      </trkpt>
      <trkpt lat="44.56058" lon="0.65918">
        <ele>135</ele>
        <time>2015-12-27T08:41:05Z</time>
      </trkpt>
      <trkpt lat="44.56045" lon="0.65931">
        <ele>136</ele>
        <time>2015-12-27T08:41:10Z</time>
      </trkpt>
      <trkpt lat="44.56036" lon="0.65951">
        <ele>136</ele>
        <time>2015-12-27T08:41:15Z</time>
      </trkpt>
      <trkpt lat="44.56032" lon="0.65976">
        <ele>136</ele>
        <time>2015-12-27T08:41:20Z</time>
      </trkpt>
      <trkpt lat="44.56028" lon="0.66001">
        <ele>137</ele>
        <time>2015-12-27T08:41:25Z</time>
      </trkpt>
      <trkpt lat="44.56025" lon="0.66028">
        <ele>137</ele>
        <time>2015-12-27T08:41:30Z</time>
      </trkpt>
      <trkpt lat="44.56022" lon="0.6605">
        <ele>137</ele>
        <time>2015-12-27T08:41:35Z</time>
      </trkpt>
      <trkpt lat="44.56019" lon="0.66074">
        <ele>138</ele>
        <time>2015-12-27T08:41:40Z</time>
      </trkpt>
      <trkpt lat="44.56016" lon="0.66094">
        <ele>139</ele>
        <time>2015-12-27T08:41:45Z</time>
      </trkpt>
      <trkpt lat="44.56013" lon="0.66109">
        <ele>139</ele>
        <time>2015-12-27T08:41:50Z</time>
      </trkpt>
      <trkpt lat="44.56011" lon="0.66125">
        <ele>140</ele>
        <time>2015-12-27T08:41:55Z</time>
      </trkpt>
      <trkpt lat="44.56009" lon="0.66143">
        <ele>141</ele>
        <time>2015-12-27T08:42:00Z</time>
      </trkpt>
      <trkpt lat="44.56005" lon="0.66159">
        <ele>141</ele>
        <time>2015-12-27T08:42:05Z</time>
      </trkpt>
      <trkpt lat="44.56003" lon="0.66178">
        <ele>141</ele>
        <time>2015-12-27T08:42:10Z</time>
      </trkpt>
      <trkpt lat="44.56" lon="0.66195">
        <ele>142</ele>
        <time>2015-12-27T08:42:15Z</time>
      </trkpt>
      <trkpt lat="44.55998" lon="0.66211">
        <ele>143</ele>
        <time>2015-12-27T08:42:20Z</time>
      </trkpt>
      <trkpt lat="44.55995" lon="0.66227">
        <ele>145</ele>
        <time>2015-12-27T08:42:25Z</time>
      </trkpt>
      <trkpt lat="44.55992" lon="0.66243">
        <ele>146</ele>
        <time>2015-12-27T08:42:30Z</time>
      </trkpt>
      <trkpt lat="44.5599" lon="0.66257">
        <ele>148</ele>
        <time>2015-12-27T08:42:35Z</time>
      </trkpt>
      <trkpt lat="44.55987" lon="0.66272">
        <ele>149</ele>
        <time>2015-12-27T08:42:40Z</time>
      </trkpt>
      <trkpt lat="44.55984" lon="0.66284">
        <ele>151</ele>
        <time>2015-12-27T08:42:45Z</time>
      </trkpt>
      <trkpt lat="44.55982" lon="0.663">
        <ele>152</ele>
        <time>2015-12-27T08:42:50Z</time>
      </trkpt>
      <trkpt lat="44.55979" lon="0.66316">
        <ele>153</ele>
        <time>2015-12-27T08:42:55Z</time>
      </trkpt>
      <trkpt lat="44.55977" lon="0.66325">
        <ele>152</ele>
        <time>2015-12-27T08:43:00Z</time>
      </trkpt>
      <trkpt lat="44.55976" lon="0.66337">
        <ele>152</ele>
        <time>2015-12-27T08:43:05Z</time>
      </trkpt>
      <trkpt lat="44.55977" lon="0.66355">
        <ele>151</ele>
        <time>2015-12-27T08:43:10Z</time>
      </trkpt>
      <trkpt lat="44.55978" lon="0.66383">
        <ele>148</ele>
        <time>2015-12-27T08:43:15Z</time>
      </trkpt>
      <trkpt lat="44.55986" lon="0.6642">
        <ele>146</ele>
        <time>2015-12-27T08:43:20Z</time>
      </trkpt>
      <trkpt lat="44.55997" lon="0.66461">
        <ele>145</ele>
        <time>2015-12-27T08:43:25Z</time>
      </trkpt>
      <trkpt lat="44.56008" lon="0.66501">
        <ele>145</ele>
        <time>2015-12-27T08:43:30Z</time>
      </trkpt>
      <trkpt lat="44.56019" lon="0.66538">
        <ele>144</ele>
        <time>2015-12-27T08:43:35Z</time>
      </trkpt>
      <trkpt lat="44.56023" lon="0.66564">
        <ele>143</ele>
        <time>2015-12-27T08:43:40Z</time>
      </trkpt>
      <trkpt lat="44.56023" lon="0.66568">
        <ele>143</ele>
        <time>2015-12-27T08:43:45Z</time>
      </trkpt>
      <trkpt lat="44.56022" lon="0.66568">
        <ele>142</ele>
        <time>2015-12-27T08:43:50Z</time>
      </trkpt>
      <trkpt lat="44.56022" lon="0.66568">
        <ele>141</ele>
        <time>2015-12-27T08:43:53Z</time>
      </trkpt>
      <trkpt lat="44.56022" lon="0.66569">
        <ele>142</ele>
        <time>2015-12-27T08:43:56Z</time>
      </trkpt>
      <trkpt lat="44.56022" lon="0.66569">
        <ele>142</ele>
        <time>2015-12-27T08:43:59Z</time>
      </trkpt>
      <trkpt lat="44.56022" lon="0.66568">
        <ele>142</ele>
        <time>2015-12-27T08:44:02Z</time>
      </trkpt>
      <trkpt lat="44.56022" lon="0.66568">
        <ele>142</ele>
        <time>2015-12-27T08:44:05Z</time>
      </trkpt>
      <trkpt lat="44.56022" lon="0.66569">
        <ele>141</ele>
        <time>2015-12-27T08:44:08Z</time>
      </trkpt>
      <trkpt lat="44.56022" lon="0.66568">
        <ele>141</ele>
        <time>2015-12-27T08:44:11Z</time>
      </trkpt>
      <trkpt lat="44.56022" lon="0.66568">
        <ele>141</ele>
        <time>2015-12-27T08:44:14Z</time>
      </trkpt>
      <trkpt lat="44.56022" lon="0.66568">
        <ele>140</ele>
        <time>2015-12-27T08:44:17Z</time>
      </trkpt>
      <trkpt lat="44.56022" lon="0.66568">
        <ele>140</ele>
        <time>2015-12-27T08:44:20Z</time>
      </trkpt>
      <trkpt lat="44.56022" lon="0.66568">
        <ele>140</ele>
        <time>2015-12-27T08:44:23Z</time>
      </trkpt>
      <trkpt lat="44.56022" lon="0.66568">
        <ele>140</ele>
        <time>2015-12-27T08:44:26Z</time>
      </trkpt>
      <trkpt lat="44.56022" lon="0.66568">
        <ele>140</ele>
        <time>2015-12-27T08:44:29Z</time>
      </trkpt>
      <trkpt lat="44.56022" lon="0.66568">
        <ele>140</ele>
        <time>2015-12-27T08:44:32Z</time>
      </trkpt>
      <trkpt lat="44.56022" lon="0.66568">
        <ele>140</ele>
        <time>2015-12-27T08:44:35Z</time>
      </trkpt>
      <trkpt lat="44.56022" lon="0.66568">
        <ele>140</ele>
        <time>2015-12-27T08:44:38Z</time>
      </trkpt>
      <trkpt lat="44.56022" lon="0.66568">
        <ele>140</ele>
        <time>2015-12-27T08:44:41Z</time>
      </trkpt>
      <trkpt lat="44.56022" lon="0.66568">
        <ele>140</ele>
        <time>2015-12-27T08:44:44Z</time>
      </trkpt>
      <trkpt lat="44.56022" lon="0.66568">
        <ele>140</ele>
        <time>2015-12-27T08:44:47Z</time>
      </trkpt>
      <trkpt lat="44.56022" lon="0.66568">
        <ele>140</ele>
        <time>2015-12-27T08:44:50Z</time>
      </trkpt>
      <trkpt lat="44.56022" lon="0.66568">
        <ele>140</ele>
        <time>2015-12-27T08:44:53Z</time>
      </trkpt>
      <trkpt lat="44.5602" lon="0.66572">
        <ele>141</ele>
        <time>2015-12-27T08:44:56Z</time>
      </trkpt>
      <trkpt lat="44.56007" lon="0.66577">
        <ele>144</ele>
        <time>2015-12-27T08:45:01Z</time>
      </trkpt>
      <trkpt lat="44.5599" lon="0.66576">
        <ele>145</ele>
        <time>2015-12-27T08:45:06Z</time>
      </trkpt>
      <trkpt lat="44.55975" lon="0.66579">
        <ele>146</ele>
        <time>2015-12-27T08:45:11Z</time>
      </trkpt>
      <trkpt lat="44.55963" lon="0.66586">
        <ele>145</ele>
        <time>2015-12-27T08:45:16Z</time>
      </trkpt>
      <trkpt lat="44.55949" lon="0.66591">
        <ele>146</ele>
        <time>2015-12-27T08:45:21Z</time>
      </trkpt>
      <trkpt lat="44.55934" lon="0.66602">
        <ele>146</ele>
        <time>2015-12-27T08:45:26Z</time>
      </trkpt>
      <trkpt lat="44.55919" lon="0.66614">
        <ele>147</ele>
        <time>2015-12-27T08:45:31Z</time>
      </trkpt>
      <trkpt lat="44.55905" lon="0.66626">
        <ele>147</ele>
        <time>2015-12-27T08:45:36Z</time>
      </trkpt>
      <trkpt lat="44.55894" lon="0.66638">
        <ele>147</ele>
        <time>2015-12-27T08:45:41Z</time>
      </trkpt>
      <trkpt lat="44.55891" lon="0.66653">
        <ele>147</ele>
        <time>2015-12-27T08:45:46Z</time>
      </trkpt>
      <trkpt lat="44.55879" lon="0.66675">
        <ele>148</ele>
        <time>2015-12-27T08:45:55Z</time>
      </trkpt>
      <trkpt lat="44.55878" lon="0.66677">
        <ele>149</ele>
        <time>2015-12-27T08:45:56Z</time>
      </trkpt>
      <trkpt lat="44.5587" lon="0.66691">
        <ele>150</ele>
        <time>2015-12-27T08:46:01Z</time>
      </trkpt>
      <trkpt lat="44.55862" lon="0.66703">
        <ele>149</ele>
        <time>2015-12-27T08:46:06Z</time>
      </trkpt>
      <trkpt lat="44.55859" lon="0.66716">
        <ele>149</ele>
        <time>2015-12-27T08:46:11Z</time>
      </trkpt>
      <trkpt lat="44.55857" lon="0.66727">
        <ele>149</ele>
        <time>2015-12-27T08:46:16Z</time>
      </trkpt>
      <trkpt lat="44.55851" lon="0.66743">
        <ele>151</ele>
        <time>2015-12-27T08:46:21Z</time>
      </trkpt>
      <trkpt lat="44.55848" lon="0.66758">
        <ele>151</ele>
        <time>2015-12-27T08:46:26Z</time>
      </trkpt>
      <trkpt lat="44.55843" lon="0.66777">
        <ele>149</ele>
        <time>2015-12-27T08:46:32Z</time>
      </trkpt>
      <trkpt lat="44.55838" lon="0.66795">
        <ele>149</ele>
        <time>2015-12-27T08:46:36Z</time>
      </trkpt>
      <trkpt lat="44.55829" lon="0.66832">
        <ele>147</ele>
        <time>2015-12-27T08:46:42Z</time>
      </trkpt>
      <trkpt lat="44.55823" lon="0.6685">
        <ele>146</ele>
        <time>2015-12-27T08:46:46Z</time>
      </trkpt>
      <trkpt lat="44.55812" lon="0.66884">
        <ele>144</ele>
        <time>2015-12-27T08:46:51Z</time>
      </trkpt>
      <trkpt lat="44.55799" lon="0.66926">
        <ele>143</ele>
        <time>2015-12-27T08:46:56Z</time>
      </trkpt>
      <trkpt lat="44.55786" lon="0.6697">
        <ele>143</ele>
        <time>2015-12-27T08:47:01Z</time>
      </trkpt>
      <trkpt lat="44.55778" lon="0.67007">
        <ele>143</ele>
        <time>2015-12-27T08:47:06Z</time>
      </trkpt>
      <trkpt lat="44.55768" lon="0.6704">
        <ele>143</ele>
        <time>2015-12-27T08:47:11Z</time>
      </trkpt>
      <trkpt lat="44.55759" lon="0.67075">
        <ele>141</ele>
        <time>2015-12-27T08:47:16Z</time>
      </trkpt>
      <trkpt lat="44.55752" lon="0.67111">
        <ele>142</ele>
        <time>2015-12-27T08:47:21Z</time>
      </trkpt>
      <trkpt lat="44.55747" lon="0.67152">
        <ele>140</ele>
        <time>2015-12-27T08:47:26Z</time>
      </trkpt>
      <trkpt lat="44.55741" lon="0.67189">
        <ele>139</ele>
        <time>2015-12-27T08:47:31Z</time>
      </trkpt>
      <trkpt lat="44.55733" lon="0.67226">
        <ele>137</ele>
        <time>2015-12-27T08:47:36Z</time>
      </trkpt>
      <trkpt lat="44.5572" lon="0.67261">
        <ele>137</ele>
        <time>2015-12-27T08:47:41Z</time>
      </trkpt>
      <trkpt lat="44.55709" lon="0.67295">
        <ele>136</ele>
        <time>2015-12-27T08:47:46Z</time>
      </trkpt>
      <trkpt lat="44.55699" lon="0.67324">
        <ele>135</ele>
        <time>2015-12-27T08:47:51Z</time>
      </trkpt>
      <trkpt lat="44.55692" lon="0.67346">
        <ele>138</ele>
        <time>2015-12-27T08:47:56Z</time>
      </trkpt>
      <trkpt lat="44.55682" lon="0.67369">
        <ele>139</ele>
        <time>2015-12-27T08:48:01Z</time>
      </trkpt>
      <trkpt lat="44.55669" lon="0.67391">
        <ele>140</ele>
        <time>2015-12-27T08:48:06Z</time>
      </trkpt>
      <trkpt lat="44.55655" lon="0.67413">
        <ele>141</ele>
        <time>2015-12-27T08:48:11Z</time>
      </trkpt>
      <trkpt lat="44.55643" lon="0.67439">
        <ele>143</ele>
        <time>2015-12-27T08:48:16Z</time>
      </trkpt>
      <trkpt lat="44.5563" lon="0.6746">
        <ele>142</ele>
        <time>2015-12-27T08:48:21Z</time>
      </trkpt>
      <trkpt lat="44.55616" lon="0.67484">
        <ele>143</ele>
        <time>2015-12-27T08:48:26Z</time>
      </trkpt>
      <trkpt lat="44.55604" lon="0.67511">
        <ele>143</ele>
        <time>2015-12-27T08:48:31Z</time>
      </trkpt>
      <trkpt lat="44.55583" lon="0.67548">
        <ele>140</ele>
        <time>2015-12-27T08:48:38Z</time>
      </trkpt>
      <trkpt lat="44.55575" lon="0.67564">
        <ele>140</ele>
        <time>2015-12-27T08:48:41Z</time>
      </trkpt>
      <trkpt lat="44.55562" lon="0.6759">
        <ele>140</ele>
        <time>2015-12-27T08:48:46Z</time>
      </trkpt>
      <trkpt lat="44.55549" lon="0.67612">
        <ele>140</ele>
        <time>2015-12-27T08:48:51Z</time>
      </trkpt>
      <trkpt lat="44.55538" lon="0.67635">
        <ele>139</ele>
        <time>2015-12-27T08:48:56Z</time>
      </trkpt>
      <trkpt lat="44.55524" lon="0.67667">
        <ele>137</ele>
        <time>2015-12-27T08:49:01Z</time>
      </trkpt>
      <trkpt lat="44.55509" lon="0.67695">
        <ele>135</ele>
        <time>2015-12-27T08:49:06Z</time>
      </trkpt>
      <trkpt lat="44.55493" lon="0.67731">
        <ele>135</ele>
        <time>2015-12-27T08:49:11Z</time>
      </trkpt>
      <trkpt lat="44.55466" lon="0.67795">
        <ele>135</ele>
        <time>2015-12-27T08:49:20Z</time>
      </trkpt>
      <trkpt lat="44.55463" lon="0.678">
        <ele>134</ele>
        <time>2015-12-27T08:49:21Z</time>
      </trkpt>
      <trkpt lat="44.55451" lon="0.67826">
        <ele>136</ele>
        <time>2015-12-27T08:49:26Z</time>
      </trkpt>
      <trkpt lat="44.5544" lon="0.67854">
        <ele>132</ele>
        <time>2015-12-27T08:49:31Z</time>
      </trkpt>
      <trkpt lat="44.5543" lon="0.67881">
        <ele>134</ele>
        <time>2015-12-27T08:49:36Z</time>
      </trkpt>
      <trkpt lat="44.55419" lon="0.679">
        <ele>135</ele>
        <time>2015-12-27T08:49:41Z</time>
      </trkpt>
      <trkpt lat="44.55413" lon="0.67916">
        <ele>136</ele>
        <time>2015-12-27T08:49:46Z</time>
      </trkpt>
      <trkpt lat="44.55412" lon="0.6792">
        <ele>136</ele>
        <time>2015-12-27T08:49:51Z</time>
      </trkpt>
      <trkpt lat="44.55411" lon="0.67925">
        <ele>135</ele>
        <time>2015-12-27T08:49:56Z</time>
      </trkpt>
      <trkpt lat="44.55409" lon="0.67926">
        <ele>135</ele>
        <time>2015-12-27T08:50:01Z</time>
      </trkpt>
      <trkpt lat="44.5541" lon="0.67927">
        <ele>134</ele>
        <time>2015-12-27T08:50:06Z</time>
      </trkpt>
      <trkpt lat="44.55408" lon="0.67931">
        <ele>135</ele>
        <time>2015-12-27T08:50:09Z</time>
      </trkpt>
      <trkpt lat="44.55398" lon="0.67956">
        <ele>137</ele>
        <time>2015-12-27T08:50:18Z</time>
      </trkpt>
      <trkpt lat="44.55395" lon="0.67962">
        <ele>137</ele>
        <time>2015-12-27T08:50:20Z</time>
      </trkpt>
      <trkpt lat="44.5538" lon="0.67985">
        <ele>143</ele>
        <time>2015-12-27T08:50:28Z</time>
      </trkpt>
      <trkpt lat="44.55378" lon="0.67989">
        <ele>143</ele>
        <time>2015-12-27T08:50:29Z</time>
      </trkpt>
      <trkpt lat="44.55363" lon="0.68011">
        <ele>142</ele>
        <time>2015-12-27T08:50:38Z</time>
      </trkpt>
      <trkpt lat="44.5536" lon="0.68016">
        <ele>140</ele>
        <time>2015-12-27T08:50:40Z</time>
      </trkpt>
      <trkpt lat="44.55355" lon="0.68024">
        <ele>140</ele>
        <time>2015-12-27T08:50:44Z</time>
      </trkpt>
      <trkpt lat="44.55348" lon="0.68037">
        <ele>141</ele>
        <time>2015-12-27T08:50:49Z</time>
      </trkpt>
      <trkpt lat="44.55339" lon="0.68053">
        <ele>140</ele>
        <time>2015-12-27T08:50:54Z</time>
      </trkpt>
      <trkpt lat="44.55331" lon="0.68067">
        <ele>140</ele>
        <time>2015-12-27T08:50:59Z</time>
      </trkpt>
      <trkpt lat="44.55319" lon="0.6809">
        <ele>141</ele>
        <time>2015-12-27T08:51:07Z</time>
      </trkpt>
      <trkpt lat="44.55313" lon="0.68104">
        <ele>141</ele>
        <time>2015-12-27T08:51:11Z</time>
      </trkpt>
      <trkpt lat="44.55311" lon="0.68117">
        <ele>138</ele>
        <time>2015-12-27T08:51:14Z</time>
      </trkpt>
      <trkpt lat="44.553" lon="0.68149">
        <ele>141</ele>
        <time>2015-12-27T08:51:22Z</time>
      </trkpt>
      <trkpt lat="44.55295" lon="0.68157">
        <ele>139</ele>
        <time>2015-12-27T08:51:24Z</time>
      </trkpt>
      <trkpt lat="44.55285" lon="0.68176">
        <ele>139</ele>
        <time>2015-12-27T08:51:29Z</time>
      </trkpt>
      <trkpt lat="44.55278" lon="0.68205">
        <ele>136</ele>
        <time>2015-12-27T08:51:34Z</time>
      </trkpt>
      <trkpt lat="44.55271" lon="0.68232">
        <ele>135</ele>
        <time>2015-12-27T08:51:39Z</time>
      </trkpt>
      <trkpt lat="44.55266" lon="0.68266">
        <ele>135</ele>
        <time>2015-12-27T08:51:44Z</time>
      </trkpt>
      <trkpt lat="44.55256" lon="0.68293">
        <ele>137</ele>
        <time>2015-12-27T08:51:49Z</time>
      </trkpt>
      <trkpt lat="44.55243" lon="0.6832">
        <ele>136</ele>
        <time>2015-12-27T08:51:54Z</time>
      </trkpt>
      <trkpt lat="44.55223" lon="0.68354">
        <ele>134</ele>
        <time>2015-12-27T08:52:00Z</time>
      </trkpt>
      <trkpt lat="44.55201" lon="0.68372">
        <ele>132</ele>
        <time>2015-12-27T08:52:04Z</time>
      </trkpt>
      <trkpt lat="44.55166" lon="0.68386">
        <ele>131</ele>
        <time>2015-12-27T08:52:09Z</time>
      </trkpt>
      <trkpt lat="44.55129" lon="0.684">
        <ele>133</ele>
        <time>2015-12-27T08:52:15Z</time>
      </trkpt>
      <trkpt lat="44.55098" lon="0.68421">
        <ele>133</ele>
        <time>2015-12-27T08:52:21Z</time>
      </trkpt>
      <trkpt lat="44.55081" lon="0.6843">
        <ele>133</ele>
        <time>2015-12-27T08:52:24Z</time>
      </trkpt>
      <trkpt lat="44.55053" lon="0.68454">
        <ele>133</ele>
        <time>2015-12-27T08:52:29Z</time>
      </trkpt>
      <trkpt lat="44.55027" lon="0.6849">
        <ele>132</ele>
        <time>2015-12-27T08:52:35Z</time>
      </trkpt>
      <trkpt lat="44.55012" lon="0.68512">
        <ele>132</ele>
        <time>2015-12-27T08:52:39Z</time>
      </trkpt>
      <trkpt lat="44.54989" lon="0.68523">
        <ele>131</ele>
        <time>2015-12-27T08:52:44Z</time>
      </trkpt>
      <trkpt lat="44.54967" lon="0.68543">
        <ele>128</ele>
        <time>2015-12-27T08:52:49Z</time>
      </trkpt>
      <trkpt lat="44.54944" lon="0.68565">
        <ele>127</ele>
        <time>2015-12-27T08:52:54Z</time>
      </trkpt>
      <trkpt lat="44.54915" lon="0.68606">
        <ele>127</ele>
        <time>2015-12-27T08:53:01Z</time>
      </trkpt>
      <trkpt lat="44.54903" lon="0.68622">
        <ele>126</ele>
        <time>2015-12-27T08:53:04Z</time>
      </trkpt>
      <trkpt lat="44.54886" lon="0.68648">
        <ele>126</ele>
        <time>2015-12-27T08:53:09Z</time>
      </trkpt>
      <trkpt lat="44.54869" lon="0.68667">
        <ele>125</ele>
        <time>2015-12-27T08:53:14Z</time>
      </trkpt>
      <trkpt lat="44.54851" lon="0.68692">
        <ele>123</ele>
        <time>2015-12-27T08:53:19Z</time>
      </trkpt>
      <trkpt lat="44.54827" lon="0.6872">
        <ele>122</ele>
        <time>2015-12-27T08:53:24Z</time>
      </trkpt>
      <trkpt lat="44.54804" lon="0.68747">
        <ele>122</ele>
        <time>2015-12-27T08:53:29Z</time>
      </trkpt>
      <trkpt lat="44.54785" lon="0.68776">
        <ele>123</ele>
        <time>2015-12-27T08:53:34Z</time>
      </trkpt>
      <trkpt lat="44.54765" lon="0.68796">
        <ele>123</ele>
        <time>2015-12-27T08:53:39Z</time>
      </trkpt>
      <trkpt lat="44.54748" lon="0.68815">
        <ele>122</ele>
        <time>2015-12-27T08:53:44Z</time>
      </trkpt>
      <trkpt lat="44.54733" lon="0.68831">
        <ele>122</ele>
        <time>2015-12-27T08:53:49Z</time>
      </trkpt>
      <trkpt lat="44.54723" lon="0.68846">
        <ele>119</ele>
        <time>2015-12-27T08:53:54Z</time>
      </trkpt>
      <trkpt lat="44.54709" lon="0.68864">
        <ele>119</ele>
        <time>2015-12-27T08:53:59Z</time>
      </trkpt>
      <trkpt lat="44.54694" lon="0.68883">
        <ele>119</ele>
        <time>2015-12-27T08:54:04Z</time>
      </trkpt>
      <trkpt lat="44.54679" lon="0.68899">
        <ele>120</ele>
        <time>2015-12-27T08:54:09Z</time>
      </trkpt>
      <trkpt lat="44.54663" lon="0.68916">
        <ele>120</ele>
        <time>2015-12-27T08:54:14Z</time>
      </trkpt>
      <trkpt lat="44.54645" lon="0.68935">
        <ele>122</ele>
        <time>2015-12-27T08:54:19Z</time>
      </trkpt>
      <trkpt lat="44.54623" lon="0.68952">
        <ele>121</ele>
        <time>2015-12-27T08:54:24Z</time>
      </trkpt>
      <trkpt lat="44.54598" lon="0.68972">
        <ele>118</ele>
        <time>2015-12-27T08:54:29Z</time>
      </trkpt>
      <trkpt lat="44.54576" lon="0.69003">
        <ele>118</ele>
        <time>2015-12-27T08:54:34Z</time>
      </trkpt>
      <trkpt lat="44.5455" lon="0.69027">
        <ele>119</ele>
        <time>2015-12-27T08:54:39Z</time>
      </trkpt>
      <trkpt lat="44.54524" lon="0.69048">
        <ele>117</ele>
        <time>2015-12-27T08:54:44Z</time>
      </trkpt>
      <trkpt lat="44.54506" lon="0.69067">
        <ele>117</ele>
        <time>2015-12-27T08:54:49Z</time>
      </trkpt>
      <trkpt lat="44.54489" lon="0.6908">
        <ele>115</ele>
        <time>2015-12-27T08:54:54Z</time>
      </trkpt>
      <trkpt lat="44.54475" lon="0.69096">
        <ele>116</ele>
        <time>2015-12-27T08:54:59Z</time>
      </trkpt>
      <trkpt lat="44.54458" lon="0.69117">
        <ele>113</ele>
        <time>2015-12-27T08:55:04Z</time>
      </trkpt>
      <trkpt lat="44.54439" lon="0.69142">
        <ele>110</ele>
        <time>2015-12-27T08:55:09Z</time>
      </trkpt>
      <trkpt lat="44.54417" lon="0.69169">
        <ele>109</ele>
        <time>2015-12-27T08:55:14Z</time>
      </trkpt>
      <trkpt lat="44.54397" lon="0.69188">
        <ele>109</ele>
        <time>2015-12-27T08:55:19Z</time>
      </trkpt>
      <trkpt lat="44.54377" lon="0.69207">
        <ele>108</ele>
        <time>2015-12-27T08:55:24Z</time>
      </trkpt>
      <trkpt lat="44.54356" lon="0.69232">
        <ele>107</ele>
        <time>2015-12-27T08:55:29Z</time>
      </trkpt>
      <trkpt lat="44.54346" lon="0.69243">
        <ele>105</ele>
        <time>2015-12-27T08:55:34Z</time>
      </trkpt>
      <trkpt lat="44.54334" lon="0.69264">
        <ele>104</ele>
        <time>2015-12-27T08:55:39Z</time>
      </trkpt>
      <trkpt lat="44.54321" lon="0.69294">
        <ele>100</ele>
        <time>2015-12-27T08:55:44Z</time>
      </trkpt>
      <trkpt lat="44.54307" lon="0.69335">
        <ele>100</ele>
        <time>2015-12-27T08:55:51Z</time>
      </trkpt>
      <trkpt lat="44.54298" lon="0.6935">
        <ele>98</ele>
        <time>2015-12-27T08:55:54Z</time>
      </trkpt>
      <trkpt lat="44.5429" lon="0.69375">
        <ele>100</ele>
        <time>2015-12-27T08:55:59Z</time>
      </trkpt>
      <trkpt lat="44.54282" lon="0.69413">
        <ele>98</ele>
        <time>2015-12-27T08:56:08Z</time>
      </trkpt>
      <trkpt lat="44.54282" lon="0.69414">
        <ele>99</ele>
        <time>2015-12-27T08:56:09Z</time>
      </trkpt>
      <trkpt lat="44.54286" lon="0.6942">
        <ele>99</ele>
        <time>2015-12-27T08:56:14Z</time>
      </trkpt>
      <trkpt lat="44.54284" lon="0.69415">
        <ele>99</ele>
        <time>2015-12-27T08:56:19Z</time>
      </trkpt>
      <trkpt lat="44.54283" lon="0.69416">
        <ele>99</ele>
        <time>2015-12-27T08:56:24Z</time>
      </trkpt>
      <trkpt lat="44.54283" lon="0.69416">
        <ele>99</ele>
        <time>2015-12-27T08:56:27Z</time>
      </trkpt>
      <trkpt lat="44.54283" lon="0.69416">
        <ele>99</ele>
        <time>2015-12-27T08:56:30Z</time>
      </trkpt>
      <trkpt lat="44.54283" lon="0.69416">
        <ele>99</ele>
        <time>2015-12-27T08:56:33Z</time>
      </trkpt>
      <trkpt lat="44.54283" lon="0.69416">
        <ele>99</ele>
        <time>2015-12-27T08:56:36Z</time>
      </trkpt>
      <trkpt lat="44.54283" lon="0.69416">
        <ele>99</ele>
        <time>2015-12-27T08:56:39Z</time>
      </trkpt>
      <trkpt lat="44.54283" lon="0.69416">
        <ele>99</ele>
        <time>2015-12-27T08:56:42Z</time>
      </trkpt>
      <trkpt lat="44.54283" lon="0.69416">
        <ele>99</ele>
        <time>2015-12-27T08:56:45Z</time>
      </trkpt>
      <trkpt lat="44.54283" lon="0.69416">
        <ele>99</ele>
        <time>2015-12-27T08:56:48Z</time>
      </trkpt>
      <trkpt lat="44.54283" lon="0.69416">
        <ele>99</ele>
        <time>2015-12-27T08:56:51Z</time>
      </trkpt>
      <trkpt lat="44.54283" lon="0.69416">
        <ele>99</ele>
        <time>2015-12-27T08:56:54Z</time>
      </trkpt>
      <trkpt lat="44.54283" lon="0.69416">
        <ele>99</ele>
        <time>2015-12-27T08:56:57Z</time>
      </trkpt>
      <trkpt lat="44.54283" lon="0.69416">
        <ele>99</ele>
        <time>2015-12-27T08:57:00Z</time>
      </trkpt>
      <trkpt lat="44.54283" lon="0.69416">
        <ele>99</ele>
        <time>2015-12-27T08:57:03Z</time>
      </trkpt>
      <trkpt lat="44.54283" lon="0.69416">
        <ele>99</ele>
        <time>2015-12-27T08:57:06Z</time>
      </trkpt>
      <trkpt lat="44.54283" lon="0.69416">
        <ele>99</ele>
        <time>2015-12-27T08:57:09Z</time>
      </trkpt>
      <trkpt lat="44.54283" lon="0.69416">
        <ele>99</ele>
        <time>2015-12-27T08:57:12Z</time>
      </trkpt>
      <trkpt lat="44.54283" lon="0.69416">
        <ele>99</ele>
        <time>2015-12-27T08:57:15Z</time>
      </trkpt>
      <trkpt lat="44.54283" lon="0.69416">
        <ele>99</ele>
        <time>2015-12-27T08:57:18Z</time>
      </trkpt>
      <trkpt lat="44.54283" lon="0.69416">
        <ele>99</ele>
        <time>2015-12-27T08:57:21Z</time>
      </trkpt>
      <trkpt lat="44.54283" lon="0.69416">
        <ele>99</ele>
        <time>2015-12-27T08:57:24Z</time>
      </trkpt>
      <trkpt lat="44.54283" lon="0.69416">
        <ele>99</ele>
        <time>2015-12-27T08:57:27Z</time>
      </trkpt>
      <trkpt lat="44.54283" lon="0.69416">
        <ele>99</ele>
        <time>2015-12-27T08:57:30Z</time>
      </trkpt>
      <trkpt lat="44.54283" lon="0.69416">
        <ele>99</ele>
        <time>2015-12-27T08:57:33Z</time>
      </trkpt>
      <trkpt lat="44.54283" lon="0.69416">
        <ele>99</ele>
        <time>2015-12-27T08:57:36Z</time>
      </trkpt>
      <trkpt lat="44.54283" lon="0.69416">
        <ele>99</ele>
        <time>2015-12-27T08:57:39Z</time>
      </trkpt>
      <trkpt lat="44.54283" lon="0.69416">
        <ele>99</ele>
        <time>2015-12-27T08:57:42Z</time>
      </trkpt>
      <trkpt lat="44.54283" lon="0.69416">
        <ele>99</ele>
        <time>2015-12-27T08:57:45Z</time>
      </trkpt>
      <trkpt lat="44.54283" lon="0.69416">
        <ele>99</ele>
        <time>2015-12-27T08:57:48Z</time>
      </trkpt>
      <trkpt lat="44.54283" lon="0.69416">
        <ele>99</ele>
        <time>2015-12-27T08:57:51Z</time>
      </trkpt>
      <trkpt lat="44.54283" lon="0.69416">
        <ele>99</ele>
        <time>2015-12-27T08:57:54Z</time>
      </trkpt>
      <trkpt lat="44.54283" lon="0.69416">
        <ele>99</ele>
        <time>2015-12-27T08:57:57Z</time>
      </trkpt>
      <trkpt lat="44.54283" lon="0.69416">
        <ele>99</ele>
        <time>2015-12-27T08:58:00Z</time>
      </trkpt>
      <trkpt lat="44.54283" lon="0.69416">
        <ele>99</ele>
        <time>2015-12-27T08:58:03Z</time>
      </trkpt>
      <trkpt lat="44.54283" lon="0.69416">
        <ele>99</ele>
        <time>2015-12-27T08:58:06Z</time>
      </trkpt>
      <trkpt lat="44.54283" lon="0.69416">
        <ele>99</ele>
        <time>2015-12-27T08:58:09Z</time>
      </trkpt>
      <trkpt lat="44.54283" lon="0.69416">
        <ele>99</ele>
        <time>2015-12-27T08:58:12Z</time>
      </trkpt>
      <trkpt lat="44.54283" lon="0.69416">
        <ele>99</ele>
        <time>2015-12-27T08:58:15Z</time>
      </trkpt>
      <trkpt lat="44.54283" lon="0.69416">
        <ele>99</ele>
        <time>2015-12-27T08:58:18Z</time>
      </trkpt>
      <trkpt lat="44.54283" lon="0.69416">
        <ele>99</ele>
        <time>2015-12-27T08:58:21Z</time>
      </trkpt>
      <trkpt lat="44.54283" lon="0.69416">
        <ele>99</ele>
        <time>2015-12-27T08:58:24Z</time>
      </trkpt>
      <trkpt lat="44.54283" lon="0.69416">
        <ele>99</ele>
        <time>2015-12-27T08:58:27Z</time>
      </trkpt>
      <trkpt lat="44.54283" lon="0.69416">
        <ele>99</ele>
        <time>2015-12-27T08:58:30Z</time>
      </trkpt>
      <trkpt lat="44.54282" lon="0.69414">
        <ele>99</ele>
        <time>2015-12-27T08:58:33Z</time>
      </trkpt>
      <trkpt lat="44.5428" lon="0.69415">
        <ele>98</ele>
        <time>2015-12-27T08:58:38Z</time>
      </trkpt>
      <trkpt lat="44.54284" lon="0.69423">
        <ele>96</ele>
        <time>2015-12-27T08:58:43Z</time>
      </trkpt>
      <trkpt lat="44.54284" lon="0.69415">
        <ele>97</ele>
        <time>2015-12-27T08:58:48Z</time>
      </trkpt>
      <trkpt lat="44.54284" lon="0.69416">
        <ele>97</ele>
        <time>2015-12-27T08:58:53Z</time>
      </trkpt>
      <trkpt lat="44.54283" lon="0.69416">
        <ele>97</ele>
        <time>2015-12-27T08:58:56Z</time>
      </trkpt>
      <trkpt lat="44.54277" lon="0.69416">
        <ele>98</ele>
        <time>2015-12-27T08:59:01Z</time>
      </trkpt>
      <trkpt lat="44.54271" lon="0.69415">
        <ele>98</ele>
        <time>2015-12-27T08:59:06Z</time>
      </trkpt>
      <trkpt lat="44.54263" lon="0.6941">
        <ele>97</ele>
        <time>2015-12-27T08:59:11Z</time>
      </trkpt>
      <trkpt lat="44.5425" lon="0.69402">
        <ele>97</ele>
        <time>2015-12-27T08:59:16Z</time>
      </trkpt>
      <trkpt lat="44.54237" lon="0.69391">
        <ele>96</ele>
        <time>2015-12-27T08:59:21Z</time>
      </trkpt>
      <trkpt lat="44.54222" lon="0.69381">
        <ele>98</ele>
        <time>2015-12-27T08:59:26Z</time>
      </trkpt>
      <trkpt lat="44.54208" lon="0.69367">
        <ele>95</ele>
        <time>2015-12-27T08:59:31Z</time>
      </trkpt>
      <trkpt lat="44.54193" lon="0.69347">
        <ele>95</ele>
        <time>2015-12-27T08:59:36Z</time>
      </trkpt>
      <trkpt lat="44.54173" lon="0.69326">
        <ele>96</ele>
        <time>2015-12-27T08:59:41Z</time>
      </trkpt>
      <trkpt lat="44.54152" lon="0.69302">
        <ele>94</ele>
        <time>2015-12-27T08:59:46Z</time>
      </trkpt>
      <trkpt lat="44.54131" lon="0.69273">
        <ele>93</ele>
        <time>2015-12-27T08:59:51Z</time>
      </trkpt>
      <trkpt lat="44.54117" lon="0.69234">
        <ele>93</ele>
        <time>2015-12-27T08:59:56Z</time>
      </trkpt>
      <trkpt lat="44.54117" lon="0.69182">
        <ele>91</ele>
        <time>2015-12-27T09:00:01Z</time>
      </trkpt>
      <trkpt lat="44.54127" lon="0.69124">
        <ele>91</ele>
        <time>2015-12-27T09:00:06Z</time>
      </trkpt>
      <trkpt lat="44.54126" lon="0.69064">
        <ele>89</ele>
        <time>2015-12-27T09:00:11Z</time>
      </trkpt>
      <trkpt lat="44.54106" lon="0.69014">
        <ele>86</ele>
        <time>2015-12-27T09:00:16Z</time>
      </trkpt>
      <trkpt lat="44.54076" lon="0.68982">
        <ele>85</ele>
        <time>2015-12-27T09:00:21Z</time>
      </trkpt>
      <trkpt lat="44.54049" lon="0.68965">
        <ele>84</ele>
        <time>2015-12-27T09:00:26Z</time>
      </trkpt>
      <trkpt lat="44.54022" lon="0.68947">
        <ele>84</ele>
        <time>2015-12-27T09:00:31Z</time>
      </trkpt>
      <trkpt lat="44.53995" lon="0.68927">
        <ele>84</ele>
        <time>2015-12-27T09:00:36Z</time>
      </trkpt>
      <trkpt lat="44.5397" lon="0.68911">
        <ele>84</ele>
        <time>2015-12-27T09:00:41Z</time>
      </trkpt>
      <trkpt lat="44.53945" lon="0.68895">
        <ele>86</ele>
        <time>2015-12-27T09:00:46Z</time>
      </trkpt>
      <trkpt lat="44.53924" lon="0.68881">
        <ele>86</ele>
        <time>2015-12-27T09:00:51Z</time>
      </trkpt>
      <trkpt lat="44.53908" lon="0.6887">
        <ele>88</ele>
        <time>2015-12-27T09:00:56Z</time>
      </trkpt>
      <trkpt lat="44.53899" lon="0.68858">
        <ele>89</ele>
        <time>2015-12-27T09:01:01Z</time>
      </trkpt>
      <trkpt lat="44.53898" lon="0.68847">
        <ele>89</ele>
        <time>2015-12-27T09:01:06Z</time>
      </trkpt>
      <trkpt lat="44.53899" lon="0.68829">
        <ele>89</ele>
        <time>2015-12-27T09:01:11Z</time>
      </trkpt>
      <trkpt lat="44.539" lon="0.68815">
        <ele>89</ele>
        <time>2015-12-27T09:01:16Z</time>
      </trkpt>
      <trkpt lat="44.53901" lon="0.68798">
        <ele>91</ele>
        <time>2015-12-27T09:01:21Z</time>
      </trkpt>
      <trkpt lat="44.53903" lon="0.68776">
        <ele>91</ele>
        <time>2015-12-27T09:01:26Z</time>
      </trkpt>
      <trkpt lat="44.53905" lon="0.68753">
        <ele>92</ele>
        <time>2015-12-27T09:01:31Z</time>
      </trkpt>
      <trkpt lat="44.53907" lon="0.68729">
        <ele>94</ele>
        <time>2015-12-27T09:01:36Z</time>
      </trkpt>
      <trkpt lat="44.53908" lon="0.68706">
        <ele>94</ele>
        <time>2015-12-27T09:01:41Z</time>
      </trkpt>
      <trkpt lat="44.53909" lon="0.68684">
        <ele>94</ele>
        <time>2015-12-27T09:01:46Z</time>
      </trkpt>
      <trkpt lat="44.53911" lon="0.68659">
        <ele>93</ele>
        <time>2015-12-27T09:01:51Z</time>
      </trkpt>
      <trkpt lat="44.53913" lon="0.68634">
        <ele>93</ele>
        <time>2015-12-27T09:01:56Z</time>
      </trkpt>
      <trkpt lat="44.53909" lon="0.6861">
        <ele>93</ele>
        <time>2015-12-27T09:02:01Z</time>
      </trkpt>
      <trkpt lat="44.53911" lon="0.68583">
        <ele>95</ele>
        <time>2015-12-27T09:02:06Z</time>
      </trkpt>
      <trkpt lat="44.53911" lon="0.68552">
        <ele>94</ele>
        <time>2015-12-27T09:02:11Z</time>
      </trkpt>
      <trkpt lat="44.53891" lon="0.68538">
        <ele>92</ele>
        <time>2015-12-27T09:02:16Z</time>
      </trkpt>
      <trkpt lat="44.53871" lon="0.68534">
        <ele>92</ele>
        <time>2015-12-27T09:02:21Z</time>
      </trkpt>
      <trkpt lat="44.5386" lon="0.68551">
        <ele>91</ele>
        <time>2015-12-27T09:02:26Z</time>
      </trkpt>
      <trkpt lat="44.53849" lon="0.68571">
        <ele>89</ele>
        <time>2015-12-27T09:02:31Z</time>
      </trkpt>
      <trkpt lat="44.53835" lon="0.68587">
        <ele>89</ele>
        <time>2015-12-27T09:02:36Z</time>
      </trkpt>
      <trkpt lat="44.53818" lon="0.68594">
        <ele>90</ele>
        <time>2015-12-27T09:02:41Z</time>
      </trkpt>
      <trkpt lat="44.53801" lon="0.68603">
        <ele>91</ele>
        <time>2015-12-27T09:02:46Z</time>
      </trkpt>
      <trkpt lat="44.53785" lon="0.68613">
        <ele>91</ele>
        <time>2015-12-27T09:02:51Z</time>
      </trkpt>
      <trkpt lat="44.53769" lon="0.6862">
        <ele>91</ele>
        <time>2015-12-27T09:02:56Z</time>
      </trkpt>
      <trkpt lat="44.53756" lon="0.68631">
        <ele>92</ele>
        <time>2015-12-27T09:03:01Z</time>
      </trkpt>
      <trkpt lat="44.53741" lon="0.68637">
        <ele>93</ele>
        <time>2015-12-27T09:03:06Z</time>
      </trkpt>
      <trkpt lat="44.53731" lon="0.68642">
        <ele>95</ele>
        <time>2015-12-27T09:03:11Z</time>
      </trkpt>
      <trkpt lat="44.53733" lon="0.68655">
        <ele>95</ele>
        <time>2015-12-27T09:03:16Z</time>
      </trkpt>
      <trkpt lat="44.53737" lon="0.68675">
        <ele>95</ele>
        <time>2015-12-27T09:03:21Z</time>
      </trkpt>
      <trkpt lat="44.53723" lon="0.68684">
        <ele>95</ele>
        <time>2015-12-27T09:03:26Z</time>
      </trkpt>
      <trkpt lat="44.53706" lon="0.68686">
        <ele>96</ele>
        <time>2015-12-27T09:03:31Z</time>
      </trkpt>
      <trkpt lat="44.53691" lon="0.6869">
        <ele>97</ele>
        <time>2015-12-27T09:03:36Z</time>
      </trkpt>
      <trkpt lat="44.53672" lon="0.68694">
        <ele>98</ele>
        <time>2015-12-27T09:03:41Z</time>
      </trkpt>
      <trkpt lat="44.53652" lon="0.68698">
        <ele>97</ele>
        <time>2015-12-27T09:03:46Z</time>
      </trkpt>
      <trkpt lat="44.53632" lon="0.687">
        <ele>97</ele>
        <time>2015-12-27T09:03:51Z</time>
      </trkpt>
      <trkpt lat="44.53611" lon="0.687">
        <ele>99</ele>
        <time>2015-12-27T09:03:56Z</time>
      </trkpt>
      <trkpt lat="44.53591" lon="0.68705">
        <ele>98</ele>
        <time>2015-12-27T09:04:01Z</time>
      </trkpt>
      <trkpt lat="44.53573" lon="0.68713">
        <ele>100</ele>
        <time>2015-12-27T09:04:06Z</time>
      </trkpt>
      <trkpt lat="44.53551" lon="0.68722">
        <ele>102</ele>
        <time>2015-12-27T09:04:12Z</time>
      </trkpt>
      <trkpt lat="44.53534" lon="0.68729">
        <ele>102</ele>
        <time>2015-12-27T09:04:16Z</time>
      </trkpt>
      <trkpt lat="44.53516" lon="0.68739">
        <ele>104</ele>
        <time>2015-12-27T09:04:21Z</time>
      </trkpt>
      <trkpt lat="44.53499" lon="0.68733">
        <ele>106</ele>
        <time>2015-12-27T09:04:26Z</time>
      </trkpt>
      <trkpt lat="44.53489" lon="0.68718">
        <ele>108</ele>
        <time>2015-12-27T09:04:31Z</time>
      </trkpt>
      <trkpt lat="44.5348" lon="0.68705">
        <ele>111</ele>
        <time>2015-12-27T09:04:36Z</time>
      </trkpt>
      <trkpt lat="44.53475" lon="0.68697">
        <ele>110</ele>
        <time>2015-12-27T09:04:41Z</time>
      </trkpt>
      <trkpt lat="44.53468" lon="0.68688">
        <ele>110</ele>
        <time>2015-12-27T09:04:46Z</time>
      </trkpt>
      <trkpt lat="44.53464" lon="0.6868">
        <ele>112</ele>
        <time>2015-12-27T09:04:51Z</time>
      </trkpt>
      <trkpt lat="44.53456" lon="0.68671">
        <ele>113</ele>
        <time>2015-12-27T09:04:56Z</time>
      </trkpt>
      <trkpt lat="44.53446" lon="0.68669">
        <ele>115</ele>
        <time>2015-12-27T09:05:01Z</time>
      </trkpt>
      <trkpt lat="44.53436" lon="0.68671">
        <ele>115</ele>
        <time>2015-12-27T09:05:06Z</time>
      </trkpt>
      <trkpt lat="44.53426" lon="0.68674">
        <ele>115</ele>
        <time>2015-12-27T09:05:11Z</time>
      </trkpt>
      <trkpt lat="44.53417" lon="0.68683">
        <ele>116</ele>
        <time>2015-12-27T09:05:16Z</time>
      </trkpt>
      <trkpt lat="44.53407" lon="0.6869">
        <ele>116</ele>
        <time>2015-12-27T09:05:21Z</time>
      </trkpt>
      <trkpt lat="44.53397" lon="0.687">
        <ele>116</ele>
        <time>2015-12-27T09:05:26Z</time>
      </trkpt>
      <trkpt lat="44.53388" lon="0.68708">
        <ele>117</ele>
        <time>2015-12-27T09:05:31Z</time>
      </trkpt>
      <trkpt lat="44.5338" lon="0.6872">
        <ele>118</ele>
        <time>2015-12-27T09:05:36Z</time>
      </trkpt>
      <trkpt lat="44.53377" lon="0.6874">
        <ele>119</ele>
        <time>2015-12-27T09:05:41Z</time>
      </trkpt>
      <trkpt lat="44.53374" lon="0.68756">
        <ele>119</ele>
        <time>2015-12-27T09:05:46Z</time>
      </trkpt>
      <trkpt lat="44.5337" lon="0.68773">
        <ele>120</ele>
        <time>2015-12-27T09:05:51Z</time>
      </trkpt>
      <trkpt lat="44.53359" lon="0.68791">
        <ele>123</ele>
        <time>2015-12-27T09:05:59Z</time>
      </trkpt>
      <trkpt lat="44.53355" lon="0.68796">
        <ele>125</ele>
        <time>2015-12-27T09:06:02Z</time>
      </trkpt>
      <trkpt lat="44.53352" lon="0.68811">
        <ele>124</ele>
        <time>2015-12-27T09:06:06Z</time>
      </trkpt>
      <trkpt lat="44.53343" lon="0.68828">
        <ele>123</ele>
        <time>2015-12-27T09:06:11Z</time>
      </trkpt>
      <trkpt lat="44.53335" lon="0.68848">
        <ele>122</ele>
        <time>2015-12-27T09:06:16Z</time>
      </trkpt>
      <trkpt lat="44.53323" lon="0.68864">
        <ele>120</ele>
        <time>2015-12-27T09:06:21Z</time>
      </trkpt>
      <trkpt lat="44.53311" lon="0.68881">
        <ele>121</ele>
        <time>2015-12-27T09:06:26Z</time>
      </trkpt>
      <trkpt lat="44.53301" lon="0.68901">
        <ele>120</ele>
        <time>2015-12-27T09:06:31Z</time>
      </trkpt>
      <trkpt lat="44.53292" lon="0.68918">
        <ele>122</ele>
        <time>2015-12-27T09:06:36Z</time>
      </trkpt>
      <trkpt lat="44.53282" lon="0.68938">
        <ele>121</ele>
        <time>2015-12-27T09:06:41Z</time>
      </trkpt>
      <trkpt lat="44.53271" lon="0.68958">
        <ele>122</ele>
        <time>2015-12-27T09:06:46Z</time>
      </trkpt>
      <trkpt lat="44.5326" lon="0.68975">
        <ele>123</ele>
        <time>2015-12-27T09:06:51Z</time>
      </trkpt>
      <trkpt lat="44.53245" lon="0.68978">
        <ele>123</ele>
        <time>2015-12-27T09:06:56Z</time>
      </trkpt>
      <trkpt lat="44.5323" lon="0.68976">
        <ele>122</ele>
        <time>2015-12-27T09:07:01Z</time>
      </trkpt>
      <trkpt lat="44.53214" lon="0.68968">
        <ele>126</ele>
        <time>2015-12-27T09:07:06Z</time>
      </trkpt>
      <trkpt lat="44.532" lon="0.68956">
        <ele>127</ele>
        <time>2015-12-27T09:07:11Z</time>
      </trkpt>
      <trkpt lat="44.53186" lon="0.68948">
        <ele>128</ele>
        <time>2015-12-27T09:07:16Z</time>
      </trkpt>
      <trkpt lat="44.53171" lon="0.68935">
        <ele>128</ele>
        <time>2015-12-27T09:07:21Z</time>
      </trkpt>
      <trkpt lat="44.53158" lon="0.68918">
        <ele>129</ele>
        <time>2015-12-27T09:07:26Z</time>
      </trkpt>
      <trkpt lat="44.53146" lon="0.689">
        <ele>129</ele>
        <time>2015-12-27T09:07:31Z</time>
      </trkpt>
      <trkpt lat="44.53135" lon="0.68881">
        <ele>129</ele>
        <time>2015-12-27T09:07:36Z</time>
      </trkpt>
      <trkpt lat="44.53124" lon="0.68863">
        <ele>130</ele>
        <time>2015-12-27T09:07:41Z</time>
      </trkpt>
      <trkpt lat="44.53114" lon="0.68844">
        <ele>130</ele>
        <time>2015-12-27T09:07:46Z</time>
      </trkpt>
      <trkpt lat="44.53102" lon="0.68826">
        <ele>130</ele>
        <time>2015-12-27T09:07:51Z</time>
      </trkpt>
      <trkpt lat="44.53089" lon="0.68809">
        <ele>130</ele>
        <time>2015-12-27T09:07:56Z</time>
      </trkpt>
      <trkpt lat="44.53076" lon="0.68796">
        <ele>131</ele>
        <time>2015-12-27T09:08:01Z</time>
      </trkpt>
      <trkpt lat="44.53063" lon="0.68785">
        <ele>131</ele>
        <time>2015-12-27T09:08:06Z</time>
      </trkpt>
      <trkpt lat="44.53052" lon="0.68772">
        <ele>132</ele>
        <time>2015-12-27T09:08:11Z</time>
      </trkpt>
      <trkpt lat="44.53041" lon="0.6876">
        <ele>131</ele>
        <time>2015-12-27T09:08:16Z</time>
      </trkpt>
      <trkpt lat="44.53028" lon="0.68748">
        <ele>131</ele>
        <time>2015-12-27T09:08:21Z</time>
      </trkpt>
      <trkpt lat="44.53014" lon="0.68735">
        <ele>131</ele>
        <time>2015-12-27T09:08:26Z</time>
      </trkpt>
      <trkpt lat="44.53" lon="0.68725">
        <ele>131</ele>
        <time>2015-12-27T09:08:31Z</time>
      </trkpt>
      <trkpt lat="44.52987" lon="0.68712">
        <ele>131</ele>
        <time>2015-12-27T09:08:36Z</time>
      </trkpt>
      <trkpt lat="44.52974" lon="0.68701">
        <ele>132</ele>
        <time>2015-12-27T09:08:41Z</time>
      </trkpt>
      <trkpt lat="44.52957" lon="0.68695">
        <ele>133</ele>
        <time>2015-12-27T09:08:46Z</time>
      </trkpt>
      <trkpt lat="44.52942" lon="0.68695">
        <ele>133</ele>
        <time>2015-12-27T09:08:51Z</time>
      </trkpt>
      <trkpt lat="44.52926" lon="0.68697">
        <ele>133</ele>
        <time>2015-12-27T09:08:56Z</time>
      </trkpt>
      <trkpt lat="44.52911" lon="0.68696">
        <ele>133</ele>
        <time>2015-12-27T09:09:01Z</time>
      </trkpt>
      <trkpt lat="44.52896" lon="0.68694">
        <ele>133</ele>
        <time>2015-12-27T09:09:06Z</time>
      </trkpt>
      <trkpt lat="44.5288" lon="0.68693">
        <ele>133</ele>
        <time>2015-12-27T09:09:11Z</time>
      </trkpt>
      <trkpt lat="44.52865" lon="0.68692">
        <ele>133</ele>
        <time>2015-12-27T09:09:16Z</time>
      </trkpt>
      <trkpt lat="44.52848" lon="0.6869">
        <ele>133</ele>
        <time>2015-12-27T09:09:21Z</time>
      </trkpt>
      <trkpt lat="44.52833" lon="0.68688">
        <ele>132</ele>
        <time>2015-12-27T09:09:26Z</time>
      </trkpt>
      <trkpt lat="44.52816" lon="0.68685">
        <ele>134</ele>
        <time>2015-12-27T09:09:31Z</time>
      </trkpt>
      <trkpt lat="44.52802" lon="0.68682">
        <ele>137</ele>
        <time>2015-12-27T09:09:36Z</time>
      </trkpt>
      <trkpt lat="44.52787" lon="0.6868">
        <ele>140</ele>
        <time>2015-12-27T09:09:41Z</time>
      </trkpt>
      <trkpt lat="44.52759" lon="0.6867">
        <ele>141</ele>
        <time>2015-12-27T09:09:48Z</time>
      </trkpt>
      <trkpt lat="44.52748" lon="0.68671">
        <ele>142</ele>
        <time>2015-12-27T09:09:51Z</time>
      </trkpt>
      <trkpt lat="44.5273" lon="0.68667">
        <ele>141</ele>
        <time>2015-12-27T09:09:56Z</time>
      </trkpt>
      <trkpt lat="44.52713" lon="0.68663">
        <ele>143</ele>
        <time>2015-12-27T09:10:01Z</time>
      </trkpt>
      <trkpt lat="44.52695" lon="0.68663">
        <ele>142</ele>
        <time>2015-12-27T09:10:06Z</time>
      </trkpt>
      <trkpt lat="44.52675" lon="0.68663">
        <ele>140</ele>
        <time>2015-12-27T09:10:11Z</time>
      </trkpt>
      <trkpt lat="44.52658" lon="0.68658">
        <ele>143</ele>
        <time>2015-12-27T09:10:16Z</time>
      </trkpt>
      <trkpt lat="44.52638" lon="0.68662">
        <ele>141</ele>
        <time>2015-12-27T09:10:21Z</time>
      </trkpt>
      <trkpt lat="44.52618" lon="0.68667">
        <ele>140</ele>
        <time>2015-12-27T09:10:26Z</time>
      </trkpt>
      <trkpt lat="44.52597" lon="0.68675">
        <ele>138</ele>
        <time>2015-12-27T09:10:31Z</time>
      </trkpt>
      <trkpt lat="44.52575" lon="0.68681">
        <ele>138</ele>
        <time>2015-12-27T09:10:36Z</time>
      </trkpt>
      <trkpt lat="44.52553" lon="0.68684">
        <ele>138</ele>
        <time>2015-12-27T09:10:41Z</time>
      </trkpt>
      <trkpt lat="44.52532" lon="0.68694">
        <ele>137</ele>
        <time>2015-12-27T09:10:46Z</time>
      </trkpt>
      <trkpt lat="44.52511" lon="0.68701">
        <ele>136</ele>
        <time>2015-12-27T09:10:51Z</time>
      </trkpt>
      <trkpt lat="44.52492" lon="0.68698">
        <ele>135</ele>
        <time>2015-12-27T09:10:56Z</time>
      </trkpt>
      <trkpt lat="44.52459" lon="0.68705">
        <ele>135</ele>
        <time>2015-12-27T09:11:05Z</time>
      </trkpt>
      <trkpt lat="44.52455" lon="0.68706">
        <ele>134</ele>
        <time>2015-12-27T09:11:06Z</time>
      </trkpt>
      <trkpt lat="44.52446" lon="0.6872">
        <ele>134</ele>
        <time>2015-12-27T09:11:11Z</time>
      </trkpt>
      <trkpt lat="44.52447" lon="0.68723">
        <ele>135</ele>
        <time>2015-12-27T09:11:16Z</time>
      </trkpt>
      <trkpt lat="44.52446" lon="0.68722">
        <ele>135</ele>
        <time>2015-12-27T09:11:21Z</time>
      </trkpt>
      <trkpt lat="44.52447" lon="0.68722">
        <ele>135</ele>
        <time>2015-12-27T09:11:24Z</time>
      </trkpt>
      <trkpt lat="44.52447" lon="0.68722">
        <ele>135</ele>
        <time>2015-12-27T09:11:27Z</time>
      </trkpt>
      <trkpt lat="44.52447" lon="0.68722">
        <ele>135</ele>
        <time>2015-12-27T09:11:30Z</time>
      </trkpt>
      <trkpt lat="44.52447" lon="0.68722">
        <ele>135</ele>
        <time>2015-12-27T09:11:34Z</time>
      </trkpt>
      <trkpt lat="44.52447" lon="0.68722">
        <ele>135</ele>
        <time>2015-12-27T09:11:36Z</time>
      </trkpt>
      <trkpt lat="44.52447" lon="0.68722">
        <ele>135</ele>
        <time>2015-12-27T09:11:39Z</time>
      </trkpt>
      <trkpt lat="44.52447" lon="0.68722">
        <ele>135</ele>
        <time>2015-12-27T09:11:44Z</time>
      </trkpt>
      <trkpt lat="44.52447" lon="0.68722">
        <ele>135</ele>
        <time>2015-12-27T09:11:45Z</time>
      </trkpt>
      <trkpt lat="44.52447" lon="0.68722">
        <ele>135</ele>
        <time>2015-12-27T09:11:48Z</time>
      </trkpt>
      <trkpt lat="44.52447" lon="0.68722">
        <ele>135</ele>
        <time>2015-12-27T09:11:51Z</time>
      </trkpt>
      <trkpt lat="44.52447" lon="0.68722">
        <ele>135</ele>
        <time>2015-12-27T09:11:54Z</time>
      </trkpt>
      <trkpt lat="44.52447" lon="0.68722">
        <ele>135</ele>
        <time>2015-12-27T09:11:57Z</time>
      </trkpt>
      <trkpt lat="44.52447" lon="0.68722">
        <ele>135</ele>
        <time>2015-12-27T09:12:02Z</time>
      </trkpt>
      <trkpt lat="44.52447" lon="0.68722">
        <ele>135</ele>
        <time>2015-12-27T09:12:04Z</time>
      </trkpt>
      <trkpt lat="44.52447" lon="0.68722">
        <ele>135</ele>
        <time>2015-12-27T09:12:06Z</time>
      </trkpt>
      <trkpt lat="44.52447" lon="0.68722">
        <ele>135</ele>
        <time>2015-12-27T09:12:09Z</time>
      </trkpt>
      <trkpt lat="44.52447" lon="0.68722">
        <ele>135</ele>
        <time>2015-12-27T09:12:12Z</time>
      </trkpt>
      <trkpt lat="44.52447" lon="0.68722">
        <ele>135</ele>
        <time>2015-12-27T09:12:15Z</time>
      </trkpt>
      <trkpt lat="44.52447" lon="0.68722">
        <ele>135</ele>
        <time>2015-12-27T09:12:18Z</time>
      </trkpt>
      <trkpt lat="44.52447" lon="0.68722">
        <ele>135</ele>
        <time>2015-12-27T09:12:21Z</time>
      </trkpt>
      <trkpt lat="44.52447" lon="0.68722">
        <ele>135</ele>
        <time>2015-12-27T09:12:26Z</time>
      </trkpt>
      <trkpt lat="44.52447" lon="0.68722">
        <ele>135</ele>
        <time>2015-12-27T09:12:29Z</time>
      </trkpt>
      <trkpt lat="44.52447" lon="0.68722">
        <ele>135</ele>
        <time>2015-12-27T09:12:31Z</time>
      </trkpt>
      <trkpt lat="44.52447" lon="0.68722">
        <ele>135</ele>
        <time>2015-12-27T09:12:33Z</time>
      </trkpt>
      <trkpt lat="44.52447" lon="0.68722">
        <ele>135</ele>
        <time>2015-12-27T09:12:36Z</time>
      </trkpt>
      <trkpt lat="44.52447" lon="0.68722">
        <ele>135</ele>
        <time>2015-12-27T09:12:39Z</time>
      </trkpt>
      <trkpt lat="44.52447" lon="0.68722">
        <ele>135</ele>
        <time>2015-12-27T09:12:43Z</time>
      </trkpt>
      <trkpt lat="44.52447" lon="0.68724">
        <ele>135</ele>
        <time>2015-12-27T09:12:47Z</time>
      </trkpt>
      <trkpt lat="44.52448" lon="0.68731">
        <ele>134</ele>
        <time>2015-12-27T09:12:50Z</time>
      </trkpt>
      <trkpt lat="44.52446" lon="0.68744">
        <ele>133</ele>
        <time>2015-12-27T09:12:53Z</time>
      </trkpt>
      <trkpt lat="44.52441" lon="0.68778">
        <ele>134</ele>
        <time>2015-12-27T09:12:58Z</time>
      </trkpt>
      <trkpt lat="44.52435" lon="0.68811">
        <ele>134</ele>
        <time>2015-12-27T09:13:03Z</time>
      </trkpt>
      <trkpt lat="44.5243" lon="0.68838">
        <ele>134</ele>
        <time>2015-12-27T09:13:08Z</time>
      </trkpt>
      <trkpt lat="44.5243" lon="0.68861">
        <ele>133</ele>
        <time>2015-12-27T09:13:13Z</time>
      </trkpt>
      <trkpt lat="44.5244" lon="0.68883">
        <ele>133</ele>
        <time>2015-12-27T09:13:18Z</time>
      </trkpt>
      <trkpt lat="44.52453" lon="0.68899">
        <ele>134</ele>
        <time>2015-12-27T09:13:23Z</time>
      </trkpt>
      <trkpt lat="44.52464" lon="0.68918">
        <ele>133</ele>
        <time>2015-12-27T09:13:28Z</time>
      </trkpt>
      <trkpt lat="44.52471" lon="0.68933">
        <ele>134</ele>
        <time>2015-12-27T09:13:33Z</time>
      </trkpt>
      <trkpt lat="44.52477" lon="0.68948">
        <ele>133</ele>
        <time>2015-12-27T09:13:38Z</time>
      </trkpt>
      <trkpt lat="44.52484" lon="0.6897">
        <ele>132</ele>
        <time>2015-12-27T09:13:43Z</time>
      </trkpt>
      <trkpt lat="44.52488" lon="0.69008">
        <ele>128</ele>
        <time>2015-12-27T09:13:48Z</time>
      </trkpt>
      <trkpt lat="44.525" lon="0.69053">
        <ele>123</ele>
        <time>2015-12-27T09:13:53Z</time>
      </trkpt>
      <trkpt lat="44.52522" lon="0.69103">
        <ele>119</ele>
        <time>2015-12-27T09:13:58Z</time>
      </trkpt>
      <trkpt lat="44.52545" lon="0.69155">
        <ele>115</ele>
        <time>2015-12-27T09:14:03Z</time>
      </trkpt>
      <trkpt lat="44.52574" lon="0.69201">
        <ele>112</ele>
        <time>2015-12-27T09:14:08Z</time>
      </trkpt>
      <trkpt lat="44.52592" lon="0.69238">
        <ele>111</ele>
        <time>2015-12-27T09:14:13Z</time>
      </trkpt>
      <trkpt lat="44.52611" lon="0.69264">
        <ele>110</ele>
        <time>2015-12-27T09:14:18Z</time>
      </trkpt>
      <trkpt lat="44.52629" lon="0.69305">
        <ele>110</ele>
        <time>2015-12-27T09:14:24Z</time>
      </trkpt>
      <trkpt lat="44.52637" lon="0.69331">
        <ele>112</ele>
        <time>2015-12-27T09:14:28Z</time>
      </trkpt>
      <trkpt lat="44.52644" lon="0.69352">
        <ele>112</ele>
        <time>2015-12-27T09:14:33Z</time>
      </trkpt>
      <trkpt lat="44.52645" lon="0.69364">
        <ele>114</ele>
        <time>2015-12-27T09:14:38Z</time>
      </trkpt>
      <trkpt lat="44.52649" lon="0.69374">
        <ele>114</ele>
        <time>2015-12-27T09:14:43Z</time>
      </trkpt>
      <trkpt lat="44.52653" lon="0.69383">
        <ele>114</ele>
        <time>2015-12-27T09:14:48Z</time>
      </trkpt>
      <trkpt lat="44.52654" lon="0.69398">
        <ele>119</ele>
        <time>2015-12-27T09:14:57Z</time>
      </trkpt>
      <trkpt lat="44.52653" lon="0.694">
        <ele>119</ele>
        <time>2015-12-27T09:14:58Z</time>
      </trkpt>
      <trkpt lat="44.52655" lon="0.69414">
        <ele>122</ele>
        <time>2015-12-27T09:15:03Z</time>
      </trkpt>
      <trkpt lat="44.52661" lon="0.69435">
        <ele>121</ele>
        <time>2015-12-27T09:15:08Z</time>
      </trkpt>
      <trkpt lat="44.52678" lon="0.69528">
        <ele>120</ele>
        <time>2015-12-27T09:15:17Z</time>
      </trkpt>
      <trkpt lat="44.52682" lon="0.69565">
        <ele>121</ele>
        <time>2015-12-27T09:15:20Z</time>
      </trkpt>
      <trkpt lat="44.52687" lon="0.69605">
        <ele>122</ele>
        <time>2015-12-27T09:15:23Z</time>
      </trkpt>
      <trkpt lat="44.52704" lon="0.69682">
        <ele>116</ele>
        <time>2015-12-27T09:15:30Z</time>
      </trkpt>
      <trkpt lat="44.52714" lon="0.69729">
        <ele>112</ele>
        <time>2015-12-27T09:15:35Z</time>
      </trkpt>
      <trkpt lat="44.5272" lon="0.69756">
        <ele>112</ele>
        <time>2015-12-27T09:15:38Z</time>
      </trkpt>
      <trkpt lat="44.52711" lon="0.69772">
        <ele>110</ele>
        <time>2015-12-27T09:15:43Z</time>
      </trkpt>
      <trkpt lat="44.52696" lon="0.69777">
        <ele>110</ele>
        <time>2015-12-27T09:15:48Z</time>
      </trkpt>
      <trkpt lat="44.52683" lon="0.69784">
        <ele>110</ele>
        <time>2015-12-27T09:15:53Z</time>
      </trkpt>
      <trkpt lat="44.52673" lon="0.69794">
        <ele>110</ele>
        <time>2015-12-27T09:15:58Z</time>
      </trkpt>
      <trkpt lat="44.52678" lon="0.69813">
        <ele>110</ele>
        <time>2015-12-27T09:16:03Z</time>
      </trkpt>
      <trkpt lat="44.52681" lon="0.69836">
        <ele>110</ele>
        <time>2015-12-27T09:16:08Z</time>
      </trkpt>
      <trkpt lat="44.52688" lon="0.6986">
        <ele>108</ele>
        <time>2015-12-27T09:16:13Z</time>
      </trkpt>
      <trkpt lat="44.52694" lon="0.69884">
        <ele>108</ele>
        <time>2015-12-27T09:16:18Z</time>
      </trkpt>
      <trkpt lat="44.52702" lon="0.6991">
        <ele>108</ele>
        <time>2015-12-27T09:16:23Z</time>
      </trkpt>
      <trkpt lat="44.52706" lon="0.69942">
        <ele>109</ele>
        <time>2015-12-27T09:16:28Z</time>
      </trkpt>
      <trkpt lat="44.52704" lon="0.69972">
        <ele>110</ele>
        <time>2015-12-27T09:16:33Z</time>
      </trkpt>
      <trkpt lat="44.527" lon="0.70001">
        <ele>109</ele>
        <time>2015-12-27T09:16:38Z</time>
      </trkpt>
      <trkpt lat="44.52696" lon="0.7003">
        <ele>111</ele>
        <time>2015-12-27T09:16:43Z</time>
      </trkpt>
      <trkpt lat="44.52693" lon="0.70058">
        <ele>112</ele>
        <time>2015-12-27T09:16:48Z</time>
      </trkpt>
      <trkpt lat="44.5269" lon="0.70083">
        <ele>114</ele>
        <time>2015-12-27T09:16:53Z</time>
      </trkpt>
      <trkpt lat="44.52688" lon="0.70103">
        <ele>116</ele>
        <time>2015-12-27T09:16:58Z</time>
      </trkpt>
      <trkpt lat="44.52686" lon="0.70117">
        <ele>118</ele>
        <time>2015-12-27T09:17:03Z</time>
      </trkpt>
      <trkpt lat="44.52684" lon="0.70129">
        <ele>119</ele>
        <time>2015-12-27T09:17:08Z</time>
      </trkpt>
      <trkpt lat="44.52683" lon="0.7014">
        <ele>120</ele>
        <time>2015-12-27T09:17:13Z</time>
      </trkpt>
      <trkpt lat="44.52684" lon="0.70152">
        <ele>121</ele>
        <time>2015-12-27T09:17:18Z</time>
      </trkpt>
      <trkpt lat="44.52688" lon="0.70164">
        <ele>121</ele>
        <time>2015-12-27T09:17:23Z</time>
      </trkpt>
      <trkpt lat="44.52694" lon="0.70173">
        <ele>121</ele>
        <time>2015-12-27T09:17:28Z</time>
      </trkpt>
      <trkpt lat="44.527" lon="0.70181">
        <ele>122</ele>
        <time>2015-12-27T09:17:33Z</time>
      </trkpt>
      <trkpt lat="44.52705" lon="0.70192">
        <ele>123</ele>
        <time>2015-12-27T09:17:38Z</time>
      </trkpt>
      <trkpt lat="44.52707" lon="0.702">
        <ele>126</ele>
        <time>2015-12-27T09:17:43Z</time>
      </trkpt>
      <trkpt lat="44.52712" lon="0.70209">
        <ele>127</ele>
        <time>2015-12-27T09:17:48Z</time>
      </trkpt>
      <trkpt lat="44.52712" lon="0.70218">
        <ele>127</ele>
        <time>2015-12-27T09:17:53Z</time>
      </trkpt>
      <trkpt lat="44.52705" lon="0.70223">
        <ele>125</ele>
        <time>2015-12-27T09:17:58Z</time>
      </trkpt>
      <trkpt lat="44.52692" lon="0.7023">
        <ele>124</ele>
        <time>2015-12-27T09:18:03Z</time>
      </trkpt>
      <trkpt lat="44.52674" lon="0.70238">
        <ele>124</ele>
        <time>2015-12-27T09:18:08Z</time>
      </trkpt>
      <trkpt lat="44.52657" lon="0.70246">
        <ele>122</ele>
        <time>2015-12-27T09:18:13Z</time>
      </trkpt>
      <trkpt lat="44.52642" lon="0.70252">
        <ele>121</ele>
        <time>2015-12-27T09:18:18Z</time>
      </trkpt>
      <trkpt lat="44.52626" lon="0.70253">
        <ele>121</ele>
        <time>2015-12-27T09:18:23Z</time>
      </trkpt>
      <trkpt lat="44.5261" lon="0.70252">
        <ele>121</ele>
        <time>2015-12-27T09:18:28Z</time>
      </trkpt>
      <trkpt lat="44.52593" lon="0.70252">
        <ele>123</ele>
        <time>2015-12-27T09:18:33Z</time>
      </trkpt>
      <trkpt lat="44.52575" lon="0.70253">
        <ele>123</ele>
        <time>2015-12-27T09:18:38Z</time>
      </trkpt>
      <trkpt lat="44.52558" lon="0.70251">
        <ele>124</ele>
        <time>2015-12-27T09:18:43Z</time>
      </trkpt>
      <trkpt lat="44.52542" lon="0.7025">
        <ele>126</ele>
        <time>2015-12-27T09:18:48Z</time>
      </trkpt>
      <trkpt lat="44.52526" lon="0.70244">
        <ele>127</ele>
        <time>2015-12-27T09:18:53Z</time>
      </trkpt>
      <trkpt lat="44.52515" lon="0.7024">
        <ele>130</ele>
        <time>2015-12-27T09:18:58Z</time>
      </trkpt>
      <trkpt lat="44.52501" lon="0.70237">
        <ele>130</ele>
        <time>2015-12-27T09:19:03Z</time>
      </trkpt>
      <trkpt lat="44.52489" lon="0.70232">
        <ele>131</ele>
        <time>2015-12-27T09:19:08Z</time>
      </trkpt>
      <trkpt lat="44.52475" lon="0.70229">
        <ele>134</ele>
        <time>2015-12-27T09:19:13Z</time>
      </trkpt>
      <trkpt lat="44.52461" lon="0.70225">
        <ele>137</ele>
        <time>2015-12-27T09:19:18Z</time>
      </trkpt>
      <trkpt lat="44.52441" lon="0.70228">
        <ele>136</ele>
        <time>2015-12-27T09:19:23Z</time>
      </trkpt>
      <trkpt lat="44.52414" lon="0.70229">
        <ele>140</ele>
        <time>2015-12-27T09:19:31Z</time>
      </trkpt>
      <trkpt lat="44.52407" lon="0.70231">
        <ele>139</ele>
        <time>2015-12-27T09:19:33Z</time>
      </trkpt>
      <trkpt lat="44.52393" lon="0.70237">
        <ele>140</ele>
        <time>2015-12-27T09:19:38Z</time>
      </trkpt>
      <trkpt lat="44.52384" lon="0.70241">
        <ele>139</ele>
        <time>2015-12-27T09:19:47Z</time>
      </trkpt>
      <trkpt lat="44.52384" lon="0.70242">
        <ele>139</ele>
        <time>2015-12-27T09:19:48Z</time>
      </trkpt>
      <trkpt lat="44.52384" lon="0.70243">
        <ele>138</ele>
        <time>2015-12-27T09:19:51Z</time>
      </trkpt>
      <trkpt lat="44.52382" lon="0.70243">
        <ele>139</ele>
        <time>2015-12-27T09:19:54Z</time>
      </trkpt>
      <trkpt lat="44.52369" lon="0.70245">
        <ele>139</ele>
        <time>2015-12-27T09:19:59Z</time>
      </trkpt>
      <trkpt lat="44.52352" lon="0.70247">
        <ele>135</ele>
        <time>2015-12-27T09:20:04Z</time>
      </trkpt>
      <trkpt lat="44.52336" lon="0.70249">
        <ele>135</ele>
        <time>2015-12-27T09:20:09Z</time>
      </trkpt>
      <trkpt lat="44.5232" lon="0.70258">
        <ele>135</ele>
        <time>2015-12-27T09:20:14Z</time>
      </trkpt>
      <trkpt lat="44.52309" lon="0.70262">
        <ele>135</ele>
        <time>2015-12-27T09:20:19Z</time>
      </trkpt>
      <trkpt lat="44.52299" lon="0.70263">
        <ele>137</ele>
        <time>2015-12-27T09:20:24Z</time>
      </trkpt>
      <trkpt lat="44.52286" lon="0.7027">
        <ele>136</ele>
        <time>2015-12-27T09:20:29Z</time>
      </trkpt>
      <trkpt lat="44.5227" lon="0.70281">
        <ele>134</ele>
        <time>2015-12-27T09:20:34Z</time>
      </trkpt>
      <trkpt lat="44.52257" lon="0.70289">
        <ele>133</ele>
        <time>2015-12-27T09:20:39Z</time>
      </trkpt>
      <trkpt lat="44.52244" lon="0.70294">
        <ele>136</ele>
        <time>2015-12-27T09:20:44Z</time>
      </trkpt>
      <trkpt lat="44.52231" lon="0.70299">
        <ele>138</ele>
        <time>2015-12-27T09:20:49Z</time>
      </trkpt>
      <trkpt lat="44.52219" lon="0.70304">
        <ele>140</ele>
        <time>2015-12-27T09:20:54Z</time>
      </trkpt>
      <trkpt lat="44.52206" lon="0.70308">
        <ele>142</ele>
        <time>2015-12-27T09:20:59Z</time>
      </trkpt>
      <trkpt lat="44.52195" lon="0.70313">
        <ele>143</ele>
        <time>2015-12-27T09:21:04Z</time>
      </trkpt>
      <trkpt lat="44.52185" lon="0.70317">
        <ele>144</ele>
        <time>2015-12-27T09:21:09Z</time>
      </trkpt>
      <trkpt lat="44.52174" lon="0.7032">
        <ele>144</ele>
        <time>2015-12-27T09:21:14Z</time>
      </trkpt>
      <trkpt lat="44.52165" lon="0.70323">
        <ele>145</ele>
        <time>2015-12-27T09:21:19Z</time>
      </trkpt>
      <trkpt lat="44.52156" lon="0.70324">
        <ele>145</ele>
        <time>2015-12-27T09:21:24Z</time>
      </trkpt>
      <trkpt lat="44.52149" lon="0.70325">
        <ele>145</ele>
        <time>2015-12-27T09:21:29Z</time>
      </trkpt>
      <trkpt lat="44.52143" lon="0.70326">
        <ele>145</ele>
        <time>2015-12-27T09:21:34Z</time>
      </trkpt>
      <trkpt lat="44.52135" lon="0.70327">
        <ele>145</ele>
        <time>2015-12-27T09:21:39Z</time>
      </trkpt>
      <trkpt lat="44.52129" lon="0.70328">
        <ele>146</ele>
        <time>2015-12-27T09:21:44Z</time>
      </trkpt>
      <trkpt lat="44.52123" lon="0.70329">
        <ele>147</ele>
        <time>2015-12-27T09:21:49Z</time>
      </trkpt>
      <trkpt lat="44.52117" lon="0.70331">
        <ele>147</ele>
        <time>2015-12-27T09:21:54Z</time>
      </trkpt>
      <trkpt lat="44.5211" lon="0.7033">
        <ele>149</ele>
        <time>2015-12-27T09:21:59Z</time>
      </trkpt>
      <trkpt lat="44.52102" lon="0.70331">
        <ele>149</ele>
        <time>2015-12-27T09:22:04Z</time>
      </trkpt>
      <trkpt lat="44.52095" lon="0.7033">
        <ele>150</ele>
        <time>2015-12-27T09:22:09Z</time>
      </trkpt>
      <trkpt lat="44.52088" lon="0.70329">
        <ele>150</ele>
        <time>2015-12-27T09:22:14Z</time>
      </trkpt>
      <trkpt lat="44.52082" lon="0.70329">
        <ele>151</ele>
        <time>2015-12-27T09:22:19Z</time>
      </trkpt>
      <trkpt lat="44.52075" lon="0.70328">
        <ele>151</ele>
        <time>2015-12-27T09:22:24Z</time>
      </trkpt>
      <trkpt lat="44.5207" lon="0.70327">
        <ele>153</ele>
        <time>2015-12-27T09:22:29Z</time>
      </trkpt>
      <trkpt lat="44.52064" lon="0.70326">
        <ele>153</ele>
        <time>2015-12-27T09:22:34Z</time>
      </trkpt>
      <trkpt lat="44.52058" lon="0.70326">
        <ele>153</ele>
        <time>2015-12-27T09:22:39Z</time>
      </trkpt>
      <trkpt lat="44.52052" lon="0.70326">
        <ele>154</ele>
        <time>2015-12-27T09:22:44Z</time>
      </trkpt>
      <trkpt lat="44.52045" lon="0.70324">
        <ele>155</ele>
        <time>2015-12-27T09:22:49Z</time>
      </trkpt>
      <trkpt lat="44.52039" lon="0.70323">
        <ele>157</ele>
        <time>2015-12-27T09:22:54Z</time>
      </trkpt>
      <trkpt lat="44.52031" lon="0.70322">
        <ele>156</ele>
        <time>2015-12-27T09:22:59Z</time>
      </trkpt>
      <trkpt lat="44.52024" lon="0.70322">
        <ele>157</ele>
        <time>2015-12-27T09:23:04Z</time>
      </trkpt>
      <trkpt lat="44.52018" lon="0.70321">
        <ele>159</ele>
        <time>2015-12-27T09:23:09Z</time>
      </trkpt>
      <trkpt lat="44.52013" lon="0.70319">
        <ele>159</ele>
        <time>2015-12-27T09:23:14Z</time>
      </trkpt>
      <trkpt lat="44.52007" lon="0.70318">
        <ele>161</ele>
        <time>2015-12-27T09:23:19Z</time>
      </trkpt>
      <trkpt lat="44.51999" lon="0.70319">
        <ele>162</ele>
        <time>2015-12-27T09:23:24Z</time>
      </trkpt>
      <trkpt lat="44.51994" lon="0.70319">
        <ele>162</ele>
        <time>2015-12-27T09:23:29Z</time>
      </trkpt>
      <trkpt lat="44.51987" lon="0.7032">
        <ele>164</ele>
        <time>2015-12-27T09:23:34Z</time>
      </trkpt>
      <trkpt lat="44.51981" lon="0.70322">
        <ele>166</ele>
        <time>2015-12-27T09:23:39Z</time>
      </trkpt>
      <trkpt lat="44.51975" lon="0.70321">
        <ele>166</ele>
        <time>2015-12-27T09:23:44Z</time>
      </trkpt>
      <trkpt lat="44.5197" lon="0.70315">
        <ele>166</ele>
        <time>2015-12-27T09:23:49Z</time>
      </trkpt>
      <trkpt lat="44.51966" lon="0.70311">
        <ele>167</ele>
        <time>2015-12-27T09:23:54Z</time>
      </trkpt>
      <trkpt lat="44.51962" lon="0.70306">
        <ele>168</ele>
        <time>2015-12-27T09:23:59Z</time>
      </trkpt>
      <trkpt lat="44.51959" lon="0.70299">
        <ele>169</ele>
        <time>2015-12-27T09:24:04Z</time>
      </trkpt>
      <trkpt lat="44.51959" lon="0.70291">
        <ele>170</ele>
        <time>2015-12-27T09:24:09Z</time>
      </trkpt>
      <trkpt lat="44.51956" lon="0.70282">
        <ele>171</ele>
        <time>2015-12-27T09:24:14Z</time>
      </trkpt>
      <trkpt lat="44.51951" lon="0.70276">
        <ele>169</ele>
        <time>2015-12-27T09:24:19Z</time>
      </trkpt>
      <trkpt lat="44.51945" lon="0.70267">
        <ele>169</ele>
        <time>2015-12-27T09:24:24Z</time>
      </trkpt>
      <trkpt lat="44.51941" lon="0.70256">
        <ele>171</ele>
        <time>2015-12-27T09:24:29Z</time>
      </trkpt>
      <trkpt lat="44.51937" lon="0.70248">
        <ele>173</ele>
        <time>2015-12-27T09:24:34Z</time>
      </trkpt>
      <trkpt lat="44.51937" lon="0.70237">
        <ele>176</ele>
        <time>2015-12-27T09:24:39Z</time>
      </trkpt>
      <trkpt lat="44.51929" lon="0.70226">
        <ele>174</ele>
        <time>2015-12-27T09:24:44Z</time>
      </trkpt>
      <trkpt lat="44.51927" lon="0.70217">
        <ele>175</ele>
        <time>2015-12-27T09:24:49Z</time>
      </trkpt>
      <trkpt lat="44.51924" lon="0.70206">
        <ele>176</ele>
        <time>2015-12-27T09:24:54Z</time>
      </trkpt>
      <trkpt lat="44.51918" lon="0.70191">
        <ele>178</ele>
        <time>2015-12-27T09:25:01Z</time>
      </trkpt>
      <trkpt lat="44.51911" lon="0.70178">
        <ele>178</ele>
        <time>2015-12-27T09:25:08Z</time>
      </trkpt>
      <trkpt lat="44.51906" lon="0.70171">
        <ele>177</ele>
        <time>2015-12-27T09:25:11Z</time>
      </trkpt>
      <trkpt lat="44.51902" lon="0.70166">
        <ele>179</ele>
        <time>2015-12-27T09:25:14Z</time>
      </trkpt>
      <trkpt lat="44.51895" lon="0.70157">
        <ele>178</ele>
        <time>2015-12-27T09:25:19Z</time>
      </trkpt>
      <trkpt lat="44.5189" lon="0.70152">
        <ele>180</ele>
        <time>2015-12-27T09:25:24Z</time>
      </trkpt>
      <trkpt lat="44.51887" lon="0.70146">
        <ele>181</ele>
        <time>2015-12-27T09:25:29Z</time>
      </trkpt>
      <trkpt lat="44.51883" lon="0.70139">
        <ele>182</ele>
        <time>2015-12-27T09:25:34Z</time>
      </trkpt>
      <trkpt lat="44.5188" lon="0.70133">
        <ele>182</ele>
        <time>2015-12-27T09:25:39Z</time>
      </trkpt>
      <trkpt lat="44.51873" lon="0.70122">
        <ele>182</ele>
        <time>2015-12-27T09:25:44Z</time>
      </trkpt>
      <trkpt lat="44.51871" lon="0.70114">
        <ele>185</ele>
        <time>2015-12-27T09:25:49Z</time>
      </trkpt>
      <trkpt lat="44.51863" lon="0.70109">
        <ele>181</ele>
        <time>2015-12-27T09:25:54Z</time>
      </trkpt>
      <trkpt lat="44.51856" lon="0.70103">
        <ele>181</ele>
        <time>2015-12-27T09:25:59Z</time>
      </trkpt>
      <trkpt lat="44.51856" lon="0.70105">
        <ele>182</ele>
        <time>2015-12-27T09:26:04Z</time>
      </trkpt>
      <trkpt lat="44.51856" lon="0.70105">
        <ele>182</ele>
        <time>2015-12-27T09:26:08Z</time>
      </trkpt>
      <trkpt lat="44.51856" lon="0.70105">
        <ele>182</ele>
        <time>2015-12-27T09:26:10Z</time>
      </trkpt>
      <trkpt lat="44.51856" lon="0.70105">
        <ele>182</ele>
        <time>2015-12-27T09:26:13Z</time>
      </trkpt>
      <trkpt lat="44.51856" lon="0.70105">
        <ele>182</ele>
        <time>2015-12-27T09:26:16Z</time>
      </trkpt>
      <trkpt lat="44.51856" lon="0.70105">
        <ele>182</ele>
        <time>2015-12-27T09:26:19Z</time>
      </trkpt>
      <trkpt lat="44.51856" lon="0.70105">
        <ele>184</ele>
        <time>2015-12-27T09:26:22Z</time>
      </trkpt>
      <trkpt lat="44.51855" lon="0.70105">
        <ele>184</ele>
        <time>2015-12-27T09:26:25Z</time>
      </trkpt>
      <trkpt lat="44.51855" lon="0.70105">
        <ele>183</ele>
        <time>2015-12-27T09:26:28Z</time>
      </trkpt>
      <trkpt lat="44.51854" lon="0.70104">
        <ele>183</ele>
        <time>2015-12-27T09:26:31Z</time>
      </trkpt>
      <trkpt lat="44.51852" lon="0.70102">
        <ele>181</ele>
        <time>2015-12-27T09:26:36Z</time>
      </trkpt>
      <trkpt lat="44.51852" lon="0.70099">
        <ele>182</ele>
        <time>2015-12-27T09:26:39Z</time>
      </trkpt>
      <trkpt lat="44.51852" lon="0.70094">
        <ele>183</ele>
        <time>2015-12-27T09:26:45Z</time>
      </trkpt>
      <trkpt lat="44.51852" lon="0.70092">
        <ele>183</ele>
        <time>2015-12-27T09:26:49Z</time>
      </trkpt>
      <trkpt lat="44.51853" lon="0.70091">
        <ele>182</ele>
        <time>2015-12-27T09:26:54Z</time>
      </trkpt>
      <trkpt lat="44.51853" lon="0.70091">
        <ele>182</ele>
        <time>2015-12-27T09:26:57Z</time>
      </trkpt>
      <trkpt lat="44.51853" lon="0.70091">
        <ele>182</ele>
        <time>2015-12-27T09:27:00Z</time>
      </trkpt>
      <trkpt lat="44.51853" lon="0.70091">
        <ele>182</ele>
        <time>2015-12-27T09:27:04Z</time>
      </trkpt>
      <trkpt lat="44.51853" lon="0.70091">
        <ele>182</ele>
        <time>2015-12-27T09:27:06Z</time>
      </trkpt>
      <trkpt lat="44.51853" lon="0.70091">
        <ele>182</ele>
        <time>2015-12-27T09:27:10Z</time>
      </trkpt>
      <trkpt lat="44.51853" lon="0.70091">
        <ele>182</ele>
        <time>2015-12-27T09:27:12Z</time>
      </trkpt>
      <trkpt lat="44.51853" lon="0.70091">
        <ele>182</ele>
        <time>2015-12-27T09:27:15Z</time>
      </trkpt>
      <trkpt lat="44.51853" lon="0.70091">
        <ele>182</ele>
        <time>2015-12-27T09:27:18Z</time>
      </trkpt>
      <trkpt lat="44.51853" lon="0.70091">
        <ele>182</ele>
        <time>2015-12-27T09:27:21Z</time>
      </trkpt>
      <trkpt lat="44.51853" lon="0.70091">
        <ele>182</ele>
        <time>2015-12-27T09:27:24Z</time>
      </trkpt>
      <trkpt lat="44.51853" lon="0.70091">
        <ele>182</ele>
        <time>2015-12-27T09:27:27Z</time>
      </trkpt>
      <trkpt lat="44.51853" lon="0.70091">
        <ele>182</ele>
        <time>2015-12-27T09:27:30Z</time>
      </trkpt>
      <trkpt lat="44.51853" lon="0.70091">
        <ele>182</ele>
        <time>2015-12-27T09:27:33Z</time>
      </trkpt>
      <trkpt lat="44.51853" lon="0.70091">
        <ele>182</ele>
        <time>2015-12-27T09:27:36Z</time>
      </trkpt>
      <trkpt lat="44.51853" lon="0.70091">
        <ele>182</ele>
        <time>2015-12-27T09:27:39Z</time>
      </trkpt>
      <trkpt lat="44.51853" lon="0.70091">
        <ele>182</ele>
        <time>2015-12-27T09:27:43Z</time>
      </trkpt>
      <trkpt lat="44.51853" lon="0.70091">
        <ele>182</ele>
        <time>2015-12-27T09:27:45Z</time>
      </trkpt>
      <trkpt lat="44.51853" lon="0.70091">
        <ele>182</ele>
        <time>2015-12-27T09:27:48Z</time>
      </trkpt>
      <trkpt lat="44.51853" lon="0.70091">
        <ele>182</ele>
        <time>2015-12-27T09:27:51Z</time>
      </trkpt>
      <trkpt lat="44.51853" lon="0.70091">
        <ele>182</ele>
        <time>2015-12-27T09:27:54Z</time>
      </trkpt>
      <trkpt lat="44.51853" lon="0.7009">
        <ele>180</ele>
        <time>2015-12-27T09:27:57Z</time>
      </trkpt>
      <trkpt lat="44.51853" lon="0.7009">
        <ele>180</ele>
        <time>2015-12-27T09:28:00Z</time>
      </trkpt>
      <trkpt lat="44.51854" lon="0.7009">
        <ele>181</ele>
        <time>2015-12-27T09:28:03Z</time>
      </trkpt>
      <trkpt lat="44.51854" lon="0.70089">
        <ele>180</ele>
        <time>2015-12-27T09:28:06Z</time>
      </trkpt>
      <trkpt lat="44.51854" lon="0.70089">
        <ele>180</ele>
        <time>2015-12-27T09:28:09Z</time>
      </trkpt>
      <trkpt lat="44.51854" lon="0.70089">
        <ele>180</ele>
        <time>2015-12-27T09:28:12Z</time>
      </trkpt>
      <trkpt lat="44.51854" lon="0.70089">
        <ele>180</ele>
        <time>2015-12-27T09:28:15Z</time>
      </trkpt>
      <trkpt lat="44.51854" lon="0.70089">
        <ele>180</ele>
        <time>2015-12-27T09:28:18Z</time>
      </trkpt>
      <trkpt lat="44.51854" lon="0.70089">
        <ele>180</ele>
        <time>2015-12-27T09:28:23Z</time>
      </trkpt>
      <trkpt lat="44.51854" lon="0.70089">
        <ele>180</ele>
        <time>2015-12-27T09:28:24Z</time>
      </trkpt>
      <trkpt lat="44.51854" lon="0.70089">
        <ele>180</ele>
        <time>2015-12-27T09:28:27Z</time>
      </trkpt>
      <trkpt lat="44.51854" lon="0.70089">
        <ele>180</ele>
        <time>2015-12-27T09:28:30Z</time>
      </trkpt>
      <trkpt lat="44.51854" lon="0.70089">
        <ele>180</ele>
        <time>2015-12-27T09:28:33Z</time>
      </trkpt>
      <trkpt lat="44.51854" lon="0.70089">
        <ele>180</ele>
        <time>2015-12-27T09:28:36Z</time>
      </trkpt>
      <trkpt lat="44.51854" lon="0.70089">
        <ele>180</ele>
        <time>2015-12-27T09:28:39Z</time>
      </trkpt>
      <trkpt lat="44.51854" lon="0.70089">
        <ele>180</ele>
        <time>2015-12-27T09:28:42Z</time>
      </trkpt>
      <trkpt lat="44.51854" lon="0.70089">
        <ele>180</ele>
        <time>2015-12-27T09:28:45Z</time>
      </trkpt>
      <trkpt lat="44.51854" lon="0.70089">
        <ele>180</ele>
        <time>2015-12-27T09:28:48Z</time>
      </trkpt>
      <trkpt lat="44.51854" lon="0.70089">
        <ele>180</ele>
        <time>2015-12-27T09:28:51Z</time>
      </trkpt>
      <trkpt lat="44.51854" lon="0.70089">
        <ele>180</ele>
        <time>2015-12-27T09:28:54Z</time>
      </trkpt>
      <trkpt lat="44.51854" lon="0.70089">
        <ele>180</ele>
        <time>2015-12-27T09:28:57Z</time>
      </trkpt>
      <trkpt lat="44.51854" lon="0.70089">
        <ele>180</ele>
        <time>2015-12-27T09:29:00Z</time>
      </trkpt>
      <trkpt lat="44.51854" lon="0.70089">
        <ele>180</ele>
        <time>2015-12-27T09:29:03Z</time>
      </trkpt>
      <trkpt lat="44.51854" lon="0.70089">
        <ele>180</ele>
        <time>2015-12-27T09:29:07Z</time>
      </trkpt>
      <trkpt lat="44.51854" lon="0.70089">
        <ele>180</ele>
        <time>2015-12-27T09:29:09Z</time>
      </trkpt>
      <trkpt lat="44.51854" lon="0.70089">
        <ele>180</ele>
        <time>2015-12-27T09:29:12Z</time>
      </trkpt>
      <trkpt lat="44.51854" lon="0.70089">
        <ele>180</ele>
        <time>2015-12-27T09:29:15Z</time>
      </trkpt>
      <trkpt lat="44.51854" lon="0.70089">
        <ele>180</ele>
        <time>2015-12-27T09:29:18Z</time>
      </trkpt>
      <trkpt lat="44.51854" lon="0.70089">
        <ele>180</ele>
        <time>2015-12-27T09:29:21Z</time>
      </trkpt>
      <trkpt lat="44.51854" lon="0.70089">
        <ele>180</ele>
        <time>2015-12-27T09:29:25Z</time>
      </trkpt>
      <trkpt lat="44.51854" lon="0.70089">
        <ele>180</ele>
        <time>2015-12-27T09:29:27Z</time>
      </trkpt>
      <trkpt lat="44.51854" lon="0.70089">
        <ele>180</ele>
        <time>2015-12-27T09:29:30Z</time>
      </trkpt>
      <trkpt lat="44.51854" lon="0.70089">
        <ele>180</ele>
        <time>2015-12-27T09:29:33Z</time>
      </trkpt>
      <trkpt lat="44.51854" lon="0.70089">
        <ele>180</ele>
        <time>2015-12-27T09:29:36Z</time>
      </trkpt>
      <trkpt lat="44.51854" lon="0.70089">
        <ele>180</ele>
        <time>2015-12-27T09:29:39Z</time>
      </trkpt>
      <trkpt lat="44.51854" lon="0.70089">
        <ele>180</ele>
        <time>2015-12-27T09:29:42Z</time>
      </trkpt>
      <trkpt lat="44.51854" lon="0.70089">
        <ele>180</ele>
        <time>2015-12-27T09:29:47Z</time>
      </trkpt>
      <trkpt lat="44.51854" lon="0.70089">
        <ele>180</ele>
        <time>2015-12-27T09:29:48Z</time>
      </trkpt>
      <trkpt lat="44.51854" lon="0.70089">
        <ele>180</ele>
        <time>2015-12-27T09:29:51Z</time>
      </trkpt>
      <trkpt lat="44.51854" lon="0.70089">
        <ele>180</ele>
        <time>2015-12-27T09:29:54Z</time>
      </trkpt>
      <trkpt lat="44.51854" lon="0.70088">
        <ele>180</ele>
        <time>2015-12-27T09:29:57Z</time>
      </trkpt>
      <trkpt lat="44.51854" lon="0.70088">
        <ele>180</ele>
        <time>2015-12-27T09:30:00Z</time>
      </trkpt>
      <trkpt lat="44.51854" lon="0.70087">
        <ele>179</ele>
        <time>2015-12-27T09:30:03Z</time>
      </trkpt>
      <trkpt lat="44.51854" lon="0.70087">
        <ele>178</ele>
        <time>2015-12-27T09:30:07Z</time>
      </trkpt>
      <trkpt lat="44.51854" lon="0.70087">
        <ele>178</ele>
        <time>2015-12-27T09:30:09Z</time>
      </trkpt>
      <trkpt lat="44.51854" lon="0.70087">
        <ele>178</ele>
        <time>2015-12-27T09:30:12Z</time>
      </trkpt>
      <trkpt lat="44.51854" lon="0.70087">
        <ele>178</ele>
        <time>2015-12-27T09:30:15Z</time>
      </trkpt>
      <trkpt lat="44.51854" lon="0.70087">
        <ele>178</ele>
        <time>2015-12-27T09:30:18Z</time>
      </trkpt>
      <trkpt lat="44.51854" lon="0.70087">
        <ele>178</ele>
        <time>2015-12-27T09:30:21Z</time>
      </trkpt>
      <trkpt lat="44.51854" lon="0.70087">
        <ele>178</ele>
        <time>2015-12-27T09:30:24Z</time>
      </trkpt>
      <trkpt lat="44.51854" lon="0.70087">
        <ele>178</ele>
        <time>2015-12-27T09:30:27Z</time>
      </trkpt>
      <trkpt lat="44.51854" lon="0.70087">
        <ele>178</ele>
        <time>2015-12-27T09:30:30Z</time>
      </trkpt>
      <trkpt lat="44.51854" lon="0.70087">
        <ele>178</ele>
        <time>2015-12-27T09:30:33Z</time>
      </trkpt>
      <trkpt lat="44.51854" lon="0.70087">
        <ele>178</ele>
        <time>2015-12-27T09:30:36Z</time>
      </trkpt>
      <trkpt lat="44.51854" lon="0.70087">
        <ele>178</ele>
        <time>2015-12-27T09:30:39Z</time>
      </trkpt>
      <trkpt lat="44.51854" lon="0.70087">
        <ele>178</ele>
        <time>2015-12-27T09:30:42Z</time>
      </trkpt>
      <trkpt lat="44.51854" lon="0.70087">
        <ele>179</ele>
        <time>2015-12-27T09:30:45Z</time>
      </trkpt>
      <trkpt lat="44.51854" lon="0.70087">
        <ele>179</ele>
        <time>2015-12-27T09:30:48Z</time>
      </trkpt>
      <trkpt lat="44.51854" lon="0.70087">
        <ele>179</ele>
        <time>2015-12-27T09:30:51Z</time>
      </trkpt>
      <trkpt lat="44.51854" lon="0.70087">
        <ele>179</ele>
        <time>2015-12-27T09:30:54Z</time>
      </trkpt>
      <trkpt lat="44.51854" lon="0.70087">
        <ele>179</ele>
        <time>2015-12-27T09:30:57Z</time>
      </trkpt>
      <trkpt lat="44.51854" lon="0.70087">
        <ele>179</ele>
        <time>2015-12-27T09:31:00Z</time>
      </trkpt>
      <trkpt lat="44.51854" lon="0.70087">
        <ele>179</ele>
        <time>2015-12-27T09:31:03Z</time>
      </trkpt>
      <trkpt lat="44.51854" lon="0.70087">
        <ele>179</ele>
        <time>2015-12-27T09:31:06Z</time>
      </trkpt>
      <trkpt lat="44.51854" lon="0.70087">
        <ele>179</ele>
        <time>2015-12-27T09:31:09Z</time>
      </trkpt>
      <trkpt lat="44.51854" lon="0.70087">
        <ele>179</ele>
        <time>2015-12-27T09:31:12Z</time>
      </trkpt>
      <trkpt lat="44.51854" lon="0.70087">
        <ele>179</ele>
        <time>2015-12-27T09:31:17Z</time>
      </trkpt>
      <trkpt lat="44.51854" lon="0.70087">
        <ele>179</ele>
        <time>2015-12-27T09:31:18Z</time>
      </trkpt>
      <trkpt lat="44.51854" lon="0.70087">
        <ele>179</ele>
        <time>2015-12-27T09:31:21Z</time>
      </trkpt>
      <trkpt lat="44.51854" lon="0.70087">
        <ele>179</ele>
        <time>2015-12-27T09:31:25Z</time>
      </trkpt>
      <trkpt lat="44.51854" lon="0.70087">
        <ele>179</ele>
        <time>2015-12-27T09:31:29Z</time>
      </trkpt>
      <trkpt lat="44.51854" lon="0.70087">
        <ele>179</ele>
        <time>2015-12-27T09:31:30Z</time>
      </trkpt>
      <trkpt lat="44.51854" lon="0.70087">
        <ele>179</ele>
        <time>2015-12-27T09:31:33Z</time>
      </trkpt>
      <trkpt lat="44.51854" lon="0.70087">
        <ele>179</ele>
        <time>2015-12-27T09:31:36Z</time>
      </trkpt>
      <trkpt lat="44.51854" lon="0.70087">
        <ele>179</ele>
        <time>2015-12-27T09:31:39Z</time>
      </trkpt>
      <trkpt lat="44.51854" lon="0.70087">
        <ele>179</ele>
        <time>2015-12-27T09:31:42Z</time>
      </trkpt>
      <trkpt lat="44.51854" lon="0.70087">
        <ele>179</ele>
        <time>2015-12-27T09:31:45Z</time>
      </trkpt>
      <trkpt lat="44.51854" lon="0.70087">
        <ele>179</ele>
        <time>2015-12-27T09:31:48Z</time>
      </trkpt>
      <trkpt lat="44.51854" lon="0.70087">
        <ele>179</ele>
        <time>2015-12-27T09:31:51Z</time>
      </trkpt>
      <trkpt lat="44.51854" lon="0.70087">
        <ele>179</ele>
        <time>2015-12-27T09:31:54Z</time>
      </trkpt>
      <trkpt lat="44.51854" lon="0.70087">
        <ele>179</ele>
        <time>2015-12-27T09:31:57Z</time>
      </trkpt>
      <trkpt lat="44.51854" lon="0.70087">
        <ele>179</ele>
        <time>2015-12-27T09:32:00Z</time>
      </trkpt>
      <trkpt lat="44.51854" lon="0.70087">
        <ele>179</ele>
        <time>2015-12-27T09:32:03Z</time>
      </trkpt>
      <trkpt lat="44.51854" lon="0.70087">
        <ele>179</ele>
        <time>2015-12-27T09:32:06Z</time>
      </trkpt>
      <trkpt lat="44.51854" lon="0.70087">
        <ele>179</ele>
        <time>2015-12-27T09:32:09Z</time>
      </trkpt>
      <trkpt lat="44.51854" lon="0.70087">
        <ele>179</ele>
        <time>2015-12-27T09:32:12Z</time>
      </trkpt>
      <trkpt lat="44.51854" lon="0.70087">
        <ele>179</ele>
        <time>2015-12-27T09:32:15Z</time>
      </trkpt>
      <trkpt lat="44.51854" lon="0.70087">
        <ele>179</ele>
        <time>2015-12-27T09:32:18Z</time>
      </trkpt>
      <trkpt lat="44.51854" lon="0.70087">
        <ele>179</ele>
        <time>2015-12-27T09:32:21Z</time>
      </trkpt>
      <trkpt lat="44.51854" lon="0.70087">
        <ele>179</ele>
        <time>2015-12-27T09:32:24Z</time>
      </trkpt>
      <trkpt lat="44.51854" lon="0.70087">
        <ele>179</ele>
        <time>2015-12-27T09:32:27Z</time>
      </trkpt>
      <trkpt lat="44.51854" lon="0.70087">
        <ele>179</ele>
        <time>2015-12-27T09:32:30Z</time>
      </trkpt>
      <trkpt lat="44.51854" lon="0.70087">
        <ele>179</ele>
        <time>2015-12-27T09:32:33Z</time>
      </trkpt>
      <trkpt lat="44.51854" lon="0.70087">
        <ele>179</ele>
        <time>2015-12-27T09:32:36Z</time>
      </trkpt>
      <trkpt lat="44.51854" lon="0.70087">
        <ele>179</ele>
        <time>2015-12-27T09:32:39Z</time>
      </trkpt>
      <trkpt lat="44.51854" lon="0.70087">
        <ele>179</ele>
        <time>2015-12-27T09:32:42Z</time>
      </trkpt>
      <trkpt lat="44.51854" lon="0.70087">
        <ele>179</ele>
        <time>2015-12-27T09:32:45Z</time>
      </trkpt>
      <trkpt lat="44.51854" lon="0.70087">
        <ele>179</ele>
        <time>2015-12-27T09:32:48Z</time>
      </trkpt>
      <trkpt lat="44.51854" lon="0.70087">
        <ele>179</ele>
        <time>2015-12-27T09:32:53Z</time>
      </trkpt>
      <trkpt lat="44.51855" lon="0.70087">
        <ele>179</ele>
        <time>2015-12-27T09:32:54Z</time>
      </trkpt>
      <trkpt lat="44.51854" lon="0.70088">
        <ele>180</ele>
        <time>2015-12-27T09:32:59Z</time>
      </trkpt>
      <trkpt lat="44.51854" lon="0.70088">
        <ele>180</ele>
        <time>2015-12-27T09:33:02Z</time>
      </trkpt>
      <trkpt lat="44.51853" lon="0.70091">
        <ele>182</ele>
        <time>2015-12-27T09:33:05Z</time>
      </trkpt>
      <trkpt lat="44.51851" lon="0.70101">
        <ele>182</ele>
        <time>2015-12-27T09:33:10Z</time>
      </trkpt>
      <trkpt lat="44.51848" lon="0.70115">
        <ele>184</ele>
        <time>2015-12-27T09:33:15Z</time>
      </trkpt>
      <trkpt lat="44.51847" lon="0.70128">
        <ele>185</ele>
        <time>2015-12-27T09:33:20Z</time>
      </trkpt>
      <trkpt lat="44.51842" lon="0.70146">
        <ele>187</ele>
        <time>2015-12-27T09:33:27Z</time>
      </trkpt>
      <trkpt lat="44.5184" lon="0.70151">
        <ele>187</ele>
        <time>2015-12-27T09:33:30Z</time>
      </trkpt>
      <trkpt lat="44.51837" lon="0.70159">
        <ele>188</ele>
        <time>2015-12-27T09:33:35Z</time>
      </trkpt>
      <trkpt lat="44.51834" lon="0.70167">
        <ele>191</ele>
        <time>2015-12-27T09:33:40Z</time>
      </trkpt>
      <trkpt lat="44.51829" lon="0.70176">
        <ele>192</ele>
        <time>2015-12-27T09:33:45Z</time>
      </trkpt>
      <trkpt lat="44.51823" lon="0.70184">
        <ele>193</ele>
        <time>2015-12-27T09:33:50Z</time>
      </trkpt>
      <trkpt lat="44.51816" lon="0.70194">
        <ele>194</ele>
        <time>2015-12-27T09:33:55Z</time>
      </trkpt>
      <trkpt lat="44.51809" lon="0.70205">
        <ele>196</ele>
        <time>2015-12-27T09:34:00Z</time>
      </trkpt>
      <trkpt lat="44.51803" lon="0.70217">
        <ele>196</ele>
        <time>2015-12-27T09:34:05Z</time>
      </trkpt>
      <trkpt lat="44.51798" lon="0.70232">
        <ele>196</ele>
        <time>2015-12-27T09:34:10Z</time>
      </trkpt>
      <trkpt lat="44.5179" lon="0.70242">
        <ele>196</ele>
        <time>2015-12-27T09:34:15Z</time>
      </trkpt>
      <trkpt lat="44.51783" lon="0.70255">
        <ele>194</ele>
        <time>2015-12-27T09:34:20Z</time>
      </trkpt>
      <trkpt lat="44.51777" lon="0.70268">
        <ele>193</ele>
        <time>2015-12-27T09:34:25Z</time>
      </trkpt>
      <trkpt lat="44.51769" lon="0.70275">
        <ele>195</ele>
        <time>2015-12-27T09:34:30Z</time>
      </trkpt>
      <trkpt lat="44.51759" lon="0.70289">
        <ele>199</ele>
        <time>2015-12-27T09:34:37Z</time>
      </trkpt>
      <trkpt lat="44.51755" lon="0.70297">
        <ele>198</ele>
        <time>2015-12-27T09:34:40Z</time>
      </trkpt>
      <trkpt lat="44.51746" lon="0.70315">
        <ele>198</ele>
        <time>2015-12-27T09:34:47Z</time>
      </trkpt>
      <trkpt lat="44.51743" lon="0.70323">
        <ele>198</ele>
        <time>2015-12-27T09:34:50Z</time>
      </trkpt>
      <trkpt lat="44.51737" lon="0.70335">
        <ele>198</ele>
        <time>2015-12-27T09:34:55Z</time>
      </trkpt>
      <trkpt lat="44.51723" lon="0.70345">
        <ele>201</ele>
        <time>2015-12-27T09:35:00Z</time>
      </trkpt>
      <trkpt lat="44.5169" lon="0.70367">
        <ele>203</ele>
        <time>2015-12-27T09:35:06Z</time>
      </trkpt>
      <trkpt lat="44.51675" lon="0.70401">
        <ele>199</ele>
        <time>2015-12-27T09:35:10Z</time>
      </trkpt>
      <trkpt lat="44.51658" lon="0.70438">
        <ele>199</ele>
        <time>2015-12-27T09:35:15Z</time>
      </trkpt>
      <trkpt lat="44.51632" lon="0.70476">
        <ele>197</ele>
        <time>2015-12-27T09:35:23Z</time>
      </trkpt>
      <trkpt lat="44.51625" lon="0.70486">
        <ele>198</ele>
        <time>2015-12-27T09:35:26Z</time>
      </trkpt>
      <trkpt lat="44.51615" lon="0.70499">
        <ele>199</ele>
        <time>2015-12-27T09:35:30Z</time>
      </trkpt>
      <trkpt lat="44.51597" lon="0.70521">
        <ele>199</ele>
        <time>2015-12-27T09:35:35Z</time>
      </trkpt>
      <trkpt lat="44.51572" lon="0.70544">
        <ele>198</ele>
        <time>2015-12-27T09:35:40Z</time>
      </trkpt>
      <trkpt lat="44.51552" lon="0.70555">
        <ele>199</ele>
        <time>2015-12-27T09:35:45Z</time>
      </trkpt>
      <trkpt lat="44.51536" lon="0.70565">
        <ele>197</ele>
        <time>2015-12-27T09:35:50Z</time>
      </trkpt>
      <trkpt lat="44.51515" lon="0.70573">
        <ele>195</ele>
        <time>2015-12-27T09:35:55Z</time>
      </trkpt>
      <trkpt lat="44.51491" lon="0.70585">
        <ele>194</ele>
        <time>2015-12-27T09:36:00Z</time>
      </trkpt>
      <trkpt lat="44.51463" lon="0.7059">
        <ele>196</ele>
        <time>2015-12-27T09:36:05Z</time>
      </trkpt>
      <trkpt lat="44.51437" lon="0.70595">
        <ele>195</ele>
        <time>2015-12-27T09:36:10Z</time>
      </trkpt>
      <trkpt lat="44.51411" lon="0.706">
        <ele>194</ele>
        <time>2015-12-27T09:36:15Z</time>
      </trkpt>
      <trkpt lat="44.51385" lon="0.70596">
        <ele>196</ele>
        <time>2015-12-27T09:36:20Z</time>
      </trkpt>
      <trkpt lat="44.51361" lon="0.70594">
        <ele>198</ele>
        <time>2015-12-27T09:36:25Z</time>
      </trkpt>
      <trkpt lat="44.5134" lon="0.70592">
        <ele>197</ele>
        <time>2015-12-27T09:36:30Z</time>
      </trkpt>
      <trkpt lat="44.5132" lon="0.70588">
        <ele>200</ele>
        <time>2015-12-27T09:36:35Z</time>
      </trkpt>
      <trkpt lat="44.51303" lon="0.70585">
        <ele>202</ele>
        <time>2015-12-27T09:36:40Z</time>
      </trkpt>
      <trkpt lat="44.51288" lon="0.70582">
        <ele>204</ele>
        <time>2015-12-27T09:36:45Z</time>
      </trkpt>
      <trkpt lat="44.51272" lon="0.70579">
        <ele>205</ele>
        <time>2015-12-27T09:36:50Z</time>
      </trkpt>
      <trkpt lat="44.51257" lon="0.70576">
        <ele>206</ele>
        <time>2015-12-27T09:36:55Z</time>
      </trkpt>
      <trkpt lat="44.51247" lon="0.70575">
        <ele>207</ele>
        <time>2015-12-27T09:37:00Z</time>
      </trkpt>
      <trkpt lat="44.51234" lon="0.70574">
        <ele>207</ele>
        <time>2015-12-27T09:37:05Z</time>
      </trkpt>
      <trkpt lat="44.51221" lon="0.70572">
        <ele>207</ele>
        <time>2015-12-27T09:37:10Z</time>
      </trkpt>
      <trkpt lat="44.51207" lon="0.70571">
        <ele>208</ele>
        <time>2015-12-27T09:37:15Z</time>
      </trkpt>
      <trkpt lat="44.5119" lon="0.70566">
        <ele>208</ele>
        <time>2015-12-27T09:37:20Z</time>
      </trkpt>
      <trkpt lat="44.51171" lon="0.70563">
        <ele>209</ele>
        <time>2015-12-27T09:37:25Z</time>
      </trkpt>
      <trkpt lat="44.51152" lon="0.7056">
        <ele>208</ele>
        <time>2015-12-27T09:37:30Z</time>
      </trkpt>
      <trkpt lat="44.51134" lon="0.70559">
        <ele>208</ele>
        <time>2015-12-27T09:37:35Z</time>
      </trkpt>
      <trkpt lat="44.51113" lon="0.70559">
        <ele>208</ele>
        <time>2015-12-27T09:37:40Z</time>
      </trkpt>
      <trkpt lat="44.5109" lon="0.70561">
        <ele>209</ele>
        <time>2015-12-27T09:37:45Z</time>
      </trkpt>
      <trkpt lat="44.5107" lon="0.70567">
        <ele>210</ele>
        <time>2015-12-27T09:37:50Z</time>
      </trkpt>
      <trkpt lat="44.51051" lon="0.70574">
        <ele>210</ele>
        <time>2015-12-27T09:37:55Z</time>
      </trkpt>
      <trkpt lat="44.51031" lon="0.70581">
        <ele>210</ele>
        <time>2015-12-27T09:38:00Z</time>
      </trkpt>
      <trkpt lat="44.51012" lon="0.70587">
        <ele>207</ele>
        <time>2015-12-27T09:38:05Z</time>
      </trkpt>
      <trkpt lat="44.5099" lon="0.70595">
        <ele>208</ele>
        <time>2015-12-27T09:38:10Z</time>
      </trkpt>
      <trkpt lat="44.5097" lon="0.70603">
        <ele>209</ele>
        <time>2015-12-27T09:38:15Z</time>
      </trkpt>
      <trkpt lat="44.5095" lon="0.70614">
        <ele>209</ele>
        <time>2015-12-27T09:38:20Z</time>
      </trkpt>
      <trkpt lat="44.5093" lon="0.70622">
        <ele>210</ele>
        <time>2015-12-27T09:38:25Z</time>
      </trkpt>
      <trkpt lat="44.5091" lon="0.70628">
        <ele>210</ele>
        <time>2015-12-27T09:38:30Z</time>
      </trkpt>
      <trkpt lat="44.50892" lon="0.70636">
        <ele>211</ele>
        <time>2015-12-27T09:38:35Z</time>
      </trkpt>
      <trkpt lat="44.50874" lon="0.70646">
        <ele>211</ele>
        <time>2015-12-27T09:38:40Z</time>
      </trkpt>
      <trkpt lat="44.50855" lon="0.70651">
        <ele>211</ele>
        <time>2015-12-27T09:38:45Z</time>
      </trkpt>
      <trkpt lat="44.50836" lon="0.70658">
        <ele>211</ele>
        <time>2015-12-27T09:38:50Z</time>
      </trkpt>
      <trkpt lat="44.50817" lon="0.70664">
        <ele>212</ele>
        <time>2015-12-27T09:38:55Z</time>
      </trkpt>
      <trkpt lat="44.50794" lon="0.70672">
        <ele>211</ele>
        <time>2015-12-27T09:39:00Z</time>
      </trkpt>
      <trkpt lat="44.50773" lon="0.70682">
        <ele>210</ele>
        <time>2015-12-27T09:39:05Z</time>
      </trkpt>
      <trkpt lat="44.50751" lon="0.70694">
        <ele>210</ele>
        <time>2015-12-27T09:39:10Z</time>
      </trkpt>
      <trkpt lat="44.50727" lon="0.70707">
        <ele>210</ele>
        <time>2015-12-27T09:39:15Z</time>
      </trkpt>
      <trkpt lat="44.50703" lon="0.7072">
        <ele>211</ele>
        <time>2015-12-27T09:39:20Z</time>
      </trkpt>
      <trkpt lat="44.50678" lon="0.70732">
        <ele>211</ele>
        <time>2015-12-27T09:39:25Z</time>
      </trkpt>
      <trkpt lat="44.50653" lon="0.70744">
        <ele>211</ele>
        <time>2015-12-27T09:39:30Z</time>
      </trkpt>
      <trkpt lat="44.50628" lon="0.70754">
        <ele>209</ele>
        <time>2015-12-27T09:39:35Z</time>
      </trkpt>
      <trkpt lat="44.50597" lon="0.70762">
        <ele>208</ele>
        <time>2015-12-27T09:39:40Z</time>
      </trkpt>
      <trkpt lat="44.50568" lon="0.7077">
        <ele>207</ele>
        <time>2015-12-27T09:39:45Z</time>
      </trkpt>
      <trkpt lat="44.50545" lon="0.70771">
        <ele>208</ele>
        <time>2015-12-27T09:39:50Z</time>
      </trkpt>
      <trkpt lat="44.50512" lon="0.70775">
        <ele>205</ele>
        <time>2015-12-27T09:39:57Z</time>
      </trkpt>
      <trkpt lat="44.50502" lon="0.70779">
        <ele>204</ele>
        <time>2015-12-27T09:40:00Z</time>
      </trkpt>
      <trkpt lat="44.50489" lon="0.70782">
        <ele>202</ele>
        <time>2015-12-27T09:40:05Z</time>
      </trkpt>
      <trkpt lat="44.50461" lon="0.7079">
        <ele>204</ele>
        <time>2015-12-27T09:40:10Z</time>
      </trkpt>
      <trkpt lat="44.50429" lon="0.70812">
        <ele>203</ele>
        <time>2015-12-27T09:40:15Z</time>
      </trkpt>
      <trkpt lat="44.50379" lon="0.70855">
        <ele>194</ele>
        <time>2015-12-27T09:40:24Z</time>
      </trkpt>
      <trkpt lat="44.50374" lon="0.70859">
        <ele>193</ele>
        <time>2015-12-27T09:40:25Z</time>
      </trkpt>
      <trkpt lat="44.50346" lon="0.70884">
        <ele>189</ele>
        <time>2015-12-27T09:40:30Z</time>
      </trkpt>
      <trkpt lat="44.50316" lon="0.70912">
        <ele>187</ele>
        <time>2015-12-27T09:40:35Z</time>
      </trkpt>
      <trkpt lat="44.5029" lon="0.7096">
        <ele>182</ele>
        <time>2015-12-27T09:40:40Z</time>
      </trkpt>
      <trkpt lat="44.50261" lon="0.71">
        <ele>179</ele>
        <time>2015-12-27T09:40:45Z</time>
      </trkpt>
      <trkpt lat="44.50233" lon="0.71031">
        <ele>176</ele>
        <time>2015-12-27T09:40:50Z</time>
      </trkpt>
      <trkpt lat="44.50193" lon="0.71057">
        <ele>172</ele>
        <time>2015-12-27T09:40:55Z</time>
      </trkpt>
      <trkpt lat="44.50157" lon="0.71067">
        <ele>168</ele>
        <time>2015-12-27T09:41:00Z</time>
      </trkpt>
      <trkpt lat="44.50119" lon="0.71071">
        <ele>163</ele>
        <time>2015-12-27T09:41:05Z</time>
      </trkpt>
      <trkpt lat="44.50089" lon="0.7107">
        <ele>161</ele>
        <time>2015-12-27T09:41:10Z</time>
      </trkpt>
      <trkpt lat="44.50056" lon="0.71068">
        <ele>158</ele>
        <time>2015-12-27T09:41:15Z</time>
      </trkpt>
      <trkpt lat="44.50022" lon="0.71066">
        <ele>158</ele>
        <time>2015-12-27T09:41:20Z</time>
      </trkpt>
      <trkpt lat="44.49989" lon="0.71067">
        <ele>156</ele>
        <time>2015-12-27T09:41:25Z</time>
      </trkpt>
      <trkpt lat="44.49957" lon="0.71069">
        <ele>155</ele>
        <time>2015-12-27T09:41:30Z</time>
      </trkpt>
      <trkpt lat="44.49927" lon="0.71074">
        <ele>155</ele>
        <time>2015-12-27T09:41:35Z</time>
      </trkpt>
      <trkpt lat="44.49895" lon="0.71064">
        <ele>154</ele>
        <time>2015-12-27T09:41:40Z</time>
      </trkpt>
      <trkpt lat="44.49862" lon="0.71045">
        <ele>150</ele>
        <time>2015-12-27T09:41:45Z</time>
      </trkpt>
      <trkpt lat="44.49802" lon="0.71003">
        <ele>154</ele>
        <time>2015-12-27T09:41:54Z</time>
      </trkpt>
      <trkpt lat="44.49795" lon="0.70999">
        <ele>154</ele>
        <time>2015-12-27T09:41:55Z</time>
      </trkpt>
      <trkpt lat="44.49744" lon="0.70957">
        <ele>147</ele>
        <time>2015-12-27T09:42:04Z</time>
      </trkpt>
      <trkpt lat="44.49737" lon="0.70954">
        <ele>146</ele>
        <time>2015-12-27T09:42:05Z</time>
      </trkpt>
      <trkpt lat="44.49709" lon="0.70934">
        <ele>145</ele>
        <time>2015-12-27T09:42:10Z</time>
      </trkpt>
      <trkpt lat="44.49661" lon="0.70899">
        <ele>145</ele>
        <time>2015-12-27T09:42:19Z</time>
      </trkpt>
      <trkpt lat="44.49655" lon="0.70896">
        <ele>145</ele>
        <time>2015-12-27T09:42:20Z</time>
      </trkpt>
      <trkpt lat="44.49628" lon="0.7088">
        <ele>146</ele>
        <time>2015-12-27T09:42:25Z</time>
      </trkpt>
      <trkpt lat="44.49588" lon="0.70856">
        <ele>144</ele>
        <time>2015-12-27T09:42:33Z</time>
      </trkpt>
      <trkpt lat="44.49578" lon="0.70847">
        <ele>146</ele>
        <time>2015-12-27T09:42:35Z</time>
      </trkpt>
      <trkpt lat="44.4955" lon="0.70828">
        <ele>146</ele>
        <time>2015-12-27T09:42:40Z</time>
      </trkpt>
      <trkpt lat="44.49526" lon="0.70798">
        <ele>147</ele>
        <time>2015-12-27T09:42:49Z</time>
      </trkpt>
      <trkpt lat="44.49524" lon="0.70795">
        <ele>147</ele>
        <time>2015-12-27T09:42:50Z</time>
      </trkpt>
      <trkpt lat="44.49515" lon="0.7078">
        <ele>149</ele>
        <time>2015-12-27T09:42:55Z</time>
      </trkpt>
      <trkpt lat="44.49495" lon="0.70754">
        <ele>149</ele>
        <time>2015-12-27T09:43:00Z</time>
      </trkpt>
      <trkpt lat="44.49459" lon="0.70722">
        <ele>147</ele>
        <time>2015-12-27T09:43:08Z</time>
      </trkpt>
      <trkpt lat="44.49432" lon="0.70685">
        <ele>143</ele>
        <time>2015-12-27T09:43:13Z</time>
      </trkpt>
      <trkpt lat="44.49418" lon="0.70666">
        <ele>144</ele>
        <time>2015-12-27T09:43:15Z</time>
      </trkpt>
      <trkpt lat="44.4939" lon="0.70609">
        <ele>141</ele>
        <time>2015-12-27T09:43:22Z</time>
      </trkpt>
      <trkpt lat="44.49376" lon="0.70579">
        <ele>136</ele>
        <time>2015-12-27T09:43:25Z</time>
      </trkpt>
      <trkpt lat="44.49333" lon="0.70513">
        <ele>127</ele>
        <time>2015-12-27T09:43:31Z</time>
      </trkpt>
      <trkpt lat="44.4931" lon="0.70464">
        <ele>124</ele>
        <time>2015-12-27T09:43:35Z</time>
      </trkpt>
      <trkpt lat="44.49289" lon="0.70374">
        <ele>118</ele>
        <time>2015-12-27T09:43:43Z</time>
      </trkpt>
      <trkpt lat="44.49286" lon="0.70351">
        <ele>115</ele>
        <time>2015-12-27T09:43:45Z</time>
      </trkpt>
      <trkpt lat="44.49267" lon="0.70288">
        <ele>110</ele>
        <time>2015-12-27T09:43:50Z</time>
      </trkpt>
      <trkpt lat="44.49252" lon="0.70227">
        <ele>108</ele>
        <time>2015-12-27T09:43:55Z</time>
      </trkpt>
      <trkpt lat="44.49237" lon="0.70138">
        <ele>106</ele>
        <time>2015-12-27T09:44:02Z</time>
      </trkpt>
      <trkpt lat="44.49236" lon="0.70099">
        <ele>102</ele>
        <time>2015-12-27T09:44:05Z</time>
      </trkpt>
      <trkpt lat="44.49211" lon="0.70025">
        <ele>98</ele>
        <time>2015-12-27T09:44:11Z</time>
      </trkpt>
      <trkpt lat="44.4919" lon="0.69985">
        <ele>95</ele>
        <time>2015-12-27T09:44:15Z</time>
      </trkpt>
      <trkpt lat="44.4916" lon="0.69947">
        <ele>94</ele>
        <time>2015-12-27T09:44:20Z</time>
      </trkpt>
      <trkpt lat="44.49133" lon="0.69923">
        <ele>91</ele>
        <time>2015-12-27T09:44:25Z</time>
      </trkpt>
      <trkpt lat="44.49126" lon="0.69911">
        <ele>92</ele>
        <time>2015-12-27T09:44:30Z</time>
      </trkpt>
      <trkpt lat="44.49126" lon="0.69911">
        <ele>92</ele>
        <time>2015-12-27T09:44:35Z</time>
      </trkpt>
      <trkpt lat="44.49126" lon="0.69911">
        <ele>92</ele>
        <time>2015-12-27T09:44:38Z</time>
      </trkpt>
      <trkpt lat="44.49127" lon="0.6991">
        <ele>91</ele>
        <time>2015-12-27T09:44:41Z</time>
      </trkpt>
      <trkpt lat="44.49127" lon="0.69911">
        <ele>91</ele>
        <time>2015-12-27T09:44:44Z</time>
      </trkpt>
      <trkpt lat="44.49127" lon="0.69911">
        <ele>91</ele>
        <time>2015-12-27T09:44:47Z</time>
      </trkpt>
      <trkpt lat="44.49127" lon="0.69911">
        <ele>91</ele>
        <time>2015-12-27T09:44:50Z</time>
      </trkpt>
      <trkpt lat="44.49127" lon="0.69911">
        <ele>91</ele>
        <time>2015-12-27T09:44:55Z</time>
      </trkpt>
      <trkpt lat="44.49127" lon="0.69911">
        <ele>91</ele>
        <time>2015-12-27T09:44:56Z</time>
      </trkpt>
      <trkpt lat="44.49127" lon="0.69911">
        <ele>90</ele>
        <time>2015-12-27T09:44:59Z</time>
      </trkpt>
      <trkpt lat="44.49129" lon="0.69909">
        <ele>89</ele>
        <time>2015-12-27T09:45:03Z</time>
      </trkpt>
      <trkpt lat="44.4913" lon="0.6991">
        <ele>89</ele>
        <time>2015-12-27T09:45:07Z</time>
      </trkpt>
      <trkpt lat="44.4913" lon="0.69909">
        <ele>89</ele>
        <time>2015-12-27T09:45:10Z</time>
      </trkpt>
      <trkpt lat="44.4913" lon="0.69909">
        <ele>89</ele>
        <time>2015-12-27T09:45:13Z</time>
      </trkpt>
      <trkpt lat="44.4913" lon="0.69909">
        <ele>90</ele>
        <time>2015-12-27T09:45:16Z</time>
      </trkpt>
      <trkpt lat="44.4913" lon="0.69909">
        <ele>90</ele>
        <time>2015-12-27T09:45:19Z</time>
      </trkpt>
      <trkpt lat="44.4913" lon="0.69909">
        <ele>90</ele>
        <time>2015-12-27T09:45:22Z</time>
      </trkpt>
      <trkpt lat="44.4913" lon="0.69909">
        <ele>90</ele>
        <time>2015-12-27T09:45:25Z</time>
      </trkpt>
      <trkpt lat="44.4913" lon="0.69909">
        <ele>90</ele>
        <time>2015-12-27T09:45:28Z</time>
      </trkpt>
      <trkpt lat="44.4913" lon="0.69909">
        <ele>90</ele>
        <time>2015-12-27T09:45:31Z</time>
      </trkpt>
      <trkpt lat="44.4913" lon="0.69909">
        <ele>90</ele>
        <time>2015-12-27T09:45:34Z</time>
      </trkpt>
      <trkpt lat="44.4913" lon="0.69909">
        <ele>90</ele>
        <time>2015-12-27T09:45:39Z</time>
      </trkpt>
      <trkpt lat="44.4913" lon="0.69909">
        <ele>90</ele>
        <time>2015-12-27T09:45:40Z</time>
      </trkpt>
      <trkpt lat="44.4913" lon="0.69909">
        <ele>90</ele>
        <time>2015-12-27T09:45:44Z</time>
      </trkpt>
      <trkpt lat="44.4913" lon="0.69909">
        <ele>90</ele>
        <time>2015-12-27T09:45:46Z</time>
      </trkpt>
      <trkpt lat="44.4913" lon="0.69909">
        <ele>90</ele>
        <time>2015-12-27T09:45:49Z</time>
      </trkpt>
      <trkpt lat="44.4913" lon="0.69909">
        <ele>90</ele>
        <time>2015-12-27T09:45:52Z</time>
      </trkpt>
      <trkpt lat="44.4913" lon="0.69909">
        <ele>90</ele>
        <time>2015-12-27T09:45:55Z</time>
      </trkpt>
      <trkpt lat="44.4913" lon="0.69909">
        <ele>90</ele>
        <time>2015-12-27T09:45:58Z</time>
      </trkpt>
      <trkpt lat="44.49129" lon="0.69907">
        <ele>90</ele>
        <time>2015-12-27T09:46:01Z</time>
      </trkpt>
      <trkpt lat="44.49125" lon="0.69906">
        <ele>89</ele>
        <time>2015-12-27T09:46:06Z</time>
      </trkpt>
      <trkpt lat="44.49111" lon="0.69906">
        <ele>89</ele>
        <time>2015-12-27T09:46:15Z</time>
      </trkpt>
      <trkpt lat="44.49111" lon="0.69905">
        <ele>90</ele>
        <time>2015-12-27T09:46:16Z</time>
      </trkpt>
      <trkpt lat="44.4911" lon="0.69905">
        <ele>91</ele>
        <time>2015-12-27T09:46:19Z</time>
      </trkpt>
      <trkpt lat="44.4911" lon="0.69904">
        <ele>91</ele>
        <time>2015-12-27T09:46:22Z</time>
      </trkpt>
      <trkpt lat="44.49108" lon="0.69905">
        <ele>91</ele>
        <time>2015-12-27T09:46:25Z</time>
      </trkpt>
      <trkpt lat="44.49109" lon="0.69907">
        <ele>91</ele>
        <time>2015-12-27T09:46:30Z</time>
      </trkpt>
      <trkpt lat="44.49111" lon="0.69908">
        <ele>91</ele>
        <time>2015-12-27T09:46:33Z</time>
      </trkpt>
      <trkpt lat="44.49111" lon="0.69909">
        <ele>91</ele>
        <time>2015-12-27T09:46:38Z</time>
      </trkpt>
      <trkpt lat="44.49111" lon="0.69909">
        <ele>91</ele>
        <time>2015-12-27T09:46:41Z</time>
      </trkpt>
      <trkpt lat="44.4911" lon="0.69909">
        <ele>91</ele>
        <time>2015-12-27T09:46:44Z</time>
      </trkpt>
      <trkpt lat="44.4911" lon="0.69909">
        <ele>91</ele>
        <time>2015-12-27T09:46:47Z</time>
      </trkpt>
      <trkpt lat="44.4911" lon="0.69909">
        <ele>91</ele>
        <time>2015-12-27T09:46:50Z</time>
      </trkpt>
      <trkpt lat="44.4911" lon="0.69909">
        <ele>91</ele>
        <time>2015-12-27T09:46:53Z</time>
      </trkpt>
      <trkpt lat="44.4911" lon="0.69909">
        <ele>91</ele>
        <time>2015-12-27T09:46:56Z</time>
      </trkpt>
      <trkpt lat="44.4911" lon="0.69909">
        <ele>91</ele>
        <time>2015-12-27T09:46:59Z</time>
      </trkpt>
      <trkpt lat="44.4911" lon="0.69909">
        <ele>91</ele>
        <time>2015-12-27T09:47:02Z</time>
      </trkpt>
      <trkpt lat="44.4911" lon="0.69909">
        <ele>91</ele>
        <time>2015-12-27T09:47:05Z</time>
      </trkpt>
      <trkpt lat="44.4911" lon="0.69909">
        <ele>91</ele>
        <time>2015-12-27T09:47:08Z</time>
      </trkpt>
      <trkpt lat="44.4911" lon="0.69909">
        <ele>91</ele>
        <time>2015-12-27T09:47:11Z</time>
      </trkpt>
      <trkpt lat="44.4911" lon="0.69909">
        <ele>91</ele>
        <time>2015-12-27T09:47:14Z</time>
      </trkpt>
      <trkpt lat="44.4911" lon="0.69909">
        <ele>91</ele>
        <time>2015-12-27T09:47:17Z</time>
      </trkpt>
      <trkpt lat="44.4911" lon="0.69909">
        <ele>91</ele>
        <time>2015-12-27T09:47:20Z</time>
      </trkpt>
      <trkpt lat="44.4911" lon="0.69909">
        <ele>91</ele>
        <time>2015-12-27T09:47:23Z</time>
      </trkpt>
      <trkpt lat="44.4911" lon="0.69909">
        <ele>91</ele>
        <time>2015-12-27T09:47:26Z</time>
      </trkpt>
      <trkpt lat="44.49111" lon="0.6991">
        <ele>92</ele>
        <time>2015-12-27T09:47:29Z</time>
      </trkpt>
      <trkpt lat="44.49111" lon="0.6991">
        <ele>91</ele>
        <time>2015-12-27T09:47:32Z</time>
      </trkpt>
      <trkpt lat="44.49111" lon="0.69911">
        <ele>92</ele>
        <time>2015-12-27T09:47:35Z</time>
      </trkpt>
      <trkpt lat="44.49111" lon="0.6991">
        <ele>92</ele>
        <time>2015-12-27T09:47:38Z</time>
      </trkpt>
      <trkpt lat="44.49112" lon="0.6991">
        <ele>92</ele>
        <time>2015-12-27T09:47:41Z</time>
      </trkpt>
      <trkpt lat="44.49112" lon="0.6991">
        <ele>92</ele>
        <time>2015-12-27T09:47:44Z</time>
      </trkpt>
      <trkpt lat="44.49112" lon="0.6991">
        <ele>92</ele>
        <time>2015-12-27T09:47:47Z</time>
      </trkpt>
      <trkpt lat="44.49112" lon="0.6991">
        <ele>92</ele>
        <time>2015-12-27T09:47:50Z</time>
      </trkpt>
      <trkpt lat="44.49112" lon="0.6991">
        <ele>92</ele>
        <time>2015-12-27T09:47:53Z</time>
      </trkpt>
      <trkpt lat="44.49112" lon="0.6991">
        <ele>92</ele>
        <time>2015-12-27T09:47:56Z</time>
      </trkpt>
      <trkpt lat="44.49112" lon="0.6991">
        <ele>92</ele>
        <time>2015-12-27T09:47:59Z</time>
      </trkpt>
      <trkpt lat="44.49112" lon="0.6991">
        <ele>92</ele>
        <time>2015-12-27T09:48:02Z</time>
      </trkpt>
      <trkpt lat="44.49112" lon="0.6991">
        <ele>92</ele>
        <time>2015-12-27T09:48:05Z</time>
      </trkpt>
      <trkpt lat="44.49112" lon="0.6991">
        <ele>92</ele>
        <time>2015-12-27T09:48:08Z</time>
      </trkpt>
      <trkpt lat="44.49112" lon="0.6991">
        <ele>92</ele>
        <time>2015-12-27T09:48:11Z</time>
      </trkpt>
      <trkpt lat="44.49112" lon="0.6991">
        <ele>92</ele>
        <time>2015-12-27T09:48:14Z</time>
      </trkpt>
      <trkpt lat="44.49112" lon="0.6991">
        <ele>92</ele>
        <time>2015-12-27T09:48:17Z</time>
      </trkpt>
      <trkpt lat="44.49112" lon="0.69911">
        <ele>92</ele>
        <time>2015-12-27T09:48:20Z</time>
      </trkpt>
      <trkpt lat="44.49112" lon="0.69911">
        <ele>92</ele>
        <time>2015-12-27T09:48:23Z</time>
      </trkpt>
      <trkpt lat="44.49112" lon="0.69911">
        <ele>92</ele>
        <time>2015-12-27T09:48:26Z</time>
      </trkpt>
      <trkpt lat="44.49112" lon="0.69911">
        <ele>92</ele>
        <time>2015-12-27T09:48:29Z</time>
      </trkpt>
      <trkpt lat="44.49112" lon="0.69911">
        <ele>92</ele>
        <time>2015-12-27T09:48:32Z</time>
      </trkpt>
      <trkpt lat="44.49113" lon="0.6991">
        <ele>92</ele>
        <time>2015-12-27T09:48:35Z</time>
      </trkpt>
      <trkpt lat="44.49115" lon="0.6991">
        <ele>92</ele>
        <time>2015-12-27T09:48:40Z</time>
      </trkpt>
      <trkpt lat="44.49115" lon="0.69911">
        <ele>92</ele>
        <time>2015-12-27T09:48:45Z</time>
      </trkpt>
      <trkpt lat="44.49114" lon="0.6991">
        <ele>92</ele>
        <time>2015-12-27T09:48:48Z</time>
      </trkpt>
      <trkpt lat="44.49115" lon="0.69909">
        <ele>92</ele>
        <time>2015-12-27T09:48:53Z</time>
      </trkpt>
      <trkpt lat="44.49115" lon="0.69909">
        <ele>92</ele>
        <time>2015-12-27T09:48:56Z</time>
      </trkpt>
      <trkpt lat="44.49115" lon="0.69908">
        <ele>92</ele>
        <time>2015-12-27T09:48:59Z</time>
      </trkpt>
      <trkpt lat="44.49115" lon="0.69908">
        <ele>92</ele>
        <time>2015-12-27T09:49:02Z</time>
      </trkpt>
      <trkpt lat="44.49115" lon="0.69908">
        <ele>92</ele>
        <time>2015-12-27T09:49:05Z</time>
      </trkpt>
      <trkpt lat="44.49115" lon="0.69908">
        <ele>92</ele>
        <time>2015-12-27T09:49:08Z</time>
      </trkpt>
      <trkpt lat="44.49115" lon="0.69908">
        <ele>92</ele>
        <time>2015-12-27T09:49:11Z</time>
      </trkpt>
      <trkpt lat="44.49115" lon="0.69908">
        <ele>92</ele>
        <time>2015-12-27T09:49:16Z</time>
      </trkpt>
      <trkpt lat="44.49115" lon="0.69908">
        <ele>92</ele>
        <time>2015-12-27T09:49:17Z</time>
      </trkpt>
      <trkpt lat="44.49115" lon="0.69908">
        <ele>92</ele>
        <time>2015-12-27T09:49:20Z</time>
      </trkpt>
      <trkpt lat="44.49115" lon="0.69908">
        <ele>92</ele>
        <time>2015-12-27T09:49:23Z</time>
      </trkpt>
      <trkpt lat="44.49115" lon="0.69908">
        <ele>92</ele>
        <time>2015-12-27T09:49:26Z</time>
      </trkpt>
      <trkpt lat="44.49115" lon="0.69908">
        <ele>92</ele>
        <time>2015-12-27T09:49:29Z</time>
      </trkpt>
      <trkpt lat="44.49115" lon="0.69908">
        <ele>92</ele>
        <time>2015-12-27T09:49:32Z</time>
      </trkpt>
      <trkpt lat="44.49115" lon="0.69908">
        <ele>92</ele>
        <time>2015-12-27T09:49:35Z</time>
      </trkpt>
      <trkpt lat="44.49115" lon="0.69908">
        <ele>92</ele>
        <time>2015-12-27T09:49:40Z</time>
      </trkpt>
      <trkpt lat="44.49115" lon="0.69908">
        <ele>92</ele>
        <time>2015-12-27T09:49:41Z</time>
      </trkpt>
      <trkpt lat="44.49113" lon="0.69908">
        <ele>94</ele>
        <time>2015-12-27T09:49:44Z</time>
      </trkpt>
      <trkpt lat="44.49113" lon="0.69909">
        <ele>92</ele>
        <time>2015-12-27T09:49:49Z</time>
      </trkpt>
      <trkpt lat="44.49112" lon="0.69909">
        <ele>92</ele>
        <time>2015-12-27T09:49:52Z</time>
      </trkpt>
      <trkpt lat="44.49112" lon="0.69909">
        <ele>93</ele>
        <time>2015-12-27T09:49:55Z</time>
      </trkpt>
      <trkpt lat="44.49112" lon="0.69909">
        <ele>94</ele>
        <time>2015-12-27T09:49:58Z</time>
      </trkpt>
      <trkpt lat="44.49112" lon="0.69909">
        <ele>94</ele>
        <time>2015-12-27T09:50:01Z</time>
      </trkpt>
      <trkpt lat="44.49112" lon="0.69909">
        <ele>94</ele>
        <time>2015-12-27T09:50:04Z</time>
      </trkpt>
      <trkpt lat="44.49112" lon="0.69909">
        <ele>94</ele>
        <time>2015-12-27T09:50:07Z</time>
      </trkpt>
      <trkpt lat="44.49112" lon="0.69909">
        <ele>94</ele>
        <time>2015-12-27T09:50:10Z</time>
      </trkpt>
      <trkpt lat="44.49111" lon="0.69908">
        <ele>95</ele>
        <time>2015-12-27T09:50:13Z</time>
      </trkpt>
      <trkpt lat="44.4911" lon="0.69906">
        <ele>96</ele>
        <time>2015-12-27T09:50:18Z</time>
      </trkpt>
      <trkpt lat="44.49109" lon="0.69905">
        <ele>96</ele>
        <time>2015-12-27T09:50:21Z</time>
      </trkpt>
      <trkpt lat="44.49109" lon="0.69905">
        <ele>96</ele>
        <time>2015-12-27T09:50:24Z</time>
      </trkpt>
      <trkpt lat="44.49109" lon="0.69905">
        <ele>96</ele>
        <time>2015-12-27T09:50:27Z</time>
      </trkpt>
      <trkpt lat="44.49109" lon="0.69905">
        <ele>96</ele>
        <time>2015-12-27T09:50:30Z</time>
      </trkpt>
      <trkpt lat="44.49109" lon="0.69905">
        <ele>96</ele>
        <time>2015-12-27T09:50:33Z</time>
      </trkpt>
      <trkpt lat="44.49109" lon="0.69905">
        <ele>96</ele>
        <time>2015-12-27T09:50:36Z</time>
      </trkpt>
      <trkpt lat="44.4911" lon="0.69906">
        <ele>96</ele>
        <time>2015-12-27T09:50:39Z</time>
      </trkpt>
      <trkpt lat="44.4911" lon="0.69906">
        <ele>96</ele>
        <time>2015-12-27T09:50:42Z</time>
      </trkpt>
      <trkpt lat="44.4911" lon="0.69904">
        <ele>96</ele>
        <time>2015-12-27T09:50:45Z</time>
      </trkpt>
      <trkpt lat="44.4911" lon="0.69904">
        <ele>96</ele>
        <time>2015-12-27T09:50:48Z</time>
      </trkpt>
      <trkpt lat="44.4911" lon="0.69904">
        <ele>96</ele>
        <time>2015-12-27T09:50:51Z</time>
      </trkpt>
      <trkpt lat="44.49111" lon="0.69904">
        <ele>96</ele>
        <time>2015-12-27T09:50:54Z</time>
      </trkpt>
      <trkpt lat="44.4911" lon="0.69904">
        <ele>96</ele>
        <time>2015-12-27T09:50:57Z</time>
      </trkpt>
      <trkpt lat="44.4911" lon="0.69904">
        <ele>96</ele>
        <time>2015-12-27T09:51:00Z</time>
      </trkpt>
      <trkpt lat="44.49111" lon="0.69904">
        <ele>95</ele>
        <time>2015-12-27T09:51:03Z</time>
      </trkpt>
      <trkpt lat="44.49111" lon="0.69905">
        <ele>95</ele>
        <time>2015-12-27T09:51:06Z</time>
      </trkpt>
      <trkpt lat="44.49114" lon="0.69906">
        <ele>94</ele>
        <time>2015-12-27T09:51:09Z</time>
      </trkpt>
      <trkpt lat="44.49123" lon="0.69906">
        <ele>93</ele>
        <time>2015-12-27T09:51:14Z</time>
      </trkpt>
      <trkpt lat="44.49124" lon="0.69899">
        <ele>93</ele>
        <time>2015-12-27T09:51:19Z</time>
      </trkpt>
      <trkpt lat="44.49113" lon="0.69894">
        <ele>91</ele>
        <time>2015-12-27T09:51:24Z</time>
      </trkpt>
      <trkpt lat="44.49108" lon="0.6989">
        <ele>92</ele>
        <time>2015-12-27T09:51:29Z</time>
      </trkpt>
      <trkpt lat="44.49106" lon="0.69888">
        <ele>91</ele>
        <time>2015-12-27T09:51:34Z</time>
      </trkpt>
      <trkpt lat="44.49104" lon="0.69879">
        <ele>87</ele>
        <time>2015-12-27T09:51:41Z</time>
      </trkpt>
      <trkpt lat="44.49103" lon="0.69872">
        <ele>87</ele>
        <time>2015-12-27T09:51:45Z</time>
      </trkpt>
      <trkpt lat="44.49102" lon="0.69872">
        <ele>88</ele>
        <time>2015-12-27T09:51:49Z</time>
      </trkpt>
      <trkpt lat="44.49102" lon="0.69872">
        <ele>88</ele>
        <time>2015-12-27T09:51:52Z</time>
      </trkpt>
      <trkpt lat="44.49103" lon="0.69867">
        <ele>88</ele>
        <time>2015-12-27T09:51:55Z</time>
      </trkpt>
      <trkpt lat="44.49101" lon="0.69861">
        <ele>88</ele>
        <time>2015-12-27T09:52:00Z</time>
      </trkpt>
      <trkpt lat="44.491" lon="0.69858">
        <ele>87</ele>
        <time>2015-12-27T09:52:05Z</time>
      </trkpt>
      <trkpt lat="44.49098" lon="0.69857">
        <ele>86</ele>
        <time>2015-12-27T09:52:10Z</time>
      </trkpt>
      <trkpt lat="44.49094" lon="0.6985">
        <ele>88</ele>
        <time>2015-12-27T09:52:13Z</time>
      </trkpt>
      <trkpt lat="44.49064" lon="0.6984">
        <ele>89</ele>
        <time>2015-12-27T09:52:22Z</time>
      </trkpt>
      <trkpt lat="44.49061" lon="0.69838">
        <ele>89</ele>
        <time>2015-12-27T09:52:23Z</time>
      </trkpt>
      <trkpt lat="44.49047" lon="0.69834">
        <ele>90</ele>
        <time>2015-12-27T09:52:28Z</time>
      </trkpt>
      <trkpt lat="44.49029" lon="0.69832">
        <ele>91</ele>
        <time>2015-12-27T09:52:33Z</time>
      </trkpt>
      <trkpt lat="44.49017" lon="0.69829">
        <ele>91</ele>
        <time>2015-12-27T09:52:38Z</time>
      </trkpt>
      <trkpt lat="44.49003" lon="0.69826">
        <ele>93</ele>
        <time>2015-12-27T09:52:43Z</time>
      </trkpt>
      <trkpt lat="44.48982" lon="0.69821">
        <ele>95</ele>
        <time>2015-12-27T09:52:50Z</time>
      </trkpt>
      <trkpt lat="44.48975" lon="0.6982">
        <ele>93</ele>
        <time>2015-12-27T09:52:53Z</time>
      </trkpt>
      <trkpt lat="44.4896" lon="0.69813">
        <ele>95</ele>
        <time>2015-12-27T09:52:58Z</time>
      </trkpt>
      <trkpt lat="44.48946" lon="0.69804">
        <ele>95</ele>
        <time>2015-12-27T09:53:03Z</time>
      </trkpt>
      <trkpt lat="44.48935" lon="0.69794">
        <ele>94</ele>
        <time>2015-12-27T09:53:08Z</time>
      </trkpt>
      <trkpt lat="44.48925" lon="0.69785">
        <ele>95</ele>
        <time>2015-12-27T09:53:13Z</time>
      </trkpt>
      <trkpt lat="44.48918" lon="0.69774">
        <ele>93</ele>
        <time>2015-12-27T09:53:18Z</time>
      </trkpt>
      <trkpt lat="44.48911" lon="0.69761">
        <ele>95</ele>
        <time>2015-12-27T09:53:23Z</time>
      </trkpt>
      <trkpt lat="44.48903" lon="0.6975">
        <ele>96</ele>
        <time>2015-12-27T09:53:28Z</time>
      </trkpt>
      <trkpt lat="44.48896" lon="0.69737">
        <ele>98</ele>
        <time>2015-12-27T09:53:33Z</time>
      </trkpt>
      <trkpt lat="44.48887" lon="0.69724">
        <ele>99</ele>
        <time>2015-12-27T09:53:38Z</time>
      </trkpt>
      <trkpt lat="44.48878" lon="0.69708">
        <ele>97</ele>
        <time>2015-12-27T09:53:43Z</time>
      </trkpt>
      <trkpt lat="44.48868" lon="0.69692">
        <ele>96</ele>
        <time>2015-12-27T09:53:48Z</time>
      </trkpt>
      <trkpt lat="44.48859" lon="0.69679">
        <ele>99</ele>
        <time>2015-12-27T09:53:53Z</time>
      </trkpt>
      <trkpt lat="44.4885" lon="0.69666">
        <ele>99</ele>
        <time>2015-12-27T09:53:58Z</time>
      </trkpt>
      <trkpt lat="44.48846" lon="0.69653">
        <ele>97</ele>
        <time>2015-12-27T09:54:03Z</time>
      </trkpt>
      <trkpt lat="44.48852" lon="0.69633">
        <ele>99</ele>
        <time>2015-12-27T09:54:08Z</time>
      </trkpt>
      <trkpt lat="44.48858" lon="0.69615">
        <ele>100</ele>
        <time>2015-12-27T09:54:13Z</time>
      </trkpt>
      <trkpt lat="44.48864" lon="0.69596">
        <ele>101</ele>
        <time>2015-12-27T09:54:18Z</time>
      </trkpt>
      <trkpt lat="44.4887" lon="0.69579">
        <ele>103</ele>
        <time>2015-12-27T09:54:23Z</time>
      </trkpt>
      <trkpt lat="44.48877" lon="0.69562">
        <ele>104</ele>
        <time>2015-12-27T09:54:28Z</time>
      </trkpt>
      <trkpt lat="44.48886" lon="0.69548">
        <ele>107</ele>
        <time>2015-12-27T09:54:33Z</time>
      </trkpt>
      <trkpt lat="44.48895" lon="0.69536">
        <ele>107</ele>
        <time>2015-12-27T09:54:38Z</time>
      </trkpt>
      <trkpt lat="44.48905" lon="0.69523">
        <ele>108</ele>
        <time>2015-12-27T09:54:43Z</time>
      </trkpt>
      <trkpt lat="44.48915" lon="0.69509">
        <ele>108</ele>
        <time>2015-12-27T09:54:48Z</time>
      </trkpt>
      <trkpt lat="44.48922" lon="0.69494">
        <ele>110</ele>
        <time>2015-12-27T09:54:53Z</time>
      </trkpt>
      <trkpt lat="44.4893" lon="0.69476">
        <ele>111</ele>
        <time>2015-12-27T09:54:58Z</time>
      </trkpt>
      <trkpt lat="44.48937" lon="0.69459">
        <ele>112</ele>
        <time>2015-12-27T09:55:03Z</time>
      </trkpt>
      <trkpt lat="44.48943" lon="0.69442">
        <ele>112</ele>
        <time>2015-12-27T09:55:08Z</time>
      </trkpt>
      <trkpt lat="44.48949" lon="0.69421">
        <ele>112</ele>
        <time>2015-12-27T09:55:13Z</time>
      </trkpt>
      <trkpt lat="44.48956" lon="0.69403">
        <ele>113</ele>
        <time>2015-12-27T09:55:18Z</time>
      </trkpt>
      <trkpt lat="44.48964" lon="0.69384">
        <ele>113</ele>
        <time>2015-12-27T09:55:23Z</time>
      </trkpt>
      <trkpt lat="44.48972" lon="0.69364">
        <ele>113</ele>
        <time>2015-12-27T09:55:28Z</time>
      </trkpt>
      <trkpt lat="44.4898" lon="0.69346">
        <ele>114</ele>
        <time>2015-12-27T09:55:33Z</time>
      </trkpt>
      <trkpt lat="44.48988" lon="0.69328">
        <ele>114</ele>
        <time>2015-12-27T09:55:38Z</time>
      </trkpt>
      <trkpt lat="44.48997" lon="0.69309">
        <ele>114</ele>
        <time>2015-12-27T09:55:43Z</time>
      </trkpt>
      <trkpt lat="44.49006" lon="0.69291">
        <ele>114</ele>
        <time>2015-12-27T09:55:48Z</time>
      </trkpt>
      <trkpt lat="44.49015" lon="0.69274">
        <ele>114</ele>
        <time>2015-12-27T09:55:53Z</time>
      </trkpt>
      <trkpt lat="44.49024" lon="0.69257">
        <ele>117</ele>
        <time>2015-12-27T09:55:58Z</time>
      </trkpt>
      <trkpt lat="44.49031" lon="0.69245">
        <ele>117</ele>
        <time>2015-12-27T09:56:03Z</time>
      </trkpt>
      <trkpt lat="44.49036" lon="0.69227">
        <ele>120</ele>
        <time>2015-12-27T09:56:08Z</time>
      </trkpt>
      <trkpt lat="44.49038" lon="0.69208">
        <ele>120</ele>
        <time>2015-12-27T09:56:13Z</time>
      </trkpt>
      <trkpt lat="44.49041" lon="0.69196">
        <ele>119</ele>
        <time>2015-12-27T09:56:18Z</time>
      </trkpt>
      <trkpt lat="44.49046" lon="0.69186">
        <ele>119</ele>
        <time>2015-12-27T09:56:23Z</time>
      </trkpt>
      <trkpt lat="44.49052" lon="0.69178">
        <ele>121</ele>
        <time>2015-12-27T09:56:28Z</time>
      </trkpt>
      <trkpt lat="44.49056" lon="0.69171">
        <ele>121</ele>
        <time>2015-12-27T09:56:33Z</time>
      </trkpt>
      <trkpt lat="44.49059" lon="0.69163">
        <ele>124</ele>
        <time>2015-12-27T09:56:38Z</time>
      </trkpt>
      <trkpt lat="44.49062" lon="0.69156">
        <ele>125</ele>
        <time>2015-12-27T09:56:43Z</time>
      </trkpt>
      <trkpt lat="44.49067" lon="0.69151">
        <ele>126</ele>
        <time>2015-12-27T09:56:48Z</time>
      </trkpt>
      <trkpt lat="44.4907" lon="0.69146">
        <ele>127</ele>
        <time>2015-12-27T09:56:53Z</time>
      </trkpt>
      <trkpt lat="44.49078" lon="0.69143">
        <ele>127</ele>
        <time>2015-12-27T09:56:58Z</time>
      </trkpt>
      <trkpt lat="44.49084" lon="0.69141">
        <ele>129</ele>
        <time>2015-12-27T09:57:03Z</time>
      </trkpt>
      <trkpt lat="44.49087" lon="0.69143">
        <ele>130</ele>
        <time>2015-12-27T09:57:08Z</time>
      </trkpt>
      <trkpt lat="44.49087" lon="0.69143">
        <ele>130</ele>
        <time>2015-12-27T09:57:13Z</time>
      </trkpt>
      <trkpt lat="44.49089" lon="0.69142">
        <ele>130</ele>
        <time>2015-12-27T09:57:16Z</time>
      </trkpt>
      <trkpt lat="44.49095" lon="0.69136">
        <ele>129</ele>
        <time>2015-12-27T09:57:21Z</time>
      </trkpt>
      <trkpt lat="44.49099" lon="0.69131">
        <ele>127</ele>
        <time>2015-12-27T09:57:26Z</time>
      </trkpt>
      <trkpt lat="44.49102" lon="0.69125">
        <ele>130</ele>
        <time>2015-12-27T09:57:31Z</time>
      </trkpt>
      <trkpt lat="44.49104" lon="0.69119">
        <ele>128</ele>
        <time>2015-12-27T09:57:36Z</time>
      </trkpt>
      <trkpt lat="44.49106" lon="0.69112">
        <ele>129</ele>
        <time>2015-12-27T09:57:41Z</time>
      </trkpt>
      <trkpt lat="44.49111" lon="0.69104">
        <ele>130</ele>
        <time>2015-12-27T09:57:49Z</time>
      </trkpt>
      <trkpt lat="44.49112" lon="0.69098">
        <ele>131</ele>
        <time>2015-12-27T09:57:54Z</time>
      </trkpt>
      <trkpt lat="44.49113" lon="0.69094">
        <ele>129</ele>
        <time>2015-12-27T09:57:58Z</time>
      </trkpt>
      <trkpt lat="44.49115" lon="0.69091">
        <ele>130</ele>
        <time>2015-12-27T09:58:01Z</time>
      </trkpt>
      <trkpt lat="44.4912" lon="0.69084">
        <ele>132</ele>
        <time>2015-12-27T09:58:10Z</time>
      </trkpt>
      <trkpt lat="44.4912" lon="0.69085">
        <ele>132</ele>
        <time>2015-12-27T09:58:11Z</time>
      </trkpt>
      <trkpt lat="44.49119" lon="0.69083">
        <ele>134</ele>
        <time>2015-12-27T09:58:15Z</time>
      </trkpt>
      <trkpt lat="44.49124" lon="0.69073">
        <ele>143</ele>
        <time>2015-12-27T09:58:23Z</time>
      </trkpt>
      <trkpt lat="44.49124" lon="0.69073">
        <ele>142</ele>
        <time>2015-12-27T09:58:24Z</time>
      </trkpt>
      <trkpt lat="44.49127" lon="0.69066">
        <ele>140</ele>
        <time>2015-12-27T09:58:31Z</time>
      </trkpt>
      <trkpt lat="44.49128" lon="0.69064">
        <ele>140</ele>
        <time>2015-12-27T09:58:32Z</time>
      </trkpt>
      <trkpt lat="44.49134" lon="0.69052">
        <ele>141</ele>
        <time>2015-12-27T09:58:40Z</time>
      </trkpt>
      <trkpt lat="44.49134" lon="0.6905">
        <ele>142</ele>
        <time>2015-12-27T09:58:42Z</time>
      </trkpt>
      <trkpt lat="44.4914" lon="0.69041">
        <ele>139</ele>
        <time>2015-12-27T09:58:48Z</time>
      </trkpt>
      <trkpt lat="44.49144" lon="0.69034">
        <ele>139</ele>
        <time>2015-12-27T09:58:52Z</time>
      </trkpt>
      <trkpt lat="44.49149" lon="0.69022">
        <ele>142</ele>
        <time>2015-12-27T09:58:57Z</time>
      </trkpt>
      <trkpt lat="44.49153" lon="0.69012">
        <ele>143</ele>
        <time>2015-12-27T09:59:04Z</time>
      </trkpt>
      <trkpt lat="44.4916" lon="0.68997">
        <ele>145</ele>
        <time>2015-12-27T09:59:10Z</time>
      </trkpt>
      <trkpt lat="44.49164" lon="0.68991">
        <ele>143</ele>
        <time>2015-12-27T09:59:12Z</time>
      </trkpt>
      <trkpt lat="44.4917" lon="0.68975">
        <ele>141</ele>
        <time>2015-12-27T09:59:18Z</time>
      </trkpt>
      <trkpt lat="44.49173" lon="0.68963">
        <ele>141</ele>
        <time>2015-12-27T09:59:22Z</time>
      </trkpt>
      <trkpt lat="44.49182" lon="0.68943">
        <ele>140</ele>
        <time>2015-12-27T09:59:31Z</time>
      </trkpt>
      <trkpt lat="44.49183" lon="0.68942">
        <ele>140</ele>
        <time>2015-12-27T09:59:32Z</time>
      </trkpt>
      <trkpt lat="44.49188" lon="0.68926">
        <ele>144</ele>
        <time>2015-12-27T09:59:37Z</time>
      </trkpt>
      <trkpt lat="44.49194" lon="0.68914">
        <ele>144</ele>
        <time>2015-12-27T09:59:42Z</time>
      </trkpt>
      <trkpt lat="44.49197" lon="0.68893">
        <ele>141</ele>
        <time>2015-12-27T09:59:47Z</time>
      </trkpt>
      <trkpt lat="44.49204" lon="0.68874">
        <ele>143</ele>
        <time>2015-12-27T09:59:52Z</time>
      </trkpt>
      <trkpt lat="44.49214" lon="0.68839">
        <ele>148</ele>
        <time>2015-12-27T10:00:00Z</time>
      </trkpt>
      <trkpt lat="44.49216" lon="0.68828">
        <ele>150</ele>
        <time>2015-12-27T10:00:02Z</time>
      </trkpt>
      <trkpt lat="44.49222" lon="0.68804">
        <ele>152</ele>
        <time>2015-12-27T10:00:07Z</time>
      </trkpt>
      <trkpt lat="44.4923" lon="0.68775">
        <ele>142</ele>
        <time>2015-12-27T10:00:13Z</time>
      </trkpt>
      <trkpt lat="44.49239" lon="0.68758">
        <ele>140</ele>
        <time>2015-12-27T10:00:18Z</time>
      </trkpt>
      <trkpt lat="44.49246" lon="0.6874">
        <ele>136</ele>
        <time>2015-12-27T10:00:22Z</time>
      </trkpt>
      <trkpt lat="44.49253" lon="0.68721">
        <ele>133</ele>
        <time>2015-12-27T10:00:27Z</time>
      </trkpt>
      <trkpt lat="44.49263" lon="0.68699">
        <ele>134</ele>
        <time>2015-12-27T10:00:32Z</time>
      </trkpt>
      <trkpt lat="44.49281" lon="0.6867">
        <ele>146</ele>
        <time>2015-12-27T10:00:40Z</time>
      </trkpt>
      <trkpt lat="44.49288" lon="0.68659">
        <ele>146</ele>
        <time>2015-12-27T10:00:44Z</time>
      </trkpt>
      <trkpt lat="44.49295" lon="0.6865">
        <ele>147</ele>
        <time>2015-12-27T10:00:47Z</time>
      </trkpt>
      <trkpt lat="44.49304" lon="0.68635">
        <ele>149</ele>
        <time>2015-12-27T10:00:52Z</time>
      </trkpt>
      <trkpt lat="44.49312" lon="0.68624">
        <ele>149</ele>
        <time>2015-12-27T10:00:56Z</time>
      </trkpt>
      <trkpt lat="44.49315" lon="0.68609">
        <ele>146</ele>
        <time>2015-12-27T10:01:00Z</time>
      </trkpt>
      <trkpt lat="44.49332" lon="0.68585">
        <ele>147</ele>
        <time>2015-12-27T10:01:09Z</time>
      </trkpt>
      <trkpt lat="44.49342" lon="0.68568">
        <ele>151</ele>
        <time>2015-12-27T10:01:14Z</time>
      </trkpt>
      <trkpt lat="44.49344" lon="0.68563">
        <ele>150</ele>
        <time>2015-12-27T10:01:15Z</time>
      </trkpt>
      <trkpt lat="44.49352" lon="0.68546">
        <ele>150</ele>
        <time>2015-12-27T10:01:20Z</time>
      </trkpt>
      <trkpt lat="44.49361" lon="0.68526">
        <ele>152</ele>
        <time>2015-12-27T10:01:25Z</time>
      </trkpt>
      <trkpt lat="44.49377" lon="0.68499">
        <ele>152</ele>
        <time>2015-12-27T10:01:30Z</time>
      </trkpt>
      <trkpt lat="44.494" lon="0.68447">
        <ele>150</ele>
        <time>2015-12-27T10:01:38Z</time>
      </trkpt>
      <trkpt lat="44.49411" lon="0.68413">
        <ele>151</ele>
        <time>2015-12-27T10:01:44Z</time>
      </trkpt>
      <trkpt lat="44.49413" lon="0.68408">
        <ele>151</ele>
        <time>2015-12-27T10:01:45Z</time>
      </trkpt>
      <trkpt lat="44.49419" lon="0.68383">
        <ele>150</ele>
        <time>2015-12-27T10:01:50Z</time>
      </trkpt>
      <trkpt lat="44.49428" lon="0.68354">
        <ele>149</ele>
        <time>2015-12-27T10:01:57Z</time>
      </trkpt>
      <trkpt lat="44.49432" lon="0.68342">
        <ele>149</ele>
        <time>2015-12-27T10:02:00Z</time>
      </trkpt>
      <trkpt lat="44.49432" lon="0.68332">
        <ele>150</ele>
        <time>2015-12-27T10:02:05Z</time>
      </trkpt>
      <trkpt lat="44.49431" lon="0.68331">
        <ele>150</ele>
        <time>2015-12-27T10:02:10Z</time>
      </trkpt>
      <trkpt lat="44.49431" lon="0.6833">
        <ele>148</ele>
        <time>2015-12-27T10:02:13Z</time>
      </trkpt>
      <trkpt lat="44.4943" lon="0.6833">
        <ele>149</ele>
        <time>2015-12-27T10:02:17Z</time>
      </trkpt>
      <trkpt lat="44.49431" lon="0.6833">
        <ele>150</ele>
        <time>2015-12-27T10:02:19Z</time>
      </trkpt>
      <trkpt lat="44.49431" lon="0.68329">
        <ele>150</ele>
        <time>2015-12-27T10:02:24Z</time>
      </trkpt>
      <trkpt lat="44.49431" lon="0.68329">
        <ele>149</ele>
        <time>2015-12-27T10:02:27Z</time>
      </trkpt>
      <trkpt lat="44.49431" lon="0.68329">
        <ele>149</ele>
        <time>2015-12-27T10:02:30Z</time>
      </trkpt>
      <trkpt lat="44.49433" lon="0.68327">
        <ele>149</ele>
        <time>2015-12-27T10:02:33Z</time>
      </trkpt>
      <trkpt lat="44.49433" lon="0.68327">
        <ele>149</ele>
        <time>2015-12-27T10:02:38Z</time>
      </trkpt>
      <trkpt lat="44.49434" lon="0.68327">
        <ele>149</ele>
        <time>2015-12-27T10:02:41Z</time>
      </trkpt>
      <trkpt lat="44.49432" lon="0.68326">
        <ele>148</ele>
        <time>2015-12-27T10:02:46Z</time>
      </trkpt>
      <trkpt lat="44.49431" lon="0.68325">
        <ele>148</ele>
        <time>2015-12-27T10:02:51Z</time>
      </trkpt>
      <trkpt lat="44.49431" lon="0.68326">
        <ele>148</ele>
        <time>2015-12-27T10:02:54Z</time>
      </trkpt>
      <trkpt lat="44.49431" lon="0.68325">
        <ele>147</ele>
        <time>2015-12-27T10:02:57Z</time>
      </trkpt>
      <trkpt lat="44.49431" lon="0.68324">
        <ele>146</ele>
        <time>2015-12-27T10:03:00Z</time>
      </trkpt>
      <trkpt lat="44.49431" lon="0.68324">
        <ele>147</ele>
        <time>2015-12-27T10:03:03Z</time>
      </trkpt>
      <trkpt lat="44.49431" lon="0.68324">
        <ele>148</ele>
        <time>2015-12-27T10:03:06Z</time>
      </trkpt>
      <trkpt lat="44.49431" lon="0.68325">
        <ele>148</ele>
        <time>2015-12-27T10:03:09Z</time>
      </trkpt>
      <trkpt lat="44.49431" lon="0.68324">
        <ele>148</ele>
        <time>2015-12-27T10:03:12Z</time>
      </trkpt>
      <trkpt lat="44.49431" lon="0.68325">
        <ele>149</ele>
        <time>2015-12-27T10:03:15Z</time>
      </trkpt>
      <trkpt lat="44.49427" lon="0.6833">
        <ele>149</ele>
        <time>2015-12-27T10:03:21Z</time>
      </trkpt>
      <trkpt lat="44.49427" lon="0.6833">
        <ele>148</ele>
        <time>2015-12-27T10:03:23Z</time>
      </trkpt>
      <trkpt lat="44.49427" lon="0.68331">
        <ele>149</ele>
        <time>2015-12-27T10:03:26Z</time>
      </trkpt>
      <trkpt lat="44.49428" lon="0.68328">
        <ele>148</ele>
        <time>2015-12-27T10:03:29Z</time>
      </trkpt>
      <trkpt lat="44.49426" lon="0.68329">
        <ele>149</ele>
        <time>2015-12-27T10:03:34Z</time>
      </trkpt>
      <trkpt lat="44.49429" lon="0.68319">
        <ele>148</ele>
        <time>2015-12-27T10:03:41Z</time>
      </trkpt>
      <trkpt lat="44.4943" lon="0.68309">
        <ele>148</ele>
        <time>2015-12-27T10:03:44Z</time>
      </trkpt>
      <trkpt lat="44.49433" lon="0.6829">
        <ele>152</ele>
        <time>2015-12-27T10:03:49Z</time>
      </trkpt>
      <trkpt lat="44.49436" lon="0.68271">
        <ele>155</ele>
        <time>2015-12-27T10:03:54Z</time>
      </trkpt>
      <trkpt lat="44.49444" lon="0.68252">
        <ele>155</ele>
        <time>2015-12-27T10:04:00Z</time>
      </trkpt>
      <trkpt lat="44.4945" lon="0.68239">
        <ele>155</ele>
        <time>2015-12-27T10:04:04Z</time>
      </trkpt>
      <trkpt lat="44.49459" lon="0.68228">
        <ele>155</ele>
        <time>2015-12-27T10:04:09Z</time>
      </trkpt>
      <trkpt lat="44.49466" lon="0.68219">
        <ele>156</ele>
        <time>2015-12-27T10:04:14Z</time>
      </trkpt>
      <trkpt lat="44.49474" lon="0.68208">
        <ele>158</ele>
        <time>2015-12-27T10:04:19Z</time>
      </trkpt>
      <trkpt lat="44.49486" lon="0.6819">
        <ele>158</ele>
        <time>2015-12-27T10:04:27Z</time>
      </trkpt>
      <trkpt lat="44.49498" lon="0.68174">
        <ele>159</ele>
        <time>2015-12-27T10:04:33Z</time>
      </trkpt>
      <trkpt lat="44.495" lon="0.68172">
        <ele>159</ele>
        <time>2015-12-27T10:04:34Z</time>
      </trkpt>
      <trkpt lat="44.49511" lon="0.68155">
        <ele>159</ele>
        <time>2015-12-27T10:04:40Z</time>
      </trkpt>
      <trkpt lat="44.49519" lon="0.68144">
        <ele>159</ele>
        <time>2015-12-27T10:04:44Z</time>
      </trkpt>
      <trkpt lat="44.4953" lon="0.68129">
        <ele>159</ele>
        <time>2015-12-27T10:04:49Z</time>
      </trkpt>
      <trkpt lat="44.49539" lon="0.68117">
        <ele>159</ele>
        <time>2015-12-27T10:04:54Z</time>
      </trkpt>
      <trkpt lat="44.49547" lon="0.68106">
        <ele>159</ele>
        <time>2015-12-27T10:04:59Z</time>
      </trkpt>
      <trkpt lat="44.49555" lon="0.68091">
        <ele>158</ele>
        <time>2015-12-27T10:05:04Z</time>
      </trkpt>
      <trkpt lat="44.49561" lon="0.68076">
        <ele>158</ele>
        <time>2015-12-27T10:05:09Z</time>
      </trkpt>
      <trkpt lat="44.49565" lon="0.68063">
        <ele>158</ele>
        <time>2015-12-27T10:05:14Z</time>
      </trkpt>
      <trkpt lat="44.4957" lon="0.68048">
        <ele>158</ele>
        <time>2015-12-27T10:05:19Z</time>
      </trkpt>
      <trkpt lat="44.49576" lon="0.68031">
        <ele>158</ele>
        <time>2015-12-27T10:05:24Z</time>
      </trkpt>
      <trkpt lat="44.4958" lon="0.68016">
        <ele>159</ele>
        <time>2015-12-27T10:05:29Z</time>
      </trkpt>
      <trkpt lat="44.49583" lon="0.68005">
        <ele>161</ele>
        <time>2015-12-27T10:05:34Z</time>
      </trkpt>
      <trkpt lat="44.49586" lon="0.67993">
        <ele>162</ele>
        <time>2015-12-27T10:05:39Z</time>
      </trkpt>
      <trkpt lat="44.49586" lon="0.67982">
        <ele>163</ele>
        <time>2015-12-27T10:05:44Z</time>
      </trkpt>
      <trkpt lat="44.49586" lon="0.67973">
        <ele>165</ele>
        <time>2015-12-27T10:05:49Z</time>
      </trkpt>
      <trkpt lat="44.49587" lon="0.67963">
        <ele>167</ele>
        <time>2015-12-27T10:05:54Z</time>
      </trkpt>
      <trkpt lat="44.49587" lon="0.67953">
        <ele>166</ele>
        <time>2015-12-27T10:05:59Z</time>
      </trkpt>
      <trkpt lat="44.49589" lon="0.67944">
        <ele>168</ele>
        <time>2015-12-27T10:06:04Z</time>
      </trkpt>
      <trkpt lat="44.49589" lon="0.67935">
        <ele>168</ele>
        <time>2015-12-27T10:06:09Z</time>
      </trkpt>
      <trkpt lat="44.49591" lon="0.67927">
        <ele>169</ele>
        <time>2015-12-27T10:06:14Z</time>
      </trkpt>
      <trkpt lat="44.4959" lon="0.67926">
        <ele>169</ele>
        <time>2015-12-27T10:06:19Z</time>
      </trkpt>
      <trkpt lat="44.4959" lon="0.67924">
        <ele>169</ele>
        <time>2015-12-27T10:06:22Z</time>
      </trkpt>
      <trkpt lat="44.49588" lon="0.67916">
        <ele>171</ele>
        <time>2015-12-27T10:06:27Z</time>
      </trkpt>
      <trkpt lat="44.49587" lon="0.67911">
        <ele>172</ele>
        <time>2015-12-27T10:06:32Z</time>
      </trkpt>
      <trkpt lat="44.49586" lon="0.67905">
        <ele>175</ele>
        <time>2015-12-27T10:06:37Z</time>
      </trkpt>
      <trkpt lat="44.49585" lon="0.67899">
        <ele>178</ele>
        <time>2015-12-27T10:06:42Z</time>
      </trkpt>
      <trkpt lat="44.49586" lon="0.67891">
        <ele>178</ele>
        <time>2015-12-27T10:06:47Z</time>
      </trkpt>
      <trkpt lat="44.49586" lon="0.67883">
        <ele>178</ele>
        <time>2015-12-27T10:06:52Z</time>
      </trkpt>
      <trkpt lat="44.49587" lon="0.67876">
        <ele>179</ele>
        <time>2015-12-27T10:06:57Z</time>
      </trkpt>
      <trkpt lat="44.49589" lon="0.67869">
        <ele>178</ele>
        <time>2015-12-27T10:07:02Z</time>
      </trkpt>
      <trkpt lat="44.49592" lon="0.67862">
        <ele>180</ele>
        <time>2015-12-27T10:07:09Z</time>
      </trkpt>
      <trkpt lat="44.49593" lon="0.6786">
        <ele>180</ele>
        <time>2015-12-27T10:07:12Z</time>
      </trkpt>
      <trkpt lat="44.49594" lon="0.67858">
        <ele>181</ele>
        <time>2015-12-27T10:07:17Z</time>
      </trkpt>
      <trkpt lat="44.49595" lon="0.67852">
        <ele>182</ele>
        <time>2015-12-27T10:07:22Z</time>
      </trkpt>
      <trkpt lat="44.49597" lon="0.67846">
        <ele>184</ele>
        <time>2015-12-27T10:07:27Z</time>
      </trkpt>
      <trkpt lat="44.49597" lon="0.67839">
        <ele>184</ele>
        <time>2015-12-27T10:07:32Z</time>
      </trkpt>
      <trkpt lat="44.49599" lon="0.67834">
        <ele>184</ele>
        <time>2015-12-27T10:07:37Z</time>
      </trkpt>
      <trkpt lat="44.49599" lon="0.6783">
        <ele>185</ele>
        <time>2015-12-27T10:07:42Z</time>
      </trkpt>
      <trkpt lat="44.496" lon="0.67825">
        <ele>183</ele>
        <time>2015-12-27T10:07:47Z</time>
      </trkpt>
      <trkpt lat="44.49601" lon="0.67819">
        <ele>185</ele>
        <time>2015-12-27T10:07:52Z</time>
      </trkpt>
      <trkpt lat="44.49602" lon="0.67818">
        <ele>186</ele>
        <time>2015-12-27T10:07:57Z</time>
      </trkpt>
      <trkpt lat="44.49603" lon="0.67813">
        <ele>186</ele>
        <time>2015-12-27T10:08:00Z</time>
      </trkpt>
      <trkpt lat="44.49608" lon="0.67799">
        <ele>188</ele>
        <time>2015-12-27T10:08:09Z</time>
      </trkpt>
      <trkpt lat="44.49609" lon="0.67797">
        <ele>188</ele>
        <time>2015-12-27T10:08:10Z</time>
      </trkpt>
      <trkpt lat="44.49611" lon="0.67788">
        <ele>189</ele>
        <time>2015-12-27T10:08:15Z</time>
      </trkpt>
      <trkpt lat="44.49613" lon="0.67783">
        <ele>192</ele>
        <time>2015-12-27T10:08:20Z</time>
      </trkpt>
      <trkpt lat="44.49616" lon="0.67775">
        <ele>192</ele>
        <time>2015-12-27T10:08:25Z</time>
      </trkpt>
      <trkpt lat="44.49618" lon="0.67765">
        <ele>192</ele>
        <time>2015-12-27T10:08:30Z</time>
      </trkpt>
      <trkpt lat="44.49622" lon="0.67756">
        <ele>193</ele>
        <time>2015-12-27T10:08:35Z</time>
      </trkpt>
      <trkpt lat="44.49626" lon="0.67747">
        <ele>194</ele>
        <time>2015-12-27T10:08:40Z</time>
      </trkpt>
      <trkpt lat="44.49629" lon="0.67738">
        <ele>194</ele>
        <time>2015-12-27T10:08:45Z</time>
      </trkpt>
      <trkpt lat="44.49634" lon="0.67729">
        <ele>196</ele>
        <time>2015-12-27T10:08:50Z</time>
      </trkpt>
      <trkpt lat="44.49639" lon="0.67718">
        <ele>196</ele>
        <time>2015-12-27T10:08:55Z</time>
      </trkpt>
      <trkpt lat="44.49646" lon="0.67701">
        <ele>195</ele>
        <time>2015-12-27T10:09:00Z</time>
      </trkpt>
      <trkpt lat="44.49656" lon="0.67682">
        <ele>196</ele>
        <time>2015-12-27T10:09:05Z</time>
      </trkpt>
      <trkpt lat="44.49666" lon="0.67663">
        <ele>197</ele>
        <time>2015-12-27T10:09:10Z</time>
      </trkpt>
      <trkpt lat="44.49675" lon="0.67647">
        <ele>201</ele>
        <time>2015-12-27T10:09:15Z</time>
      </trkpt>
      <trkpt lat="44.49685" lon="0.67628">
        <ele>204</ele>
        <time>2015-12-27T10:09:20Z</time>
      </trkpt>
      <trkpt lat="44.49697" lon="0.67605">
        <ele>207</ele>
        <time>2015-12-27T10:09:25Z</time>
      </trkpt>
      <trkpt lat="44.49717" lon="0.67567">
        <ele>202</ele>
        <time>2015-12-27T10:09:33Z</time>
      </trkpt>
      <trkpt lat="44.49721" lon="0.67558">
        <ele>200</ele>
        <time>2015-12-27T10:09:35Z</time>
      </trkpt>
      <trkpt lat="44.49731" lon="0.67535">
        <ele>199</ele>
        <time>2015-12-27T10:09:40Z</time>
      </trkpt>
      <trkpt lat="44.4974" lon="0.67514">
        <ele>198</ele>
        <time>2015-12-27T10:09:45Z</time>
      </trkpt>
      <trkpt lat="44.49742" lon="0.67506">
        <ele>199</ele>
        <time>2015-12-27T10:09:50Z</time>
      </trkpt>
      <trkpt lat="44.49744" lon="0.67506">
        <ele>198</ele>
        <time>2015-12-27T10:09:55Z</time>
      </trkpt>
      <trkpt lat="44.49743" lon="0.67506">
        <ele>199</ele>
        <time>2015-12-27T10:09:58Z</time>
      </trkpt>
      <trkpt lat="44.49743" lon="0.67506">
        <ele>199</ele>
        <time>2015-12-27T10:10:01Z</time>
      </trkpt>
      <trkpt lat="44.49743" lon="0.67505">
        <ele>199</ele>
        <time>2015-12-27T10:10:04Z</time>
      </trkpt>
      <trkpt lat="44.49742" lon="0.67505">
        <ele>199</ele>
        <time>2015-12-27T10:10:07Z</time>
      </trkpt>
      <trkpt lat="44.49742" lon="0.67505">
        <ele>199</ele>
        <time>2015-12-27T10:10:10Z</time>
      </trkpt>
      <trkpt lat="44.49742" lon="0.67505">
        <ele>200</ele>
        <time>2015-12-27T10:10:13Z</time>
      </trkpt>
      <trkpt lat="44.49742" lon="0.67505">
        <ele>200</ele>
        <time>2015-12-27T10:10:16Z</time>
      </trkpt>
      <trkpt lat="44.49742" lon="0.67505">
        <ele>200</ele>
        <time>2015-12-27T10:10:19Z</time>
      </trkpt>
      <trkpt lat="44.49742" lon="0.67505">
        <ele>200</ele>
        <time>2015-12-27T10:10:22Z</time>
      </trkpt>
      <trkpt lat="44.49742" lon="0.67505">
        <ele>200</ele>
        <time>2015-12-27T10:10:25Z</time>
      </trkpt>
      <trkpt lat="44.49742" lon="0.67505">
        <ele>200</ele>
        <time>2015-12-27T10:10:28Z</time>
      </trkpt>
      <trkpt lat="44.49742" lon="0.67505">
        <ele>200</ele>
        <time>2015-12-27T10:10:31Z</time>
      </trkpt>
      <trkpt lat="44.49742" lon="0.67505">
        <ele>200</ele>
        <time>2015-12-27T10:10:34Z</time>
      </trkpt>
      <trkpt lat="44.49742" lon="0.67505">
        <ele>200</ele>
        <time>2015-12-27T10:10:37Z</time>
      </trkpt>
      <trkpt lat="44.49742" lon="0.67505">
        <ele>200</ele>
        <time>2015-12-27T10:10:40Z</time>
      </trkpt>
      <trkpt lat="44.49742" lon="0.67505">
        <ele>200</ele>
        <time>2015-12-27T10:10:43Z</time>
      </trkpt>
      <trkpt lat="44.49742" lon="0.67505">
        <ele>200</ele>
        <time>2015-12-27T10:10:46Z</time>
      </trkpt>
      <trkpt lat="44.49742" lon="0.67505">
        <ele>200</ele>
        <time>2015-12-27T10:10:49Z</time>
      </trkpt>
      <trkpt lat="44.49742" lon="0.67505">
        <ele>200</ele>
        <time>2015-12-27T10:10:52Z</time>
      </trkpt>
      <trkpt lat="44.49742" lon="0.67505">
        <ele>200</ele>
        <time>2015-12-27T10:10:55Z</time>
      </trkpt>
      <trkpt lat="44.49742" lon="0.67505">
        <ele>200</ele>
        <time>2015-12-27T10:10:58Z</time>
      </trkpt>
      <trkpt lat="44.49742" lon="0.67505">
        <ele>200</ele>
        <time>2015-12-27T10:11:01Z</time>
      </trkpt>
      <trkpt lat="44.49742" lon="0.67505">
        <ele>200</ele>
        <time>2015-12-27T10:11:04Z</time>
      </trkpt>
      <trkpt lat="44.49742" lon="0.67505">
        <ele>200</ele>
        <time>2015-12-27T10:11:07Z</time>
      </trkpt>
      <trkpt lat="44.49742" lon="0.67505">
        <ele>200</ele>
        <time>2015-12-27T10:11:10Z</time>
      </trkpt>
      <trkpt lat="44.49742" lon="0.67505">
        <ele>200</ele>
        <time>2015-12-27T10:11:13Z</time>
      </trkpt>
      <trkpt lat="44.49742" lon="0.67505">
        <ele>200</ele>
        <time>2015-12-27T10:11:15Z</time>
      </trkpt>
      <trkpt lat="44.49742" lon="0.67505">
        <ele>200</ele>
        <time>2015-12-27T10:11:18Z</time>
      </trkpt>
      <trkpt lat="44.49742" lon="0.67505">
        <ele>200</ele>
        <time>2015-12-27T10:11:21Z</time>
      </trkpt>
      <trkpt lat="44.49742" lon="0.67505">
        <ele>200</ele>
        <time>2015-12-27T10:11:26Z</time>
      </trkpt>
      <trkpt lat="44.49742" lon="0.67505">
        <ele>200</ele>
        <time>2015-12-27T10:11:27Z</time>
      </trkpt>
      <trkpt lat="44.49742" lon="0.67505">
        <ele>200</ele>
        <time>2015-12-27T10:11:30Z</time>
      </trkpt>
      <trkpt lat="44.49742" lon="0.67505">
        <ele>200</ele>
        <time>2015-12-27T10:11:35Z</time>
      </trkpt>
      <trkpt lat="44.49742" lon="0.67505">
        <ele>200</ele>
        <time>2015-12-27T10:11:38Z</time>
      </trkpt>
      <trkpt lat="44.49742" lon="0.67505">
        <ele>200</ele>
        <time>2015-12-27T10:11:39Z</time>
      </trkpt>
      <trkpt lat="44.49742" lon="0.67505">
        <ele>200</ele>
        <time>2015-12-27T10:11:41Z</time>
      </trkpt>
      <trkpt lat="44.49742" lon="0.67505">
        <ele>200</ele>
        <time>2015-12-27T10:11:44Z</time>
      </trkpt>
      <trkpt lat="44.49742" lon="0.67505">
        <ele>200</ele>
        <time>2015-12-27T10:11:47Z</time>
      </trkpt>
      <trkpt lat="44.49742" lon="0.67505">
        <ele>200</ele>
        <time>2015-12-27T10:11:50Z</time>
      </trkpt>
      <trkpt lat="44.49742" lon="0.67505">
        <ele>200</ele>
        <time>2015-12-27T10:11:54Z</time>
      </trkpt>
      <trkpt lat="44.49742" lon="0.67505">
        <ele>200</ele>
        <time>2015-12-27T10:11:56Z</time>
      </trkpt>
      <trkpt lat="44.49742" lon="0.67504">
        <ele>200</ele>
        <time>2015-12-27T10:11:59Z</time>
      </trkpt>
      <trkpt lat="44.49741" lon="0.67504">
        <ele>203</ele>
        <time>2015-12-27T10:12:02Z</time>
      </trkpt>
      <trkpt lat="44.49741" lon="0.67504">
        <ele>205</ele>
        <time>2015-12-27T10:12:05Z</time>
      </trkpt>
      <trkpt lat="44.49741" lon="0.67504">
        <ele>204</ele>
        <time>2015-12-27T10:12:08Z</time>
      </trkpt>
      <trkpt lat="44.49742" lon="0.67504">
        <ele>204</ele>
        <time>2015-12-27T10:12:11Z</time>
      </trkpt>
      <trkpt lat="44.49742" lon="0.67504">
        <ele>204</ele>
        <time>2015-12-27T10:12:14Z</time>
      </trkpt>
      <trkpt lat="44.49742" lon="0.67504">
        <ele>204</ele>
        <time>2015-12-27T10:12:17Z</time>
      </trkpt>
      <trkpt lat="44.49742" lon="0.67504">
        <ele>204</ele>
        <time>2015-12-27T10:12:20Z</time>
      </trkpt>
      <trkpt lat="44.49742" lon="0.67504">
        <ele>204</ele>
        <time>2015-12-27T10:12:23Z</time>
      </trkpt>
      <trkpt lat="44.49742" lon="0.67504">
        <ele>204</ele>
        <time>2015-12-27T10:12:26Z</time>
      </trkpt>
      <trkpt lat="44.49742" lon="0.67504">
        <ele>204</ele>
        <time>2015-12-27T10:12:29Z</time>
      </trkpt>
      <trkpt lat="44.49742" lon="0.67504">
        <ele>204</ele>
        <time>2015-12-27T10:12:32Z</time>
      </trkpt>
      <trkpt lat="44.49742" lon="0.67504">
        <ele>204</ele>
        <time>2015-12-27T10:12:35Z</time>
      </trkpt>
      <trkpt lat="44.49742" lon="0.67504">
        <ele>204</ele>
        <time>2015-12-27T10:12:40Z</time>
      </trkpt>
      <trkpt lat="44.49742" lon="0.67504">
        <ele>204</ele>
        <time>2015-12-27T10:12:41Z</time>
      </trkpt>
      <trkpt lat="44.49742" lon="0.67504">
        <ele>204</ele>
        <time>2015-12-27T10:12:44Z</time>
      </trkpt>
      <trkpt lat="44.49742" lon="0.67504">
        <ele>204</ele>
        <time>2015-12-27T10:12:49Z</time>
      </trkpt>
      <trkpt lat="44.49742" lon="0.67504">
        <ele>204</ele>
        <time>2015-12-27T10:12:50Z</time>
      </trkpt>
      <trkpt lat="44.49741" lon="0.67505">
        <ele>205</ele>
        <time>2015-12-27T10:12:53Z</time>
      </trkpt>
      <trkpt lat="44.49741" lon="0.67505">
        <ele>206</ele>
        <time>2015-12-27T10:12:56Z</time>
      </trkpt>
      <trkpt lat="44.49741" lon="0.67505">
        <ele>207</ele>
        <time>2015-12-27T10:12:59Z</time>
      </trkpt>
      <trkpt lat="44.49741" lon="0.67505">
        <ele>207</ele>
        <time>2015-12-27T10:13:02Z</time>
      </trkpt>
      <trkpt lat="44.49741" lon="0.67506">
        <ele>205</ele>
        <time>2015-12-27T10:13:06Z</time>
      </trkpt>
      <trkpt lat="44.49741" lon="0.67506">
        <ele>204</ele>
        <time>2015-12-27T10:13:08Z</time>
      </trkpt>
      <trkpt lat="44.49742" lon="0.67507">
        <ele>204</ele>
        <time>2015-12-27T10:13:11Z</time>
      </trkpt>
      <trkpt lat="44.49742" lon="0.67507">
        <ele>204</ele>
        <time>2015-12-27T10:13:14Z</time>
      </trkpt>
      <trkpt lat="44.49742" lon="0.67507">
        <ele>204</ele>
        <time>2015-12-27T10:13:17Z</time>
      </trkpt>
      <trkpt lat="44.49742" lon="0.67507">
        <ele>204</ele>
        <time>2015-12-27T10:13:19Z</time>
      </trkpt>
      <trkpt lat="44.49742" lon="0.67507">
        <ele>204</ele>
        <time>2015-12-27T10:13:22Z</time>
      </trkpt>
      <trkpt lat="44.49742" lon="0.67507">
        <ele>204</ele>
        <time>2015-12-27T10:13:25Z</time>
      </trkpt>
      <trkpt lat="44.49742" lon="0.67507">
        <ele>204</ele>
        <time>2015-12-27T10:13:28Z</time>
      </trkpt>
      <trkpt lat="44.49742" lon="0.67507">
        <ele>204</ele>
        <time>2015-12-27T10:13:31Z</time>
      </trkpt>
      <trkpt lat="44.49742" lon="0.67507">
        <ele>204</ele>
        <time>2015-12-27T10:13:34Z</time>
      </trkpt>
      <trkpt lat="44.49742" lon="0.67507">
        <ele>204</ele>
        <time>2015-12-27T10:13:39Z</time>
      </trkpt>
      <trkpt lat="44.49742" lon="0.67507">
        <ele>204</ele>
        <time>2015-12-27T10:13:40Z</time>
      </trkpt>
      <trkpt lat="44.49742" lon="0.67507">
        <ele>204</ele>
        <time>2015-12-27T10:13:43Z</time>
      </trkpt>
      <trkpt lat="44.49742" lon="0.67507">
        <ele>204</ele>
        <time>2015-12-27T10:13:46Z</time>
      </trkpt>
      <trkpt lat="44.49742" lon="0.67507">
        <ele>204</ele>
        <time>2015-12-27T10:13:49Z</time>
      </trkpt>
      <trkpt lat="44.49742" lon="0.67507">
        <ele>204</ele>
        <time>2015-12-27T10:13:54Z</time>
      </trkpt>
      <trkpt lat="44.49742" lon="0.67507">
        <ele>204</ele>
        <time>2015-12-27T10:13:56Z</time>
      </trkpt>
      <trkpt lat="44.49742" lon="0.67507">
        <ele>204</ele>
        <time>2015-12-27T10:13:58Z</time>
      </trkpt>
      <trkpt lat="44.49742" lon="0.67507">
        <ele>204</ele>
        <time>2015-12-27T10:14:00Z</time>
      </trkpt>
      <trkpt lat="44.49742" lon="0.67507">
        <ele>204</ele>
        <time>2015-12-27T10:14:05Z</time>
      </trkpt>
      <trkpt lat="44.49742" lon="0.67507">
        <ele>204</ele>
        <time>2015-12-27T10:14:06Z</time>
      </trkpt>
      <trkpt lat="44.49742" lon="0.67507">
        <ele>204</ele>
        <time>2015-12-27T10:14:11Z</time>
      </trkpt>
      <trkpt lat="44.49742" lon="0.67507">
        <ele>204</ele>
        <time>2015-12-27T10:14:12Z</time>
      </trkpt>
      <trkpt lat="44.49742" lon="0.67507">
        <ele>204</ele>
        <time>2015-12-27T10:14:15Z</time>
      </trkpt>
      <trkpt lat="44.49742" lon="0.67507">
        <ele>204</ele>
        <time>2015-12-27T10:14:18Z</time>
      </trkpt>
      <trkpt lat="44.49742" lon="0.67507">
        <ele>204</ele>
        <time>2015-12-27T10:14:21Z</time>
      </trkpt>
      <trkpt lat="44.49742" lon="0.67507">
        <ele>204</ele>
        <time>2015-12-27T10:14:24Z</time>
      </trkpt>
      <trkpt lat="44.49742" lon="0.67507">
        <ele>204</ele>
        <time>2015-12-27T10:14:27Z</time>
      </trkpt>
      <trkpt lat="44.49742" lon="0.67507">
        <ele>205</ele>
        <time>2015-12-27T10:14:29Z</time>
      </trkpt>
      <trkpt lat="44.49741" lon="0.67507">
        <ele>205</ele>
        <time>2015-12-27T10:14:32Z</time>
      </trkpt>
      <trkpt lat="44.49741" lon="0.67506">
        <ele>206</ele>
        <time>2015-12-27T10:14:35Z</time>
      </trkpt>
      <trkpt lat="44.4974" lon="0.67507">
        <ele>206</ele>
        <time>2015-12-27T10:14:38Z</time>
      </trkpt>
      <trkpt lat="44.49741" lon="0.67507">
        <ele>203</ele>
        <time>2015-12-27T10:14:41Z</time>
      </trkpt>
      <trkpt lat="44.49741" lon="0.67507">
        <ele>203</ele>
        <time>2015-12-27T10:14:44Z</time>
      </trkpt>
      <trkpt lat="44.49741" lon="0.67507">
        <ele>204</ele>
        <time>2015-12-27T10:14:47Z</time>
      </trkpt>
      <trkpt lat="44.49741" lon="0.67507">
        <ele>204</ele>
        <time>2015-12-27T10:14:52Z</time>
      </trkpt>
      <trkpt lat="44.49741" lon="0.67507">
        <ele>204</ele>
        <time>2015-12-27T10:14:53Z</time>
      </trkpt>
      <trkpt lat="44.49741" lon="0.67507">
        <ele>204</ele>
        <time>2015-12-27T10:14:56Z</time>
      </trkpt>
      <trkpt lat="44.4974" lon="0.67506">
        <ele>205</ele>
        <time>2015-12-27T10:14:59Z</time>
      </trkpt>
      <trkpt lat="44.49741" lon="0.67507">
        <ele>206</ele>
        <time>2015-12-27T10:15:02Z</time>
      </trkpt>
      <trkpt lat="44.49741" lon="0.67506">
        <ele>206</ele>
        <time>2015-12-27T10:15:05Z</time>
      </trkpt>
      <trkpt lat="44.4974" lon="0.67506">
        <ele>204</ele>
        <time>2015-12-27T10:15:08Z</time>
      </trkpt>
      <trkpt lat="44.49743" lon="0.67496">
        <ele>200</ele>
        <time>2015-12-27T10:15:14Z</time>
      </trkpt>
      <trkpt lat="44.49745" lon="0.67488">
        <ele>199</ele>
        <time>2015-12-27T10:15:16Z</time>
      </trkpt>
      <trkpt lat="44.49751" lon="0.67469">
        <ele>199</ele>
        <time>2015-12-27T10:15:21Z</time>
      </trkpt>
      <trkpt lat="44.49757" lon="0.67453">
        <ele>198</ele>
        <time>2015-12-27T10:15:26Z</time>
      </trkpt>
      <trkpt lat="44.49763" lon="0.67433">
        <ele>197</ele>
        <time>2015-12-27T10:15:31Z</time>
      </trkpt>
      <trkpt lat="44.49774" lon="0.67395">
        <ele>194</ele>
        <time>2015-12-27T10:15:38Z</time>
      </trkpt>
      <trkpt lat="44.49781" lon="0.67366">
        <ele>192</ele>
        <time>2015-12-27T10:15:41Z</time>
      </trkpt>
      <trkpt lat="44.49786" lon="0.67303">
        <ele>191</ele>
        <time>2015-12-27T10:15:46Z</time>
      </trkpt>
      <trkpt lat="44.49784" lon="0.6726">
        <ele>193</ele>
        <time>2015-12-27T10:15:51Z</time>
      </trkpt>
      <trkpt lat="44.49781" lon="0.67224">
        <ele>196</ele>
        <time>2015-12-27T10:15:56Z</time>
      </trkpt>
      <trkpt lat="44.49783" lon="0.67193">
        <ele>198</ele>
        <time>2015-12-27T10:16:01Z</time>
      </trkpt>
      <trkpt lat="44.49779" lon="0.6717">
        <ele>198</ele>
        <time>2015-12-27T10:16:06Z</time>
      </trkpt>
      <trkpt lat="44.49773" lon="0.6714">
        <ele>197</ele>
        <time>2015-12-27T10:16:11Z</time>
      </trkpt>
      <trkpt lat="44.49771" lon="0.67112">
        <ele>196</ele>
        <time>2015-12-27T10:16:16Z</time>
      </trkpt>
      <trkpt lat="44.49768" lon="0.67084">
        <ele>197</ele>
        <time>2015-12-27T10:16:21Z</time>
      </trkpt>
      <trkpt lat="44.49764" lon="0.67034">
        <ele>203</ele>
        <time>2015-12-27T10:16:29Z</time>
      </trkpt>
      <trkpt lat="44.49763" lon="0.67009">
        <ele>206</ele>
        <time>2015-12-27T10:16:33Z</time>
      </trkpt>
      <trkpt lat="44.4976" lon="0.66981">
        <ele>202</ele>
        <time>2015-12-27T10:16:38Z</time>
      </trkpt>
      <trkpt lat="44.49758" lon="0.66962">
        <ele>201</ele>
        <time>2015-12-27T10:16:41Z</time>
      </trkpt>
      <trkpt lat="44.49756" lon="0.66928">
        <ele>202</ele>
        <time>2015-12-27T10:16:46Z</time>
      </trkpt>
      <trkpt lat="44.49754" lon="0.669">
        <ele>206</ele>
        <time>2015-12-27T10:16:51Z</time>
      </trkpt>
      <trkpt lat="44.49754" lon="0.66881">
        <ele>210</ele>
        <time>2015-12-27T10:16:56Z</time>
      </trkpt>
      <trkpt lat="44.49761" lon="0.66872">
        <ele>212</ele>
        <time>2015-12-27T10:17:02Z</time>
      </trkpt>
      <trkpt lat="44.49768" lon="0.66872">
        <ele>215</ele>
        <time>2015-12-27T10:17:06Z</time>
      </trkpt>
      <trkpt lat="44.49782" lon="0.66869">
        <ele>215</ele>
        <time>2015-12-27T10:17:12Z</time>
      </trkpt>
      <trkpt lat="44.49793" lon="0.66864">
        <ele>217</ele>
        <time>2015-12-27T10:17:18Z</time>
      </trkpt>
      <trkpt lat="44.49799" lon="0.66858">
        <ele>215</ele>
        <time>2015-12-27T10:17:21Z</time>
      </trkpt>
      <trkpt lat="44.49805" lon="0.66845">
        <ele>213</ele>
        <time>2015-12-27T10:17:26Z</time>
      </trkpt>
      <trkpt lat="44.49813" lon="0.66837">
        <ele>213</ele>
        <time>2015-12-27T10:17:31Z</time>
      </trkpt>
      <trkpt lat="44.49821" lon="0.66829">
        <ele>213</ele>
        <time>2015-12-27T10:17:36Z</time>
      </trkpt>
      <trkpt lat="44.4983" lon="0.66817">
        <ele>213</ele>
        <time>2015-12-27T10:17:44Z</time>
      </trkpt>
      <trkpt lat="44.49831" lon="0.66814">
        <ele>215</ele>
        <time>2015-12-27T10:17:46Z</time>
      </trkpt>
      <trkpt lat="44.49833" lon="0.66812">
        <ele>215</ele>
        <time>2015-12-27T10:17:50Z</time>
      </trkpt>
      <trkpt lat="44.4984" lon="0.66803">
        <ele>213</ele>
        <time>2015-12-27T10:17:56Z</time>
      </trkpt>
      <trkpt lat="44.49844" lon="0.66795">
        <ele>212</ele>
        <time>2015-12-27T10:18:00Z</time>
      </trkpt>
      <trkpt lat="44.4985" lon="0.66789">
        <ele>213</ele>
        <time>2015-12-27T10:18:05Z</time>
      </trkpt>
      <trkpt lat="44.49853" lon="0.66782">
        <ele>214</ele>
        <time>2015-12-27T10:18:12Z</time>
      </trkpt>
      <trkpt lat="44.49855" lon="0.66777">
        <ele>213</ele>
        <time>2015-12-27T10:18:15Z</time>
      </trkpt>
      <trkpt lat="44.49856" lon="0.66775">
        <ele>212</ele>
        <time>2015-12-27T10:18:20Z</time>
      </trkpt>
      <trkpt lat="44.49854" lon="0.66763">
        <ele>211</ele>
        <time>2015-12-27T10:18:25Z</time>
      </trkpt>
      <trkpt lat="44.49845" lon="0.66754">
        <ele>212</ele>
        <time>2015-12-27T10:18:30Z</time>
      </trkpt>
      <trkpt lat="44.49835" lon="0.66708">
        <ele>214</ele>
        <time>2015-12-27T10:18:39Z</time>
      </trkpt>
      <trkpt lat="44.49826" lon="0.66684">
        <ele>213</ele>
        <time>2015-12-27T10:18:44Z</time>
      </trkpt>
      <trkpt lat="44.49825" lon="0.66665">
        <ele>211</ele>
        <time>2015-12-27T10:18:48Z</time>
      </trkpt>
      <trkpt lat="44.49818" lon="0.66636">
        <ele>210</ele>
        <time>2015-12-27T10:18:54Z</time>
      </trkpt>
      <trkpt lat="44.49817" lon="0.66632">
        <ele>210</ele>
        <time>2015-12-27T10:18:55Z</time>
      </trkpt>
      <trkpt lat="44.4981" lon="0.66607">
        <ele>208</ele>
        <time>2015-12-27T10:19:00Z</time>
      </trkpt>
      <trkpt lat="44.49778" lon="0.66614">
        <ele>208</ele>
        <time>2015-12-27T10:19:07Z</time>
      </trkpt>
      <trkpt lat="44.49766" lon="0.66621">
        <ele>209</ele>
        <time>2015-12-27T10:19:10Z</time>
      </trkpt>
      <trkpt lat="44.49741" lon="0.66633">
        <ele>209</ele>
        <time>2015-12-27T10:19:15Z</time>
      </trkpt>
      <trkpt lat="44.49703" lon="0.66639">
        <ele>208</ele>
        <time>2015-12-27T10:19:20Z</time>
      </trkpt>
      <trkpt lat="44.49668" lon="0.6664">
        <ele>208</ele>
        <time>2015-12-27T10:19:25Z</time>
      </trkpt>
      <trkpt lat="44.49645" lon="0.66639">
        <ele>209</ele>
        <time>2015-12-27T10:19:30Z</time>
      </trkpt>
      <trkpt lat="44.49625" lon="0.6663">
        <ele>210</ele>
        <time>2015-12-27T10:19:35Z</time>
      </trkpt>
      <trkpt lat="44.49621" lon="0.66594">
        <ele>203</ele>
        <time>2015-12-27T10:19:40Z</time>
      </trkpt>
      <trkpt lat="44.49594" lon="0.66581">
        <ele>199</ele>
        <time>2015-12-27T10:19:45Z</time>
      </trkpt>
      <trkpt lat="44.49558" lon="0.66581">
        <ele>196</ele>
        <time>2015-12-27T10:19:54Z</time>
      </trkpt>
      <trkpt lat="44.49562" lon="0.66577">
        <ele>194</ele>
        <time>2015-12-27T10:19:57Z</time>
      </trkpt>
      <trkpt lat="44.4957" lon="0.66573">
        <ele>195</ele>
        <time>2015-12-27T10:20:00Z</time>
      </trkpt>
      <trkpt lat="44.49592" lon="0.66565">
        <ele>197</ele>
        <time>2015-12-27T10:20:06Z</time>
      </trkpt>
      <trkpt lat="44.49606" lon="0.66554">
        <ele>193</ele>
        <time>2015-12-27T10:20:10Z</time>
      </trkpt>
      <trkpt lat="44.4963" lon="0.66554">
        <ele>187</ele>
        <time>2015-12-27T10:20:15Z</time>
      </trkpt>
      <trkpt lat="44.49662" lon="0.66556">
        <ele>184</ele>
        <time>2015-12-27T10:20:20Z</time>
      </trkpt>
      <trkpt lat="44.49692" lon="0.66552">
        <ele>187</ele>
        <time>2015-12-27T10:20:25Z</time>
      </trkpt>
      <trkpt lat="44.49728" lon="0.66534">
        <ele>181</ele>
        <time>2015-12-27T10:20:33Z</time>
      </trkpt>
      <trkpt lat="44.49744" lon="0.66523">
        <ele>181</ele>
        <time>2015-12-27T10:20:37Z</time>
      </trkpt>
      <trkpt lat="44.49767" lon="0.6651">
        <ele>185</ele>
        <time>2015-12-27T10:20:43Z</time>
      </trkpt>
      <trkpt lat="44.49778" lon="0.66506">
        <ele>186</ele>
        <time>2015-12-27T10:20:46Z</time>
      </trkpt>
      <trkpt lat="44.49788" lon="0.66499">
        <ele>191</ele>
        <time>2015-12-27T10:20:50Z</time>
      </trkpt>
      <trkpt lat="44.49798" lon="0.66488">
        <ele>192</ele>
        <time>2015-12-27T10:20:55Z</time>
      </trkpt>
      <trkpt lat="44.49807" lon="0.66471">
        <ele>191</ele>
        <time>2015-12-27T10:20:59Z</time>
      </trkpt>
      <trkpt lat="44.49822" lon="0.66438">
        <ele>186</ele>
        <time>2015-12-27T10:21:04Z</time>
      </trkpt>
      <trkpt lat="44.49842" lon="0.66396">
        <ele>185</ele>
        <time>2015-12-27T10:21:09Z</time>
      </trkpt>
      <trkpt lat="44.4988" lon="0.66319">
        <ele>184</ele>
        <time>2015-12-27T10:21:18Z</time>
      </trkpt>
      <trkpt lat="44.49885" lon="0.66314">
        <ele>183</ele>
        <time>2015-12-27T10:21:19Z</time>
      </trkpt>
      <trkpt lat="44.49902" lon="0.66277">
        <ele>178</ele>
        <time>2015-12-27T10:21:25Z</time>
      </trkpt>
      <trkpt lat="44.49917" lon="0.66265">
        <ele>177</ele>
        <time>2015-12-27T10:21:30Z</time>
      </trkpt>
      <trkpt lat="44.4992" lon="0.66265">
        <ele>175</ele>
        <time>2015-12-27T10:21:33Z</time>
      </trkpt>
      <trkpt lat="44.49922" lon="0.66267">
        <ele>177</ele>
        <time>2015-12-27T10:21:40Z</time>
      </trkpt>
      <trkpt lat="44.49923" lon="0.66267">
        <ele>176</ele>
        <time>2015-12-27T10:21:41Z</time>
      </trkpt>
      <trkpt lat="44.49919" lon="0.66274">
        <ele>181</ele>
        <time>2015-12-27T10:21:46Z</time>
      </trkpt>
      <trkpt lat="44.49916" lon="0.66281">
        <ele>182</ele>
        <time>2015-12-27T10:21:51Z</time>
      </trkpt>
      <trkpt lat="44.49914" lon="0.66289">
        <ele>186</ele>
        <time>2015-12-27T10:21:56Z</time>
      </trkpt>
      <trkpt lat="44.4992" lon="0.6629">
        <ele>187</ele>
        <time>2015-12-27T10:22:01Z</time>
      </trkpt>
      <trkpt lat="44.49929" lon="0.6629">
        <ele>188</ele>
        <time>2015-12-27T10:22:06Z</time>
      </trkpt>
      <trkpt lat="44.49935" lon="0.66287">
        <ele>187</ele>
        <time>2015-12-27T10:22:11Z</time>
      </trkpt>
      <trkpt lat="44.4994" lon="0.66285">
        <ele>187</ele>
        <time>2015-12-27T10:22:16Z</time>
      </trkpt>
      <trkpt lat="44.49949" lon="0.66281">
        <ele>186</ele>
        <time>2015-12-27T10:22:21Z</time>
      </trkpt>
      <trkpt lat="44.49958" lon="0.66278">
        <ele>184</ele>
        <time>2015-12-27T10:22:26Z</time>
      </trkpt>
      <trkpt lat="44.49968" lon="0.6627">
        <ele>184</ele>
        <time>2015-12-27T10:22:31Z</time>
      </trkpt>
      <trkpt lat="44.49977" lon="0.66266">
        <ele>185</ele>
        <time>2015-12-27T10:22:37Z</time>
      </trkpt>
      <trkpt lat="44.49983" lon="0.6626">
        <ele>187</ele>
        <time>2015-12-27T10:22:41Z</time>
      </trkpt>
      <trkpt lat="44.49997" lon="0.66261">
        <ele>189</ele>
        <time>2015-12-27T10:22:49Z</time>
      </trkpt>
      <trkpt lat="44.5" lon="0.66261">
        <ele>189</ele>
        <time>2015-12-27T10:22:51Z</time>
      </trkpt>
      <trkpt lat="44.50006" lon="0.66263">
        <ele>190</ele>
        <time>2015-12-27T10:22:56Z</time>
      </trkpt>
      <trkpt lat="44.50014" lon="0.66264">
        <ele>192</ele>
        <time>2015-12-27T10:23:01Z</time>
      </trkpt>
      <trkpt lat="44.50023" lon="0.66269">
        <ele>195</ele>
        <time>2015-12-27T10:23:06Z</time>
      </trkpt>
      <trkpt lat="44.50036" lon="0.66275">
        <ele>198</ele>
        <time>2015-12-27T10:23:13Z</time>
      </trkpt>
      <trkpt lat="44.50042" lon="0.66278">
        <ele>197</ele>
        <time>2015-12-27T10:23:16Z</time>
      </trkpt>
      <trkpt lat="44.50062" lon="0.66288">
        <ele>194</ele>
        <time>2015-12-27T10:23:25Z</time>
      </trkpt>
      <trkpt lat="44.50065" lon="0.66287">
        <ele>193</ele>
        <time>2015-12-27T10:23:26Z</time>
      </trkpt>
      <trkpt lat="44.50078" lon="0.66303">
        <ele>193</ele>
        <time>2015-12-27T10:23:33Z</time>
      </trkpt>
      <trkpt lat="44.50081" lon="0.66306">
        <ele>192</ele>
        <time>2015-12-27T10:23:36Z</time>
      </trkpt>
      <trkpt lat="44.5009" lon="0.66319">
        <ele>192</ele>
        <time>2015-12-27T10:23:41Z</time>
      </trkpt>
      <trkpt lat="44.50099" lon="0.66332">
        <ele>192</ele>
        <time>2015-12-27T10:23:46Z</time>
      </trkpt>
      <trkpt lat="44.50104" lon="0.66342">
        <ele>190</ele>
        <time>2015-12-27T10:23:51Z</time>
      </trkpt>
      <trkpt lat="44.50111" lon="0.66352">
        <ele>190</ele>
        <time>2015-12-27T10:23:56Z</time>
      </trkpt>
      <trkpt lat="44.50117" lon="0.66359">
        <ele>190</ele>
        <time>2015-12-27T10:24:01Z</time>
      </trkpt>
      <trkpt lat="44.50122" lon="0.66369">
        <ele>192</ele>
        <time>2015-12-27T10:24:06Z</time>
      </trkpt>
      <trkpt lat="44.50129" lon="0.66377">
        <ele>195</ele>
        <time>2015-12-27T10:24:11Z</time>
      </trkpt>
      <trkpt lat="44.50136" lon="0.66383">
        <ele>194</ele>
        <time>2015-12-27T10:24:16Z</time>
      </trkpt>
      <trkpt lat="44.50148" lon="0.66388">
        <ele>195</ele>
        <time>2015-12-27T10:24:21Z</time>
      </trkpt>
      <trkpt lat="44.5016" lon="0.6639">
        <ele>194</ele>
        <time>2015-12-27T10:24:26Z</time>
      </trkpt>
      <trkpt lat="44.50172" lon="0.66389">
        <ele>194</ele>
        <time>2015-12-27T10:24:31Z</time>
      </trkpt>
      <trkpt lat="44.50182" lon="0.66391">
        <ele>194</ele>
        <time>2015-12-27T10:24:36Z</time>
      </trkpt>
      <trkpt lat="44.50193" lon="0.66391">
        <ele>193</ele>
        <time>2015-12-27T10:24:41Z</time>
      </trkpt>
      <trkpt lat="44.50207" lon="0.66394">
        <ele>190</ele>
        <time>2015-12-27T10:24:48Z</time>
      </trkpt>
      <trkpt lat="44.50217" lon="0.66395">
        <ele>191</ele>
        <time>2015-12-27T10:24:51Z</time>
      </trkpt>
      <trkpt lat="44.50232" lon="0.66401">
        <ele>192</ele>
        <time>2015-12-27T10:24:57Z</time>
      </trkpt>
      <trkpt lat="44.50239" lon="0.66404">
        <ele>194</ele>
        <time>2015-12-27T10:25:01Z</time>
      </trkpt>
      <trkpt lat="44.50248" lon="0.66411">
        <ele>196</ele>
        <time>2015-12-27T10:25:06Z</time>
      </trkpt>
      <trkpt lat="44.50259" lon="0.66412">
        <ele>196</ele>
        <time>2015-12-27T10:25:11Z</time>
      </trkpt>
      <trkpt lat="44.5027" lon="0.66414">
        <ele>196</ele>
        <time>2015-12-27T10:25:16Z</time>
      </trkpt>
      <trkpt lat="44.50278" lon="0.66416">
        <ele>197</ele>
        <time>2015-12-27T10:25:21Z</time>
      </trkpt>
      <trkpt lat="44.50291" lon="0.66419">
        <ele>198</ele>
        <time>2015-12-27T10:25:27Z</time>
      </trkpt>
      <trkpt lat="44.50299" lon="0.66421">
        <ele>198</ele>
        <time>2015-12-27T10:25:31Z</time>
      </trkpt>
      <trkpt lat="44.50309" lon="0.6642">
        <ele>199</ele>
        <time>2015-12-27T10:25:36Z</time>
      </trkpt>
      <trkpt lat="44.50317" lon="0.6642">
        <ele>200</ele>
        <time>2015-12-27T10:25:41Z</time>
      </trkpt>
      <trkpt lat="44.50325" lon="0.66418">
        <ele>199</ele>
        <time>2015-12-27T10:25:46Z</time>
      </trkpt>
      <trkpt lat="44.50334" lon="0.66415">
        <ele>200</ele>
        <time>2015-12-27T10:25:51Z</time>
      </trkpt>
      <trkpt lat="44.50342" lon="0.66415">
        <ele>200</ele>
        <time>2015-12-27T10:25:56Z</time>
      </trkpt>
      <trkpt lat="44.5035" lon="0.66412">
        <ele>199</ele>
        <time>2015-12-27T10:26:01Z</time>
      </trkpt>
      <trkpt lat="44.50355" lon="0.6641">
        <ele>199</ele>
        <time>2015-12-27T10:26:06Z</time>
      </trkpt>
      <trkpt lat="44.50355" lon="0.66409">
        <ele>199</ele>
        <time>2015-12-27T10:26:11Z</time>
      </trkpt>
      <trkpt lat="44.50356" lon="0.66409">
        <ele>199</ele>
        <time>2015-12-27T10:26:14Z</time>
      </trkpt>
      <trkpt lat="44.50356" lon="0.66409">
        <ele>200</ele>
        <time>2015-12-27T10:26:17Z</time>
      </trkpt>
      <trkpt lat="44.50356" lon="0.6641">
        <ele>200</ele>
        <time>2015-12-27T10:26:20Z</time>
      </trkpt>
      <trkpt lat="44.50356" lon="0.6641">
        <ele>200</ele>
        <time>2015-12-27T10:26:23Z</time>
      </trkpt>
      <trkpt lat="44.50356" lon="0.6641">
        <ele>200</ele>
        <time>2015-12-27T10:26:26Z</time>
      </trkpt>
      <trkpt lat="44.50356" lon="0.6641">
        <ele>200</ele>
        <time>2015-12-27T10:26:29Z</time>
      </trkpt>
      <trkpt lat="44.50361" lon="0.66406">
        <ele>199</ele>
        <time>2015-12-27T10:26:32Z</time>
      </trkpt>
      <trkpt lat="44.5037" lon="0.66396">
        <ele>198</ele>
        <time>2015-12-27T10:26:37Z</time>
      </trkpt>
      <trkpt lat="44.50381" lon="0.66378">
        <ele>197</ele>
        <time>2015-12-27T10:26:42Z</time>
      </trkpt>
      <trkpt lat="44.50397" lon="0.66349">
        <ele>194</ele>
        <time>2015-12-27T10:26:47Z</time>
      </trkpt>
      <trkpt lat="44.50416" lon="0.66313">
        <ele>192</ele>
        <time>2015-12-27T10:26:52Z</time>
      </trkpt>
      <trkpt lat="44.50433" lon="0.66275">
        <ele>191</ele>
        <time>2015-12-27T10:26:57Z</time>
      </trkpt>
      <trkpt lat="44.5044" lon="0.66252">
        <ele>192</ele>
        <time>2015-12-27T10:27:02Z</time>
      </trkpt>
      <trkpt lat="44.5045" lon="0.66227">
        <ele>192</ele>
        <time>2015-12-27T10:27:07Z</time>
      </trkpt>
      <trkpt lat="44.50462" lon="0.66207">
        <ele>195</ele>
        <time>2015-12-27T10:27:12Z</time>
      </trkpt>
      <trkpt lat="44.50473" lon="0.66187">
        <ele>199</ele>
        <time>2015-12-27T10:27:17Z</time>
      </trkpt>
      <trkpt lat="44.50482" lon="0.66174">
        <ele>199</ele>
        <time>2015-12-27T10:27:22Z</time>
      </trkpt>
      <trkpt lat="44.50488" lon="0.66153">
        <ele>196</ele>
        <time>2015-12-27T10:27:27Z</time>
      </trkpt>
      <trkpt lat="44.50494" lon="0.66127">
        <ele>194</ele>
        <time>2015-12-27T10:27:32Z</time>
      </trkpt>
      <trkpt lat="44.50501" lon="0.661">
        <ele>193</ele>
        <time>2015-12-27T10:27:37Z</time>
      </trkpt>
      <trkpt lat="44.50504" lon="0.66081">
        <ele>196</ele>
        <time>2015-12-27T10:27:42Z</time>
      </trkpt>
      <trkpt lat="44.50507" lon="0.66064">
        <ele>195</ele>
        <time>2015-12-27T10:27:47Z</time>
      </trkpt>
      <trkpt lat="44.50509" lon="0.66052">
        <ele>195</ele>
        <time>2015-12-27T10:27:52Z</time>
      </trkpt>
      <trkpt lat="44.50526" lon="0.6604">
        <ele>194</ele>
        <time>2015-12-27T10:27:59Z</time>
      </trkpt>
      <trkpt lat="44.50533" lon="0.66036">
        <ele>195</ele>
        <time>2015-12-27T10:28:02Z</time>
      </trkpt>
      <trkpt lat="44.50545" lon="0.66024">
        <ele>193</ele>
        <time>2015-12-27T10:28:07Z</time>
      </trkpt>
      <trkpt lat="44.50553" lon="0.66012">
        <ele>196</ele>
        <time>2015-12-27T10:28:12Z</time>
      </trkpt>
      <trkpt lat="44.50555" lon="0.66006">
        <ele>197</ele>
        <time>2015-12-27T10:28:17Z</time>
      </trkpt>
      <trkpt lat="44.5056" lon="0.65998">
        <ele>197</ele>
        <time>2015-12-27T10:28:22Z</time>
      </trkpt>
      <trkpt lat="44.50569" lon="0.65984">
        <ele>195</ele>
        <time>2015-12-27T10:28:27Z</time>
      </trkpt>
      <trkpt lat="44.50572" lon="0.65976">
        <ele>196</ele>
        <time>2015-12-27T10:28:32Z</time>
      </trkpt>
      <trkpt lat="44.50574" lon="0.65976">
        <ele>195</ele>
        <time>2015-12-27T10:28:39Z</time>
      </trkpt>
      <trkpt lat="44.50574" lon="0.65976">
        <ele>198</ele>
        <time>2015-12-27T10:28:41Z</time>
      </trkpt>
      <trkpt lat="44.50576" lon="0.65972">
        <ele>198</ele>
        <time>2015-12-27T10:28:47Z</time>
      </trkpt>
      <trkpt lat="44.50576" lon="0.6597">
        <ele>196</ele>
        <time>2015-12-27T10:28:48Z</time>
      </trkpt>
      <trkpt lat="44.50578" lon="0.65965">
        <ele>190</ele>
        <time>2015-12-27T10:28:53Z</time>
      </trkpt>
      <trkpt lat="44.50589" lon="0.65939">
        <ele>186</ele>
        <time>2015-12-27T10:29:01Z</time>
      </trkpt>
      <trkpt lat="44.50596" lon="0.65931">
        <ele>187</ele>
        <time>2015-12-27T10:29:03Z</time>
      </trkpt>
      <trkpt lat="44.50609" lon="0.65914">
        <ele>188</ele>
        <time>2015-12-27T10:29:08Z</time>
      </trkpt>
      <trkpt lat="44.50619" lon="0.65881">
        <ele>192</ele>
        <time>2015-12-27T10:29:17Z</time>
      </trkpt>
      <trkpt lat="44.50621" lon="0.65881">
        <ele>192</ele>
        <time>2015-12-27T10:29:18Z</time>
      </trkpt>
      <trkpt lat="44.50625" lon="0.6588">
        <ele>195</ele>
        <time>2015-12-27T10:29:23Z</time>
      </trkpt>
      <trkpt lat="44.50625" lon="0.65879">
        <ele>196</ele>
        <time>2015-12-27T10:29:28Z</time>
      </trkpt>
      <trkpt lat="44.50625" lon="0.65879">
        <ele>195</ele>
        <time>2015-12-27T10:29:31Z</time>
      </trkpt>
      <trkpt lat="44.50624" lon="0.65878">
        <ele>194</ele>
        <time>2015-12-27T10:29:34Z</time>
      </trkpt>
      <trkpt lat="44.50626" lon="0.65872">
        <ele>194</ele>
        <time>2015-12-27T10:29:39Z</time>
      </trkpt>
      <trkpt lat="44.50631" lon="0.65839">
        <ele>188</ele>
        <time>2015-12-27T10:29:48Z</time>
      </trkpt>
      <trkpt lat="44.50632" lon="0.65837">
        <ele>189</ele>
        <time>2015-12-27T10:29:49Z</time>
      </trkpt>
      <trkpt lat="44.50645" lon="0.6582">
        <ele>189</ele>
        <time>2015-12-27T10:29:55Z</time>
      </trkpt>
      <trkpt lat="44.50653" lon="0.65812">
        <ele>187</ele>
        <time>2015-12-27T10:29:59Z</time>
      </trkpt>
      <trkpt lat="44.50665" lon="0.65807">
        <ele>191</ele>
        <time>2015-12-27T10:30:04Z</time>
      </trkpt>
      <trkpt lat="44.50676" lon="0.6581">
        <ele>189</ele>
        <time>2015-12-27T10:30:11Z</time>
      </trkpt>
      <trkpt lat="44.50679" lon="0.65811">
        <ele>191</ele>
        <time>2015-12-27T10:30:14Z</time>
      </trkpt>
      <trkpt lat="44.50685" lon="0.65813">
        <ele>194</ele>
        <time>2015-12-27T10:30:19Z</time>
      </trkpt>
      <trkpt lat="44.50689" lon="0.65814">
        <ele>195</ele>
        <time>2015-12-27T10:30:24Z</time>
      </trkpt>
      <trkpt lat="44.50697" lon="0.65815">
        <ele>197</ele>
        <time>2015-12-27T10:30:31Z</time>
      </trkpt>
      <trkpt lat="44.50702" lon="0.65813">
        <ele>197</ele>
        <time>2015-12-27T10:30:34Z</time>
      </trkpt>
      <trkpt lat="44.50707" lon="0.65813">
        <ele>197</ele>
        <time>2015-12-27T10:30:39Z</time>
      </trkpt>
      <trkpt lat="44.50713" lon="0.65813">
        <ele>200</ele>
        <time>2015-12-27T10:30:44Z</time>
      </trkpt>
      <trkpt lat="44.50719" lon="0.6581">
        <ele>199</ele>
        <time>2015-12-27T10:30:49Z</time>
      </trkpt>
      <trkpt lat="44.50724" lon="0.65807">
        <ele>200</ele>
        <time>2015-12-27T10:30:55Z</time>
      </trkpt>
      <trkpt lat="44.50726" lon="0.65811">
        <ele>199</ele>
        <time>2015-12-27T10:30:58Z</time>
      </trkpt>
      <trkpt lat="44.50734" lon="0.65809">
        <ele>198</ele>
        <time>2015-12-27T10:31:03Z</time>
      </trkpt>
      <trkpt lat="44.50743" lon="0.65807">
        <ele>196</ele>
        <time>2015-12-27T10:31:10Z</time>
      </trkpt>
      <trkpt lat="44.50746" lon="0.65807">
        <ele>196</ele>
        <time>2015-12-27T10:31:12Z</time>
      </trkpt>
      <trkpt lat="44.50753" lon="0.65804">
        <ele>198</ele>
        <time>2015-12-27T10:31:18Z</time>
      </trkpt>
      <trkpt lat="44.50759" lon="0.65801">
        <ele>199</ele>
        <time>2015-12-27T10:31:22Z</time>
      </trkpt>
      <trkpt lat="44.50766" lon="0.65795">
        <ele>199</ele>
        <time>2015-12-27T10:31:26Z</time>
      </trkpt>
      <trkpt lat="44.50776" lon="0.65787">
        <ele>200</ele>
        <time>2015-12-27T10:31:31Z</time>
      </trkpt>
      <trkpt lat="44.50788" lon="0.65778">
        <ele>199</ele>
        <time>2015-12-27T10:31:36Z</time>
      </trkpt>
      <trkpt lat="44.50797" lon="0.6577">
        <ele>201</ele>
        <time>2015-12-27T10:31:40Z</time>
      </trkpt>
      <trkpt lat="44.50807" lon="0.65753">
        <ele>198</ele>
        <time>2015-12-27T10:31:45Z</time>
      </trkpt>
      <trkpt lat="44.50815" lon="0.65743">
        <ele>198</ele>
        <time>2015-12-27T10:31:49Z</time>
      </trkpt>
      <trkpt lat="44.50826" lon="0.65731">
        <ele>197</ele>
        <time>2015-12-27T10:31:54Z</time>
      </trkpt>
      <trkpt lat="44.50832" lon="0.65726">
        <ele>196</ele>
        <time>2015-12-27T10:31:57Z</time>
      </trkpt>
      <trkpt lat="44.50843" lon="0.65712">
        <ele>195</ele>
        <time>2015-12-27T10:32:02Z</time>
      </trkpt>
      <trkpt lat="44.50849" lon="0.65703">
        <ele>196</ele>
        <time>2015-12-27T10:32:06Z</time>
      </trkpt>
      <trkpt lat="44.50854" lon="0.657">
        <ele>199</ele>
        <time>2015-12-27T10:32:10Z</time>
      </trkpt>
      <trkpt lat="44.50861" lon="0.6569">
        <ele>199</ele>
        <time>2015-12-27T10:32:15Z</time>
      </trkpt>
      <trkpt lat="44.50867" lon="0.65691">
        <ele>203</ele>
        <time>2015-12-27T10:32:19Z</time>
      </trkpt>
      <trkpt lat="44.50871" lon="0.65694">
        <ele>203</ele>
        <time>2015-12-27T10:32:23Z</time>
      </trkpt>
      <trkpt lat="44.50876" lon="0.65697">
        <ele>202</ele>
        <time>2015-12-27T10:32:28Z</time>
      </trkpt>
      <trkpt lat="44.50878" lon="0.65699">
        <ele>202</ele>
        <time>2015-12-27T10:32:33Z</time>
      </trkpt>
      <trkpt lat="44.50883" lon="0.65704">
        <ele>204</ele>
        <time>2015-12-27T10:32:41Z</time>
      </trkpt>
      <trkpt lat="44.50884" lon="0.65704">
        <ele>203</ele>
        <time>2015-12-27T10:32:42Z</time>
      </trkpt>
      <trkpt lat="44.50889" lon="0.65703">
        <ele>204</ele>
        <time>2015-12-27T10:32:47Z</time>
      </trkpt>
      <trkpt lat="44.50892" lon="0.65706">
        <ele>204</ele>
        <time>2015-12-27T10:32:51Z</time>
      </trkpt>
      <trkpt lat="44.50899" lon="0.65706">
        <ele>205</ele>
        <time>2015-12-27T10:32:57Z</time>
      </trkpt>
      <trkpt lat="44.50901" lon="0.65708">
        <ele>208</ele>
        <time>2015-12-27T10:33:01Z</time>
      </trkpt>
      <trkpt lat="44.509" lon="0.65709">
        <ele>207</ele>
        <time>2015-12-27T10:33:07Z</time>
      </trkpt>
      <trkpt lat="44.509" lon="0.65709">
        <ele>207</ele>
        <time>2015-12-27T10:33:08Z</time>
      </trkpt>
      <trkpt lat="44.509" lon="0.65709">
        <ele>207</ele>
        <time>2015-12-27T10:33:10Z</time>
      </trkpt>
      <trkpt lat="44.509" lon="0.65709">
        <ele>207</ele>
        <time>2015-12-27T10:33:13Z</time>
      </trkpt>
      <trkpt lat="44.509" lon="0.65709">
        <ele>207</ele>
        <time>2015-12-27T10:33:16Z</time>
      </trkpt>
      <trkpt lat="44.509" lon="0.65709">
        <ele>207</ele>
        <time>2015-12-27T10:33:19Z</time>
      </trkpt>
      <trkpt lat="44.509" lon="0.65709">
        <ele>207</ele>
        <time>2015-12-27T10:33:22Z</time>
      </trkpt>
      <trkpt lat="44.50901" lon="0.6571">
        <ele>207</ele>
        <time>2015-12-27T10:33:25Z</time>
      </trkpt>
      <trkpt lat="44.50905" lon="0.6571">
        <ele>207</ele>
        <time>2015-12-27T10:33:29Z</time>
      </trkpt>
      <trkpt lat="44.50906" lon="0.6571">
        <ele>208</ele>
        <time>2015-12-27T10:33:33Z</time>
      </trkpt>
      <trkpt lat="44.50908" lon="0.65711">
        <ele>209</ele>
        <time>2015-12-27T10:33:36Z</time>
      </trkpt>
      <trkpt lat="44.50917" lon="0.65713">
        <ele>211</ele>
        <time>2015-12-27T10:33:41Z</time>
      </trkpt>
      <trkpt lat="44.50923" lon="0.65712">
        <ele>210</ele>
        <time>2015-12-27T10:33:46Z</time>
      </trkpt>
      <trkpt lat="44.50929" lon="0.65716">
        <ele>209</ele>
        <time>2015-12-27T10:33:52Z</time>
      </trkpt>
      <trkpt lat="44.50935" lon="0.65722">
        <ele>209</ele>
        <time>2015-12-27T10:33:56Z</time>
      </trkpt>
      <trkpt lat="44.5094" lon="0.65728">
        <ele>206</ele>
        <time>2015-12-27T10:34:00Z</time>
      </trkpt>
      <trkpt lat="44.50946" lon="0.6576">
        <ele>207</ele>
        <time>2015-12-27T10:34:09Z</time>
      </trkpt>
      <trkpt lat="44.50946" lon="0.65765">
        <ele>206</ele>
        <time>2015-12-27T10:34:10Z</time>
      </trkpt>
      <trkpt lat="44.50949" lon="0.65798">
        <ele>207</ele>
        <time>2015-12-27T10:34:16Z</time>
      </trkpt>
      <trkpt lat="44.50953" lon="0.65821">
        <ele>208</ele>
        <time>2015-12-27T10:34:20Z</time>
      </trkpt>
      <trkpt lat="44.50956" lon="0.65847">
        <ele>207</ele>
        <time>2015-12-27T10:34:25Z</time>
      </trkpt>
      <trkpt lat="44.5096" lon="0.65872">
        <ele>207</ele>
        <time>2015-12-27T10:34:30Z</time>
      </trkpt>
      <trkpt lat="44.50963" lon="0.65892">
        <ele>208</ele>
        <time>2015-12-27T10:34:34Z</time>
      </trkpt>
      <trkpt lat="44.50967" lon="0.65923">
        <ele>209</ele>
        <time>2015-12-27T10:34:39Z</time>
      </trkpt>
      <trkpt lat="44.50971" lon="0.65949">
        <ele>212</ele>
        <time>2015-12-27T10:34:44Z</time>
      </trkpt>
      <trkpt lat="44.50976" lon="0.65986">
        <ele>214</ele>
        <time>2015-12-27T10:34:51Z</time>
      </trkpt>
      <trkpt lat="44.50978" lon="0.66004">
        <ele>214</ele>
        <time>2015-12-27T10:34:54Z</time>
      </trkpt>
      <trkpt lat="44.50986" lon="0.66042">
        <ele>212</ele>
        <time>2015-12-27T10:35:01Z</time>
      </trkpt>
      <trkpt lat="44.50993" lon="0.66057">
        <ele>211</ele>
        <time>2015-12-27T10:35:04Z</time>
      </trkpt>
      <trkpt lat="44.51003" lon="0.66085">
        <ele>209</ele>
        <time>2015-12-27T10:35:09Z</time>
      </trkpt>
      <trkpt lat="44.51012" lon="0.66116">
        <ele>208</ele>
        <time>2015-12-27T10:35:14Z</time>
      </trkpt>
      <trkpt lat="44.51022" lon="0.6615">
        <ele>206</ele>
        <time>2015-12-27T10:35:19Z</time>
      </trkpt>
      <trkpt lat="44.51031" lon="0.66178">
        <ele>206</ele>
        <time>2015-12-27T10:35:23Z</time>
      </trkpt>
      <trkpt lat="44.51043" lon="0.66204">
        <ele>206</ele>
        <time>2015-12-27T10:35:27Z</time>
      </trkpt>
      <trkpt lat="44.51063" lon="0.66221">
        <ele>205</ele>
        <time>2015-12-27T10:35:31Z</time>
      </trkpt>
      <trkpt lat="44.51086" lon="0.66199">
        <ele>201</ele>
        <time>2015-12-27T10:35:36Z</time>
      </trkpt>
      <trkpt lat="44.51102" lon="0.6618">
        <ele>200</ele>
        <time>2015-12-27T10:35:40Z</time>
      </trkpt>
      <trkpt lat="44.51115" lon="0.66156">
        <ele>196</ele>
        <time>2015-12-27T10:35:44Z</time>
      </trkpt>
      <trkpt lat="44.51126" lon="0.66133">
        <ele>193</ele>
        <time>2015-12-27T10:35:53Z</time>
      </trkpt>
      <trkpt lat="44.51127" lon="0.66133">
        <ele>193</ele>
        <time>2015-12-27T10:35:54Z</time>
      </trkpt>
      <trkpt lat="44.51127" lon="0.66132">
        <ele>194</ele>
        <time>2015-12-27T10:35:58Z</time>
      </trkpt>
      <trkpt lat="44.51127" lon="0.66132">
        <ele>194</ele>
        <time>2015-12-27T10:36:00Z</time>
      </trkpt>
      <trkpt lat="44.51127" lon="0.66133">
        <ele>195</ele>
        <time>2015-12-27T10:36:05Z</time>
      </trkpt>
      <trkpt lat="44.51127" lon="0.66133">
        <ele>194</ele>
        <time>2015-12-27T10:36:06Z</time>
      </trkpt>
      <trkpt lat="44.51127" lon="0.66133">
        <ele>194</ele>
        <time>2015-12-27T10:36:08Z</time>
      </trkpt>
      <trkpt lat="44.51127" lon="0.66133">
        <ele>194</ele>
        <time>2015-12-27T10:36:11Z</time>
      </trkpt>
      <trkpt lat="44.51127" lon="0.66133">
        <ele>195</ele>
        <time>2015-12-27T10:36:15Z</time>
      </trkpt>
      <trkpt lat="44.51127" lon="0.66133">
        <ele>195</ele>
        <time>2015-12-27T10:36:17Z</time>
      </trkpt>
      <trkpt lat="44.51127" lon="0.66133">
        <ele>195</ele>
        <time>2015-12-27T10:36:20Z</time>
      </trkpt>
      <trkpt lat="44.51135" lon="0.66136">
        <ele>192</ele>
        <time>2015-12-27T10:36:25Z</time>
      </trkpt>
      <trkpt lat="44.51157" lon="0.66141">
        <ele>188</ele>
        <time>2015-12-27T10:36:29Z</time>
      </trkpt>
      <trkpt lat="44.51191" lon="0.66134">
        <ele>188</ele>
        <time>2015-12-27T10:36:33Z</time>
      </trkpt>
      <trkpt lat="44.51238" lon="0.66109">
        <ele>186</ele>
        <time>2015-12-27T10:36:38Z</time>
      </trkpt>
      <trkpt lat="44.51289" lon="0.66108">
        <ele>178</ele>
        <time>2015-12-27T10:36:43Z</time>
      </trkpt>
      <trkpt lat="44.51361" lon="0.66103">
        <ele>166</ele>
        <time>2015-12-27T10:36:49Z</time>
      </trkpt>
      <trkpt lat="44.51398" lon="0.66113">
        <ele>162</ele>
        <time>2015-12-27T10:36:53Z</time>
      </trkpt>
      <trkpt lat="44.51443" lon="0.6606">
        <ele>157</ele>
        <time>2015-12-27T10:36:58Z</time>
      </trkpt>
      <trkpt lat="44.51511" lon="0.65979">
        <ele>146</ele>
        <time>2015-12-27T10:37:05Z</time>
      </trkpt>
      <trkpt lat="44.51546" lon="0.65944">
        <ele>142</ele>
        <time>2015-12-27T10:37:08Z</time>
      </trkpt>
      <trkpt lat="44.51637" lon="0.65845">
        <ele>131</ele>
        <time>2015-12-27T10:37:16Z</time>
      </trkpt>
      <trkpt lat="44.51659" lon="0.65821">
        <ele>130</ele>
        <time>2015-12-27T10:37:18Z</time>
      </trkpt>
      <trkpt lat="44.51708" lon="0.65771">
        <ele>128</ele>
        <time>2015-12-27T10:37:23Z</time>
      </trkpt>
      <trkpt lat="44.51754" lon="0.65716">
        <ele>128</ele>
        <time>2015-12-27T10:37:28Z</time>
      </trkpt>
      <trkpt lat="44.51794" lon="0.65657">
        <ele>129</ele>
        <time>2015-12-27T10:37:33Z</time>
      </trkpt>
      <trkpt lat="44.51832" lon="0.65611">
        <ele>129</ele>
        <time>2015-12-27T10:37:38Z</time>
      </trkpt>
      <trkpt lat="44.51879" lon="0.65567">
        <ele>130</ele>
        <time>2015-12-27T10:37:44Z</time>
      </trkpt>
      <trkpt lat="44.51912" lon="0.65539">
        <ele>130</ele>
        <time>2015-12-27T10:37:48Z</time>
      </trkpt>
      <trkpt lat="44.51931" lon="0.65501">
        <ele>130</ele>
        <time>2015-12-27T10:37:53Z</time>
      </trkpt>
      <trkpt lat="44.51926" lon="0.65475">
        <ele>127</ele>
        <time>2015-12-27T10:37:57Z</time>
      </trkpt>
      <trkpt lat="44.51897" lon="0.65422">
        <ele>120</ele>
        <time>2015-12-27T10:38:06Z</time>
      </trkpt>
      <trkpt lat="44.51893" lon="0.65414">
        <ele>120</ele>
        <time>2015-12-27T10:38:07Z</time>
      </trkpt>
      <trkpt lat="44.51874" lon="0.65376">
        <ele>116</ele>
        <time>2015-12-27T10:38:12Z</time>
      </trkpt>
      <trkpt lat="44.51862" lon="0.65332">
        <ele>115</ele>
        <time>2015-12-27T10:38:17Z</time>
      </trkpt>
      <trkpt lat="44.5186" lon="0.65289">
        <ele>120</ele>
        <time>2015-12-27T10:38:22Z</time>
      </trkpt>
      <trkpt lat="44.5186" lon="0.65243">
        <ele>119</ele>
        <time>2015-12-27T10:38:27Z</time>
      </trkpt>
      <trkpt lat="44.51863" lon="0.65197">
        <ele>121</ele>
        <time>2015-12-27T10:38:32Z</time>
      </trkpt>
      <trkpt lat="44.51866" lon="0.6516">
        <ele>120</ele>
        <time>2015-12-27T10:38:36Z</time>
      </trkpt>
      <trkpt lat="44.51868" lon="0.65123">
        <ele>120</ele>
        <time>2015-12-27T10:38:40Z</time>
      </trkpt>
      <trkpt lat="44.51872" lon="0.65086">
        <ele>121</ele>
        <time>2015-12-27T10:38:44Z</time>
      </trkpt>
      <trkpt lat="44.51873" lon="0.65047">
        <ele>122</ele>
        <time>2015-12-27T10:38:48Z</time>
      </trkpt>
      <trkpt lat="44.51876" lon="0.65008">
        <ele>122</ele>
        <time>2015-12-27T10:38:52Z</time>
      </trkpt>
      <trkpt lat="44.5187" lon="0.6496">
        <ele>120</ele>
        <time>2015-12-27T10:38:57Z</time>
      </trkpt>
      <trkpt lat="44.51862" lon="0.64916">
        <ele>121</ele>
        <time>2015-12-27T10:39:02Z</time>
      </trkpt>
      <trkpt lat="44.5186" lon="0.64885">
        <ele>125</ele>
        <time>2015-12-27T10:39:06Z</time>
      </trkpt>
      <trkpt lat="44.51859" lon="0.64853">
        <ele>125</ele>
        <time>2015-12-27T10:39:10Z</time>
      </trkpt>
      <trkpt lat="44.5185" lon="0.64824">
        <ele>126</ele>
        <time>2015-12-27T10:39:15Z</time>
      </trkpt>
      <trkpt lat="44.51844" lon="0.64758">
        <ele>126</ele>
        <time>2015-12-27T10:39:24Z</time>
      </trkpt>
      <trkpt lat="44.51843" lon="0.64743">
        <ele>126</ele>
        <time>2015-12-27T10:39:26Z</time>
      </trkpt>
      <trkpt lat="44.51842" lon="0.64712">
        <ele>126</ele>
        <time>2015-12-27T10:39:30Z</time>
      </trkpt>
      <trkpt lat="44.51835" lon="0.64664">
        <ele>126</ele>
        <time>2015-12-27T10:39:36Z</time>
      </trkpt>
      <trkpt lat="44.51835" lon="0.64634">
        <ele>126</ele>
        <time>2015-12-27T10:39:40Z</time>
      </trkpt>
      <trkpt lat="44.51835" lon="0.64618">
        <ele>127</ele>
        <time>2015-12-27T10:39:42Z</time>
      </trkpt>
      <trkpt lat="44.51838" lon="0.64579">
        <ele>129</ele>
        <time>2015-12-27T10:39:47Z</time>
      </trkpt>
      <trkpt lat="44.5184" lon="0.64548">
        <ele>131</ele>
        <time>2015-12-27T10:39:51Z</time>
      </trkpt>
      <trkpt lat="44.51842" lon="0.64516">
        <ele>132</ele>
        <time>2015-12-27T10:39:55Z</time>
      </trkpt>
      <trkpt lat="44.51842" lon="0.64471">
        <ele>135</ele>
        <time>2015-12-27T10:40:01Z</time>
      </trkpt>
      <trkpt lat="44.51842" lon="0.64449">
        <ele>135</ele>
        <time>2015-12-27T10:40:04Z</time>
      </trkpt>
      <trkpt lat="44.51845" lon="0.6441">
        <ele>135</ele>
        <time>2015-12-27T10:40:09Z</time>
      </trkpt>
      <trkpt lat="44.51849" lon="0.64391">
        <ele>133</ele>
        <time>2015-12-27T10:40:12Z</time>
      </trkpt>
      <trkpt lat="44.51863" lon="0.64359">
        <ele>133</ele>
        <time>2015-12-27T10:40:17Z</time>
      </trkpt>
      <trkpt lat="44.51879" lon="0.64322">
        <ele>132</ele>
        <time>2015-12-27T10:40:25Z</time>
      </trkpt>
      <trkpt lat="44.51884" lon="0.64314">
        <ele>133</ele>
        <time>2015-12-27T10:40:27Z</time>
      </trkpt>
      <trkpt lat="44.51893" lon="0.64293">
        <ele>135</ele>
        <time>2015-12-27T10:40:32Z</time>
      </trkpt>
      <trkpt lat="44.51901" lon="0.6428">
        <ele>136</ele>
        <time>2015-12-27T10:40:36Z</time>
      </trkpt>
      <trkpt lat="44.51909" lon="0.64259">
        <ele>136</ele>
        <time>2015-12-27T10:40:41Z</time>
      </trkpt>
      <trkpt lat="44.51918" lon="0.64242">
        <ele>138</ele>
        <time>2015-12-27T10:40:46Z</time>
      </trkpt>
      <trkpt lat="44.51925" lon="0.64224">
        <ele>137</ele>
        <time>2015-12-27T10:40:51Z</time>
      </trkpt>
      <trkpt lat="44.51932" lon="0.6421">
        <ele>138</ele>
        <time>2015-12-27T10:40:56Z</time>
      </trkpt>
      <trkpt lat="44.5194" lon="0.64195">
        <ele>140</ele>
        <time>2015-12-27T10:41:00Z</time>
      </trkpt>
      <trkpt lat="44.5195" lon="0.64175">
        <ele>141</ele>
        <time>2015-12-27T10:41:06Z</time>
      </trkpt>
      <trkpt lat="44.51957" lon="0.64165">
        <ele>142</ele>
        <time>2015-12-27T10:41:10Z</time>
      </trkpt>
      <trkpt lat="44.51967" lon="0.64141">
        <ele>141</ele>
        <time>2015-12-27T10:41:18Z</time>
      </trkpt>
      <trkpt lat="44.51968" lon="0.64138">
        <ele>141</ele>
        <time>2015-12-27T10:41:19Z</time>
      </trkpt>
      <trkpt lat="44.51976" lon="0.64121">
        <ele>141</ele>
        <time>2015-12-27T10:41:24Z</time>
      </trkpt>
      <trkpt lat="44.51992" lon="0.64103">
        <ele>138</ele>
        <time>2015-12-27T10:41:30Z</time>
      </trkpt>
      <trkpt lat="44.52013" lon="0.64083">
        <ele>137</ele>
        <time>2015-12-27T10:41:36Z</time>
      </trkpt>
      <trkpt lat="44.5202" lon="0.64075">
        <ele>137</ele>
        <time>2015-12-27T10:41:38Z</time>
      </trkpt>
      <trkpt lat="44.52064" lon="0.64038">
        <ele>136</ele>
        <time>2015-12-27T10:41:47Z</time>
      </trkpt>
      <trkpt lat="44.52099" lon="0.64025">
        <ele>135</ele>
        <time>2015-12-27T10:41:52Z</time>
      </trkpt>
      <trkpt lat="44.52108" lon="0.64024">
        <ele>136</ele>
        <time>2015-12-27T10:41:53Z</time>
      </trkpt>
      <trkpt lat="44.52141" lon="0.64021">
        <ele>136</ele>
        <time>2015-12-27T10:41:58Z</time>
      </trkpt>
      <trkpt lat="44.52161" lon="0.6402">
        <ele>136</ele>
        <time>2015-12-27T10:42:04Z</time>
      </trkpt>
      <trkpt lat="44.52175" lon="0.64018">
        <ele>134</ele>
        <time>2015-12-27T10:42:08Z</time>
      </trkpt>
      <trkpt lat="44.52202" lon="0.64014">
        <ele>136</ele>
        <time>2015-12-27T10:42:13Z</time>
      </trkpt>
      <trkpt lat="44.52236" lon="0.64008">
        <ele>134</ele>
        <time>2015-12-27T10:42:18Z</time>
      </trkpt>
      <trkpt lat="44.52276" lon="0.64003">
        <ele>130</ele>
        <time>2015-12-27T10:42:23Z</time>
      </trkpt>
      <trkpt lat="44.5232" lon="0.63995">
        <ele>124</ele>
        <time>2015-12-27T10:42:28Z</time>
      </trkpt>
      <trkpt lat="44.52361" lon="0.63983">
        <ele>121</ele>
        <time>2015-12-27T10:42:33Z</time>
      </trkpt>
      <trkpt lat="44.52409" lon="0.63952">
        <ele>119</ele>
        <time>2015-12-27T10:42:40Z</time>
      </trkpt>
      <trkpt lat="44.52425" lon="0.6393">
        <ele>117</ele>
        <time>2015-12-27T10:42:43Z</time>
      </trkpt>
      <trkpt lat="44.52447" lon="0.63911">
        <ele>117</ele>
        <time>2015-12-27T10:42:48Z</time>
      </trkpt>
      <trkpt lat="44.52469" lon="0.63904">
        <ele>118</ele>
        <time>2015-12-27T10:42:53Z</time>
      </trkpt>
      <trkpt lat="44.52509" lon="0.63893">
        <ele>122</ele>
        <time>2015-12-27T10:43:02Z</time>
      </trkpt>
      <trkpt lat="44.52512" lon="0.6389">
        <ele>122</ele>
        <time>2015-12-27T10:43:03Z</time>
      </trkpt>
      <trkpt lat="44.52523" lon="0.63864">
        <ele>119</ele>
        <time>2015-12-27T10:43:08Z</time>
      </trkpt>
      <trkpt lat="44.52533" lon="0.63837">
        <ele>123</ele>
        <time>2015-12-27T10:43:17Z</time>
      </trkpt>
      <trkpt lat="44.52535" lon="0.63828">
        <ele>123</ele>
        <time>2015-12-27T10:43:19Z</time>
      </trkpt>
      <trkpt lat="44.52541" lon="0.63808">
        <ele>127</ele>
        <time>2015-12-27T10:43:25Z</time>
      </trkpt>
      <trkpt lat="44.52544" lon="0.638">
        <ele>132</ele>
        <time>2015-12-27T10:43:31Z</time>
      </trkpt>
      <trkpt lat="44.52545" lon="0.63798">
        <ele>132</ele>
        <time>2015-12-27T10:43:33Z</time>
      </trkpt>
      <trkpt lat="44.52552" lon="0.63786">
        <ele>133</ele>
        <time>2015-12-27T10:43:38Z</time>
      </trkpt>
      <trkpt lat="44.52557" lon="0.63778">
        <ele>135</ele>
        <time>2015-12-27T10:43:43Z</time>
      </trkpt>
      <trkpt lat="44.52563" lon="0.63766">
        <ele>136</ele>
        <time>2015-12-27T10:43:48Z</time>
      </trkpt>
      <trkpt lat="44.52582" lon="0.63743">
        <ele>135</ele>
        <time>2015-12-27T10:43:57Z</time>
      </trkpt>
      <trkpt lat="44.52588" lon="0.63732">
        <ele>134</ele>
        <time>2015-12-27T10:44:00Z</time>
      </trkpt>
      <trkpt lat="44.52593" lon="0.63727">
        <ele>136</ele>
        <time>2015-12-27T10:44:03Z</time>
      </trkpt>
      <trkpt lat="44.52602" lon="0.63711">
        <ele>133</ele>
        <time>2015-12-27T10:44:08Z</time>
      </trkpt>
      <trkpt lat="44.52612" lon="0.63697">
        <ele>133</ele>
        <time>2015-12-27T10:44:14Z</time>
      </trkpt>
      <trkpt lat="44.52619" lon="0.63687">
        <ele>133</ele>
        <time>2015-12-27T10:44:18Z</time>
      </trkpt>
      <trkpt lat="44.52626" lon="0.63669">
        <ele>135</ele>
        <time>2015-12-27T10:44:24Z</time>
      </trkpt>
      <trkpt lat="44.52631" lon="0.63658">
        <ele>137</ele>
        <time>2015-12-27T10:44:28Z</time>
      </trkpt>
      <trkpt lat="44.5264" lon="0.63637">
        <ele>139</ele>
        <time>2015-12-27T10:44:35Z</time>
      </trkpt>
      <trkpt lat="44.52643" lon="0.63629">
        <ele>140</ele>
        <time>2015-12-27T10:44:38Z</time>
      </trkpt>
      <trkpt lat="44.5265" lon="0.63618">
        <ele>142</ele>
        <time>2015-12-27T10:44:43Z</time>
      </trkpt>
      <trkpt lat="44.52657" lon="0.63604">
        <ele>143</ele>
        <time>2015-12-27T10:44:48Z</time>
      </trkpt>
      <trkpt lat="44.52666" lon="0.63594">
        <ele>145</ele>
        <time>2015-12-27T10:44:53Z</time>
      </trkpt>
      <trkpt lat="44.52677" lon="0.63587">
        <ele>144</ele>
        <time>2015-12-27T10:44:58Z</time>
      </trkpt>
      <trkpt lat="44.52698" lon="0.63585">
        <ele>142</ele>
        <time>2015-12-27T10:45:04Z</time>
      </trkpt>
      <trkpt lat="44.52718" lon="0.63589">
        <ele>141</ele>
        <time>2015-12-27T10:45:08Z</time>
      </trkpt>
      <trkpt lat="44.52774" lon="0.63597">
        <ele>138</ele>
        <time>2015-12-27T10:45:16Z</time>
      </trkpt>
      <trkpt lat="44.52783" lon="0.63596">
        <ele>138</ele>
        <time>2015-12-27T10:45:17Z</time>
      </trkpt>
      <trkpt lat="44.52803" lon="0.63561">
        <ele>138</ele>
        <time>2015-12-27T10:45:22Z</time>
      </trkpt>
      <trkpt lat="44.5281" lon="0.63528">
        <ele>141</ele>
        <time>2015-12-27T10:45:27Z</time>
      </trkpt>
      <trkpt lat="44.52811" lon="0.63498">
        <ele>139</ele>
        <time>2015-12-27T10:45:32Z</time>
      </trkpt>
      <trkpt lat="44.52813" lon="0.63469">
        <ele>142</ele>
        <time>2015-12-27T10:45:37Z</time>
      </trkpt>
      <trkpt lat="44.52821" lon="0.63401">
        <ele>140</ele>
        <time>2015-12-27T10:45:46Z</time>
      </trkpt>
      <trkpt lat="44.52824" lon="0.63365">
        <ele>140</ele>
        <time>2015-12-27T10:45:50Z</time>
      </trkpt>
      <trkpt lat="44.52825" lon="0.63348">
        <ele>141</ele>
        <time>2015-12-27T10:45:52Z</time>
      </trkpt>
      <trkpt lat="44.5283" lon="0.63308">
        <ele>142</ele>
        <time>2015-12-27T10:45:57Z</time>
      </trkpt>
      <trkpt lat="44.52836" lon="0.63268">
        <ele>140</ele>
        <time>2015-12-27T10:46:02Z</time>
      </trkpt>
      <trkpt lat="44.52847" lon="0.63231">
        <ele>140</ele>
        <time>2015-12-27T10:46:07Z</time>
      </trkpt>
      <trkpt lat="44.52859" lon="0.63193">
        <ele>140</ele>
        <time>2015-12-27T10:46:12Z</time>
      </trkpt>
      <trkpt lat="44.52873" lon="0.63161">
        <ele>143</ele>
        <time>2015-12-27T10:46:17Z</time>
      </trkpt>
      <trkpt lat="44.52891" lon="0.63124">
        <ele>143</ele>
        <time>2015-12-27T10:46:22Z</time>
      </trkpt>
      <trkpt lat="44.52906" lon="0.63082">
        <ele>142</ele>
        <time>2015-12-27T10:46:27Z</time>
      </trkpt>
      <trkpt lat="44.52926" lon="0.63039">
        <ele>141</ele>
        <time>2015-12-27T10:46:32Z</time>
      </trkpt>
      <trkpt lat="44.52954" lon="0.63007">
        <ele>143</ele>
        <time>2015-12-27T10:46:37Z</time>
      </trkpt>
      <trkpt lat="44.52974" lon="0.62989">
        <ele>145</ele>
        <time>2015-12-27T10:46:41Z</time>
      </trkpt>
      <trkpt lat="44.52992" lon="0.6297">
        <ele>144</ele>
        <time>2015-12-27T10:46:45Z</time>
      </trkpt>
      <trkpt lat="44.53016" lon="0.62952">
        <ele>146</ele>
        <time>2015-12-27T10:46:50Z</time>
      </trkpt>
      <trkpt lat="44.53027" lon="0.62935">
        <ele>146</ele>
        <time>2015-12-27T10:46:54Z</time>
      </trkpt>
      <trkpt lat="44.53041" lon="0.62915">
        <ele>146</ele>
        <time>2015-12-27T10:46:59Z</time>
      </trkpt>
      <trkpt lat="44.53051" lon="0.62903">
        <ele>148</ele>
        <time>2015-12-27T10:47:03Z</time>
      </trkpt>
      <trkpt lat="44.53062" lon="0.62884">
        <ele>149</ele>
        <time>2015-12-27T10:47:09Z</time>
      </trkpt>
      <trkpt lat="44.53069" lon="0.62872">
        <ele>148</ele>
        <time>2015-12-27T10:47:13Z</time>
      </trkpt>
      <trkpt lat="44.53077" lon="0.62857">
        <ele>146</ele>
        <time>2015-12-27T10:47:18Z</time>
      </trkpt>
      <trkpt lat="44.53094" lon="0.62828">
        <ele>147</ele>
        <time>2015-12-27T10:47:26Z</time>
      </trkpt>
      <trkpt lat="44.53097" lon="0.62821">
        <ele>147</ele>
        <time>2015-12-27T10:47:28Z</time>
      </trkpt>
      <trkpt lat="44.53109" lon="0.62801">
        <ele>148</ele>
        <time>2015-12-27T10:47:33Z</time>
      </trkpt>
      <trkpt lat="44.53123" lon="0.62785">
        <ele>149</ele>
        <time>2015-12-27T10:47:38Z</time>
      </trkpt>
      <trkpt lat="44.53133" lon="0.62769">
        <ele>151</ele>
        <time>2015-12-27T10:47:42Z</time>
      </trkpt>
      <trkpt lat="44.53157" lon="0.62739">
        <ele>154</ele>
        <time>2015-12-27T10:47:49Z</time>
      </trkpt>
      <trkpt lat="44.53167" lon="0.62726">
        <ele>155</ele>
        <time>2015-12-27T10:47:52Z</time>
      </trkpt>
      <trkpt lat="44.53181" lon="0.62707">
        <ele>155</ele>
        <time>2015-12-27T10:47:56Z</time>
      </trkpt>
      <trkpt lat="44.53199" lon="0.62685">
        <ele>155</ele>
        <time>2015-12-27T10:48:01Z</time>
      </trkpt>
      <trkpt lat="44.53223" lon="0.62651">
        <ele>156</ele>
        <time>2015-12-27T10:48:10Z</time>
      </trkpt>
      <trkpt lat="44.53228" lon="0.62645">
        <ele>158</ele>
        <time>2015-12-27T10:48:12Z</time>
      </trkpt>
      <trkpt lat="44.53237" lon="0.62632">
        <ele>158</ele>
        <time>2015-12-27T10:48:16Z</time>
      </trkpt>
      <trkpt lat="44.53245" lon="0.62622">
        <ele>157</ele>
        <time>2015-12-27T10:48:20Z</time>
      </trkpt>
      <trkpt lat="44.53254" lon="0.62608">
        <ele>153</ele>
        <time>2015-12-27T10:48:25Z</time>
      </trkpt>
      <trkpt lat="44.53261" lon="0.62592">
        <ele>157</ele>
        <time>2015-12-27T10:48:30Z</time>
      </trkpt>
      <trkpt lat="44.5327" lon="0.62582">
        <ele>158</ele>
        <time>2015-12-27T10:48:34Z</time>
      </trkpt>
      <trkpt lat="44.53285" lon="0.62586">
        <ele>159</ele>
        <time>2015-12-27T10:48:40Z</time>
      </trkpt>
      <trkpt lat="44.53294" lon="0.626">
        <ele>159</ele>
        <time>2015-12-27T10:48:43Z</time>
      </trkpt>
      <trkpt lat="44.53313" lon="0.62627">
        <ele>158</ele>
        <time>2015-12-27T10:48:47Z</time>
      </trkpt>
      <trkpt lat="44.53375" lon="0.62658">
        <ele>157</ele>
        <time>2015-12-27T10:48:55Z</time>
      </trkpt>
      <trkpt lat="44.53391" lon="0.62667">
        <ele>155</ele>
        <time>2015-12-27T10:48:57Z</time>
      </trkpt>
      <trkpt lat="44.53429" lon="0.62681">
        <ele>153</ele>
        <time>2015-12-27T10:49:02Z</time>
      </trkpt>
      <trkpt lat="44.5346" lon="0.6267">
        <ele>155</ele>
        <time>2015-12-27T10:49:07Z</time>
      </trkpt>
      <trkpt lat="44.53479" lon="0.62661">
        <ele>158</ele>
        <time>2015-12-27T10:49:11Z</time>
      </trkpt>
      <trkpt lat="44.53496" lon="0.62647">
        <ele>158</ele>
        <time>2015-12-27T10:49:15Z</time>
      </trkpt>
      <trkpt lat="44.53515" lon="0.62624">
        <ele>156</ele>
        <time>2015-12-27T10:49:20Z</time>
      </trkpt>
      <trkpt lat="44.53526" lon="0.62593">
        <ele>159</ele>
        <time>2015-12-27T10:49:25Z</time>
      </trkpt>
      <trkpt lat="44.53538" lon="0.62561">
        <ele>159</ele>
        <time>2015-12-27T10:49:31Z</time>
      </trkpt>
      <trkpt lat="44.53544" lon="0.62548">
        <ele>160</ele>
        <time>2015-12-27T10:49:34Z</time>
      </trkpt>
      <trkpt lat="44.53548" lon="0.62547">
        <ele>162</ele>
        <time>2015-12-27T10:49:39Z</time>
      </trkpt>
      <trkpt lat="44.53547" lon="0.62538">
        <ele>162</ele>
        <time>2015-12-27T10:49:44Z</time>
      </trkpt>
      <trkpt lat="44.53552" lon="0.62542">
        <ele>161</ele>
        <time>2015-12-27T10:49:49Z</time>
      </trkpt>
      <trkpt lat="44.53565" lon="0.62537">
        <ele>161</ele>
        <time>2015-12-27T10:49:55Z</time>
      </trkpt>
      <trkpt lat="44.53588" lon="0.62526">
        <ele>157</ele>
        <time>2015-12-27T10:50:03Z</time>
      </trkpt>
      <trkpt lat="44.53602" lon="0.62504">
        <ele>155</ele>
        <time>2015-12-27T10:50:08Z</time>
      </trkpt>
      <trkpt lat="44.53603" lon="0.62496">
        <ele>155</ele>
        <time>2015-12-27T10:50:10Z</time>
      </trkpt>
      <trkpt lat="44.53604" lon="0.62486">
        <ele>157</ele>
        <time>2015-12-27T10:50:14Z</time>
      </trkpt>
      <trkpt lat="44.53606" lon="0.62478">
        <ele>156</ele>
        <time>2015-12-27T10:50:19Z</time>
      </trkpt>
      <trkpt lat="44.53619" lon="0.62478">
        <ele>156</ele>
        <time>2015-12-27T10:50:24Z</time>
      </trkpt>
      <trkpt lat="44.53633" lon="0.62474">
        <ele>156</ele>
        <time>2015-12-27T10:50:28Z</time>
      </trkpt>
      <trkpt lat="44.53648" lon="0.62462">
        <ele>153</ele>
        <time>2015-12-27T10:50:33Z</time>
      </trkpt>
      <trkpt lat="44.53652" lon="0.62454">
        <ele>153</ele>
        <time>2015-12-27T10:50:38Z</time>
      </trkpt>
      <trkpt lat="44.53651" lon="0.62453">
        <ele>152</ele>
        <time>2015-12-27T10:50:43Z</time>
      </trkpt>
      <trkpt lat="44.53651" lon="0.62452">
        <ele>152</ele>
        <time>2015-12-27T10:50:46Z</time>
      </trkpt>
      <trkpt lat="44.53652" lon="0.62452">
        <ele>153</ele>
        <time>2015-12-27T10:50:49Z</time>
      </trkpt>
      <trkpt lat="44.53651" lon="0.62452">
        <ele>153</ele>
        <time>2015-12-27T10:50:53Z</time>
      </trkpt>
    </trkseg>
  </trk>
</gpx>